<?xml version="1.0" encoding="UTF-8" standalone="no" ?>
<gpx xmlns="http://www.topografix.com/GPX/1/1" xmlns:xsi="http://www.w3.org/2001/XMLSchema-instance" xsi:schemaLocation="http://www.topografix.com/GPX/1/1 http://www.topografix.com/GPX/1/1/gpx.xsd" version="1.1" creator="VisuGPX - https://www.visugpx.com">
  <metadata>
    <name>Balade à Fresville 11km </name>
  </metadata>
  <trk>
    <name><![CDATA[Balade à Fresville 11km _1]]></name>
    <trkseg>
      <trkpt lat="49.44005" lon="-1.38479">
        <ele>4</ele>
        <time>2022-01-27T14:02:00Z</time>
      </trkpt>
      <trkpt lat="49.44" lon="-1.3848">
        <ele>5.2</ele>
        <time>2022-01-27T14:02:05Z</time>
      </trkpt>
      <trkpt lat="49.43994" lon="-1.38479">
        <ele>5.3</ele>
        <time>2022-01-27T14:02:11Z</time>
      </trkpt>
      <trkpt lat="49.4399" lon="-1.38478">
        <ele>5.5</ele>
        <time>2022-01-27T14:02:14Z</time>
      </trkpt>
      <trkpt lat="49.43985" lon="-1.38479">
        <ele>5.7</ele>
        <time>2022-01-27T14:02:20Z</time>
      </trkpt>
      <trkpt lat="49.4398" lon="-1.38478">
        <ele>6.4</ele>
        <time>2022-01-27T14:02:27Z</time>
      </trkpt>
      <trkpt lat="49.43974" lon="-1.38478">
        <ele>6.6</ele>
        <time>2022-01-27T14:02:32Z</time>
      </trkpt>
      <trkpt lat="49.43969" lon="-1.38476">
        <ele>6.5</ele>
        <time>2022-01-27T14:02:38Z</time>
      </trkpt>
      <trkpt lat="49.43964" lon="-1.38472">
        <ele>6.4</ele>
        <time>2022-01-27T14:02:44Z</time>
      </trkpt>
      <trkpt lat="49.43959" lon="-1.38469">
        <ele>6.5</ele>
        <time>2022-01-27T14:02:49Z</time>
      </trkpt>
      <trkpt lat="49.43956" lon="-1.38462">
        <ele>6.7</ele>
        <time>2022-01-27T14:02:57Z</time>
      </trkpt>
      <trkpt lat="49.43955" lon="-1.38456">
        <ele>6.9</ele>
        <time>2022-01-27T14:03:03Z</time>
      </trkpt>
      <trkpt lat="49.43952" lon="-1.38449">
        <ele>6.7</ele>
        <time>2022-01-27T14:03:10Z</time>
      </trkpt>
      <trkpt lat="49.43947" lon="-1.38446">
        <ele>6</ele>
        <time>2022-01-27T14:03:17Z</time>
      </trkpt>
      <trkpt lat="49.4395" lon="-1.38439">
        <ele>6.1</ele>
        <time>2022-01-27T14:03:23Z</time>
      </trkpt>
      <trkpt lat="49.43951" lon="-1.3843">
        <ele>6.5</ele>
        <time>2022-01-27T14:03:29Z</time>
      </trkpt>
      <trkpt lat="49.43951" lon="-1.38423">
        <ele>6.8</ele>
        <time>2022-01-27T14:03:33Z</time>
      </trkpt>
      <trkpt lat="49.4395" lon="-1.38416">
        <ele>7.2</ele>
        <time>2022-01-27T14:03:38Z</time>
      </trkpt>
      <trkpt lat="49.43948" lon="-1.38409">
        <ele>7.4</ele>
        <time>2022-01-27T14:03:44Z</time>
      </trkpt>
      <trkpt lat="49.43947" lon="-1.38402">
        <ele>7.6</ele>
        <time>2022-01-27T14:03:49Z</time>
      </trkpt>
      <trkpt lat="49.43945" lon="-1.38394">
        <ele>7.8</ele>
        <time>2022-01-27T14:03:54Z</time>
      </trkpt>
      <trkpt lat="49.43942" lon="-1.38388">
        <ele>8</ele>
        <time>2022-01-27T14:04:00Z</time>
      </trkpt>
      <trkpt lat="49.43941" lon="-1.38381">
        <ele>8.3</ele>
        <time>2022-01-27T14:04:04Z</time>
      </trkpt>
      <trkpt lat="49.43938" lon="-1.38374">
        <ele>8.5</ele>
        <time>2022-01-27T14:04:10Z</time>
      </trkpt>
      <trkpt lat="49.43936" lon="-1.38367">
        <ele>8.6</ele>
        <time>2022-01-27T14:04:16Z</time>
      </trkpt>
      <trkpt lat="49.43933" lon="-1.3836">
        <ele>8.8</ele>
        <time>2022-01-27T14:04:22Z</time>
      </trkpt>
      <trkpt lat="49.43932" lon="-1.38353">
        <ele>9.1</ele>
        <time>2022-01-27T14:04:27Z</time>
      </trkpt>
      <trkpt lat="49.4393" lon="-1.38346">
        <ele>9.4</ele>
        <time>2022-01-27T14:04:33Z</time>
      </trkpt>
      <trkpt lat="49.43928" lon="-1.3834">
        <ele>9.5</ele>
        <time>2022-01-27T14:04:41Z</time>
      </trkpt>
      <trkpt lat="49.43927" lon="-1.38332">
        <ele>9.9</ele>
        <time>2022-01-27T14:04:47Z</time>
      </trkpt>
      <trkpt lat="49.43925" lon="-1.38324">
        <ele>10.1</ele>
        <time>2022-01-27T14:04:53Z</time>
      </trkpt>
      <trkpt lat="49.43923" lon="-1.38317">
        <ele>10.2</ele>
        <time>2022-01-27T14:05:02Z</time>
      </trkpt>
      <trkpt lat="49.43921" lon="-1.3831">
        <ele>10.2</ele>
        <time>2022-01-27T14:05:06Z</time>
      </trkpt>
      <trkpt lat="49.43921" lon="-1.38302">
        <ele>10.3</ele>
        <time>2022-01-27T14:05:10Z</time>
      </trkpt>
      <trkpt lat="49.4392" lon="-1.38295">
        <ele>10.4</ele>
        <time>2022-01-27T14:05:14Z</time>
      </trkpt>
      <trkpt lat="49.4392" lon="-1.38288">
        <ele>10.5</ele>
        <time>2022-01-27T14:05:19Z</time>
      </trkpt>
      <trkpt lat="49.43919" lon="-1.38281">
        <ele>10.3</ele>
        <time>2022-01-27T14:05:23Z</time>
      </trkpt>
      <trkpt lat="49.43917" lon="-1.38274">
        <ele>10.2</ele>
        <time>2022-01-27T14:05:28Z</time>
      </trkpt>
      <trkpt lat="49.43914" lon="-1.38266">
        <ele>10.1</ele>
        <time>2022-01-27T14:05:33Z</time>
      </trkpt>
      <trkpt lat="49.43911" lon="-1.38259">
        <ele>10.1</ele>
        <time>2022-01-27T14:05:38Z</time>
      </trkpt>
      <trkpt lat="49.43907" lon="-1.38255">
        <ele>10.1</ele>
        <time>2022-01-27T14:05:42Z</time>
      </trkpt>
      <trkpt lat="49.43905" lon="-1.38247">
        <ele>9.9</ele>
        <time>2022-01-27T14:05:47Z</time>
      </trkpt>
      <trkpt lat="49.43903" lon="-1.3824">
        <ele>10</ele>
        <time>2022-01-27T14:05:52Z</time>
      </trkpt>
      <trkpt lat="49.439" lon="-1.38234">
        <ele>10.1</ele>
        <time>2022-01-27T14:05:57Z</time>
      </trkpt>
      <trkpt lat="49.43897" lon="-1.38227">
        <ele>10.3</ele>
        <time>2022-01-27T14:06:03Z</time>
      </trkpt>
      <trkpt lat="49.43894" lon="-1.3822">
        <ele>10.4</ele>
        <time>2022-01-27T14:06:08Z</time>
      </trkpt>
      <trkpt lat="49.43893" lon="-1.38214">
        <ele>10.3</ele>
        <time>2022-01-27T14:06:13Z</time>
      </trkpt>
      <trkpt lat="49.43897" lon="-1.38209">
        <ele>10.2</ele>
        <time>2022-01-27T14:06:19Z</time>
      </trkpt>
      <trkpt lat="49.43902" lon="-1.38208">
        <ele>9.9</ele>
        <time>2022-01-27T14:06:23Z</time>
      </trkpt>
      <trkpt lat="49.43907" lon="-1.3821">
        <ele>9.3</ele>
        <time>2022-01-27T14:06:28Z</time>
      </trkpt>
      <trkpt lat="49.43912" lon="-1.38213">
        <ele>8.4</ele>
        <time>2022-01-27T14:06:34Z</time>
      </trkpt>
      <trkpt lat="49.43917" lon="-1.38214">
        <ele>7.6</ele>
        <time>2022-01-27T14:06:39Z</time>
      </trkpt>
      <trkpt lat="49.43922" lon="-1.38215">
        <ele>6.9</ele>
        <time>2022-01-27T14:06:44Z</time>
      </trkpt>
      <trkpt lat="49.43927" lon="-1.38217">
        <ele>6.4</ele>
        <time>2022-01-27T14:06:49Z</time>
      </trkpt>
      <trkpt lat="49.43933" lon="-1.38216">
        <ele>6.1</ele>
        <time>2022-01-27T14:06:55Z</time>
      </trkpt>
      <trkpt lat="49.43937" lon="-1.38214">
        <ele>6.1</ele>
        <time>2022-01-27T14:07:01Z</time>
      </trkpt>
      <trkpt lat="49.43941" lon="-1.38209">
        <ele>5.6</ele>
        <time>2022-01-27T14:07:26Z</time>
      </trkpt>
      <trkpt lat="49.43945" lon="-1.38204">
        <ele>5.6</ele>
        <time>2022-01-27T14:07:31Z</time>
      </trkpt>
      <trkpt lat="49.43948" lon="-1.38198">
        <ele>5.8</ele>
        <time>2022-01-27T14:07:36Z</time>
      </trkpt>
      <trkpt lat="49.43951" lon="-1.38192">
        <ele>5.6</ele>
        <time>2022-01-27T14:08:02Z</time>
      </trkpt>
      <trkpt lat="49.43955" lon="-1.38196">
        <ele>5.5</ele>
        <time>2022-01-27T14:08:05Z</time>
      </trkpt>
      <trkpt lat="49.4396" lon="-1.38198">
        <ele>5.3</ele>
        <time>2022-01-27T14:08:14Z</time>
      </trkpt>
      <trkpt lat="49.43964" lon="-1.382">
        <ele>5.4</ele>
        <time>2022-01-27T14:08:19Z</time>
      </trkpt>
      <trkpt lat="49.43969" lon="-1.382">
        <ele>5.5</ele>
        <time>2022-01-27T14:08:25Z</time>
      </trkpt>
      <trkpt lat="49.43973" lon="-1.38195">
        <ele>5.7</ele>
        <time>2022-01-27T14:08:31Z</time>
      </trkpt>
      <trkpt lat="49.43978" lon="-1.38194">
        <ele>5.9</ele>
        <time>2022-01-27T14:08:36Z</time>
      </trkpt>
      <trkpt lat="49.43982" lon="-1.38189">
        <ele>5.9</ele>
        <time>2022-01-27T14:08:42Z</time>
      </trkpt>
      <trkpt lat="49.43987" lon="-1.3819">
        <ele>5.9</ele>
        <time>2022-01-27T14:08:47Z</time>
      </trkpt>
      <trkpt lat="49.43992" lon="-1.38191">
        <ele>5.8</ele>
        <time>2022-01-27T14:08:52Z</time>
      </trkpt>
      <trkpt lat="49.43996" lon="-1.38196">
        <ele>5.7</ele>
        <time>2022-01-27T14:08:58Z</time>
      </trkpt>
      <trkpt lat="49.43999" lon="-1.3819">
        <ele>5.7</ele>
        <time>2022-01-27T14:09:09Z</time>
      </trkpt>
      <trkpt lat="49.44003" lon="-1.38184">
        <ele>5.5</ele>
        <time>2022-01-27T14:09:42Z</time>
      </trkpt>
      <trkpt lat="49.44007" lon="-1.38179">
        <ele>5.9</ele>
        <time>2022-01-27T14:09:47Z</time>
      </trkpt>
      <trkpt lat="49.44011" lon="-1.38177">
        <ele>6.1</ele>
        <time>2022-01-27T14:09:52Z</time>
      </trkpt>
      <trkpt lat="49.44015" lon="-1.38173">
        <ele>5.4</ele>
        <time>2022-01-27T14:10:04Z</time>
      </trkpt>
      <trkpt lat="49.4402" lon="-1.38171">
        <ele>5.5</ele>
        <time>2022-01-27T14:10:25Z</time>
      </trkpt>
      <trkpt lat="49.44022" lon="-1.38164">
        <ele>5.2</ele>
        <time>2022-01-27T14:10:31Z</time>
      </trkpt>
      <trkpt lat="49.44023" lon="-1.38157">
        <ele>4.9</ele>
        <time>2022-01-27T14:10:35Z</time>
      </trkpt>
      <trkpt lat="49.44024" lon="-1.3815">
        <ele>4.7</ele>
        <time>2022-01-27T14:10:39Z</time>
      </trkpt>
      <trkpt lat="49.44025" lon="-1.38143">
        <ele>4.7</ele>
        <time>2022-01-27T14:10:43Z</time>
      </trkpt>
      <trkpt lat="49.44026" lon="-1.38136">
        <ele>5</ele>
        <time>2022-01-27T14:10:47Z</time>
      </trkpt>
      <trkpt lat="49.44028" lon="-1.38127">
        <ele>5</ele>
        <time>2022-01-27T14:10:53Z</time>
      </trkpt>
      <trkpt lat="49.44032" lon="-1.38122">
        <ele>5</ele>
        <time>2022-01-27T14:11:00Z</time>
      </trkpt>
      <trkpt lat="49.44036" lon="-1.38123">
        <ele>4.9</ele>
        <time>2022-01-27T14:11:06Z</time>
      </trkpt>
      <trkpt lat="49.44041" lon="-1.38127">
        <ele>4.5</ele>
        <time>2022-01-27T14:11:10Z</time>
      </trkpt>
      <trkpt lat="49.44045" lon="-1.38123">
        <ele>4.4</ele>
        <time>2022-01-27T14:11:16Z</time>
      </trkpt>
      <trkpt lat="49.44049" lon="-1.3812">
        <ele>4.3</ele>
        <time>2022-01-27T14:11:23Z</time>
      </trkpt>
      <trkpt lat="49.44054" lon="-1.38118">
        <ele>4.5</ele>
        <time>2022-01-27T14:11:28Z</time>
      </trkpt>
      <trkpt lat="49.44059" lon="-1.38117">
        <ele>4.5</ele>
        <time>2022-01-27T14:11:34Z</time>
      </trkpt>
      <trkpt lat="49.44063" lon="-1.38114">
        <ele>4.7</ele>
        <time>2022-01-27T14:11:40Z</time>
      </trkpt>
      <trkpt lat="49.44064" lon="-1.38105">
        <ele>4.9</ele>
        <time>2022-01-27T14:11:45Z</time>
      </trkpt>
      <trkpt lat="49.44066" lon="-1.38098">
        <ele>4.9</ele>
        <time>2022-01-27T14:11:49Z</time>
      </trkpt>
      <trkpt lat="49.4407" lon="-1.38093">
        <ele>4.8</ele>
        <time>2022-01-27T14:11:55Z</time>
      </trkpt>
      <trkpt lat="49.44074" lon="-1.38087">
        <ele>5.2</ele>
        <time>2022-01-27T14:12:01Z</time>
      </trkpt>
      <trkpt lat="49.44076" lon="-1.3808">
        <ele>5.7</ele>
        <time>2022-01-27T14:12:07Z</time>
      </trkpt>
      <trkpt lat="49.44079" lon="-1.38074">
        <ele>5.9</ele>
        <time>2022-01-27T14:12:12Z</time>
      </trkpt>
      <trkpt lat="49.4408" lon="-1.38067">
        <ele>5.9</ele>
        <time>2022-01-27T14:12:17Z</time>
      </trkpt>
      <trkpt lat="49.44082" lon="-1.3806">
        <ele>5.8</ele>
        <time>2022-01-27T14:12:22Z</time>
      </trkpt>
      <trkpt lat="49.44088" lon="-1.38061">
        <ele>5.8</ele>
        <time>2022-01-27T14:12:28Z</time>
      </trkpt>
      <trkpt lat="49.44091" lon="-1.38054">
        <ele>5.7</ele>
        <time>2022-01-27T14:12:35Z</time>
      </trkpt>
      <trkpt lat="49.44093" lon="-1.38047">
        <ele>5.3</ele>
        <time>2022-01-27T14:12:41Z</time>
      </trkpt>
      <trkpt lat="49.44093" lon="-1.3804">
        <ele>5</ele>
        <time>2022-01-27T14:12:47Z</time>
      </trkpt>
      <trkpt lat="49.44095" lon="-1.38033">
        <ele>5.3</ele>
        <time>2022-01-27T14:12:54Z</time>
      </trkpt>
      <trkpt lat="49.44098" lon="-1.38027">
        <ele>5.4</ele>
        <time>2022-01-27T14:13:08Z</time>
      </trkpt>
      <trkpt lat="49.44098" lon="-1.38019">
        <ele>5.3</ele>
        <time>2022-01-27T14:13:13Z</time>
      </trkpt>
      <trkpt lat="49.44098" lon="-1.38012">
        <ele>5.2</ele>
        <time>2022-01-27T14:13:18Z</time>
      </trkpt>
      <trkpt lat="49.44098" lon="-1.38005">
        <ele>5.4</ele>
        <time>2022-01-27T14:13:23Z</time>
      </trkpt>
      <trkpt lat="49.44097" lon="-1.37998">
        <ele>5.6</ele>
        <time>2022-01-27T14:13:29Z</time>
      </trkpt>
      <trkpt lat="49.44102" lon="-1.37998">
        <ele>6</ele>
        <time>2022-01-27T14:13:39Z</time>
      </trkpt>
      <trkpt lat="49.44107" lon="-1.37996">
        <ele>6.2</ele>
        <time>2022-01-27T14:13:43Z</time>
      </trkpt>
      <trkpt lat="49.44112" lon="-1.37995">
        <ele>6.6</ele>
        <time>2022-01-27T14:13:48Z</time>
      </trkpt>
      <trkpt lat="49.44117" lon="-1.37994">
        <ele>7</ele>
        <time>2022-01-27T14:13:53Z</time>
      </trkpt>
      <trkpt lat="49.44123" lon="-1.37993">
        <ele>7.1</ele>
        <time>2022-01-27T14:13:58Z</time>
      </trkpt>
      <trkpt lat="49.44127" lon="-1.37989">
        <ele>6.7</ele>
        <time>2022-01-27T14:14:08Z</time>
      </trkpt>
      <trkpt lat="49.44132" lon="-1.37992">
        <ele>7.4</ele>
        <time>2022-01-27T14:14:14Z</time>
      </trkpt>
      <trkpt lat="49.44136" lon="-1.37993">
        <ele>8.1</ele>
        <time>2022-01-27T14:14:19Z</time>
      </trkpt>
      <trkpt lat="49.44141" lon="-1.37996">
        <ele>8.4</ele>
        <time>2022-01-27T14:14:24Z</time>
      </trkpt>
      <trkpt lat="49.44146" lon="-1.38001">
        <ele>8.3</ele>
        <time>2022-01-27T14:14:34Z</time>
      </trkpt>
      <trkpt lat="49.44151" lon="-1.38001">
        <ele>8.4</ele>
        <time>2022-01-27T14:14:39Z</time>
      </trkpt>
      <trkpt lat="49.44156" lon="-1.38002">
        <ele>8.8</ele>
        <time>2022-01-27T14:14:45Z</time>
      </trkpt>
      <trkpt lat="49.44161" lon="-1.38005">
        <ele>9.2</ele>
        <time>2022-01-27T14:14:50Z</time>
      </trkpt>
      <trkpt lat="49.44165" lon="-1.38008">
        <ele>9.5</ele>
        <time>2022-01-27T14:14:55Z</time>
      </trkpt>
      <trkpt lat="49.4417" lon="-1.3801">
        <ele>9.8</ele>
        <time>2022-01-27T14:15:00Z</time>
      </trkpt>
      <trkpt lat="49.44171" lon="-1.38017">
        <ele>10.5</ele>
        <time>2022-01-27T14:15:11Z</time>
      </trkpt>
      <trkpt lat="49.44174" lon="-1.38024">
        <ele>10.6</ele>
        <time>2022-01-27T14:15:16Z</time>
      </trkpt>
      <trkpt lat="49.44177" lon="-1.38029">
        <ele>10.6</ele>
        <time>2022-01-27T14:15:20Z</time>
      </trkpt>
      <trkpt lat="49.44181" lon="-1.38034">
        <ele>10.6</ele>
        <time>2022-01-27T14:15:25Z</time>
      </trkpt>
      <trkpt lat="49.44185" lon="-1.3804">
        <ele>10.6</ele>
        <time>2022-01-27T14:15:30Z</time>
      </trkpt>
      <trkpt lat="49.44189" lon="-1.38044">
        <ele>10.8</ele>
        <time>2022-01-27T14:15:34Z</time>
      </trkpt>
      <trkpt lat="49.44192" lon="-1.3805">
        <ele>11</ele>
        <time>2022-01-27T14:15:39Z</time>
      </trkpt>
      <trkpt lat="49.44196" lon="-1.38056">
        <ele>11</ele>
        <time>2022-01-27T14:15:45Z</time>
      </trkpt>
      <trkpt lat="49.44194" lon="-1.38063">
        <ele>10.9</ele>
        <time>2022-01-27T14:15:50Z</time>
      </trkpt>
      <trkpt lat="49.44195" lon="-1.38071">
        <ele>11.1</ele>
        <time>2022-01-27T14:16:07Z</time>
      </trkpt>
      <trkpt lat="49.44197" lon="-1.38078">
        <ele>12.3</ele>
        <time>2022-01-27T14:16:12Z</time>
      </trkpt>
      <trkpt lat="49.442" lon="-1.38084">
        <ele>12.4</ele>
        <time>2022-01-27T14:16:15Z</time>
      </trkpt>
      <trkpt lat="49.44201" lon="-1.38091">
        <ele>12.1</ele>
        <time>2022-01-27T14:16:20Z</time>
      </trkpt>
      <trkpt lat="49.44203" lon="-1.38099">
        <ele>11.6</ele>
        <time>2022-01-27T14:16:29Z</time>
      </trkpt>
      <trkpt lat="49.44205" lon="-1.38107">
        <ele>11.7</ele>
        <time>2022-01-27T14:16:32Z</time>
      </trkpt>
      <trkpt lat="49.44207" lon="-1.38116">
        <ele>11.7</ele>
        <time>2022-01-27T14:16:36Z</time>
      </trkpt>
      <trkpt lat="49.4421" lon="-1.38121">
        <ele>11.6</ele>
        <time>2022-01-27T14:16:40Z</time>
      </trkpt>
      <trkpt lat="49.44216" lon="-1.38126">
        <ele>11.5</ele>
        <time>2022-01-27T14:16:45Z</time>
      </trkpt>
      <trkpt lat="49.44221" lon="-1.38131">
        <ele>11.5</ele>
        <time>2022-01-27T14:16:50Z</time>
      </trkpt>
      <trkpt lat="49.44217" lon="-1.38138">
        <ele>10.2</ele>
        <time>2022-01-27T14:17:05Z</time>
      </trkpt>
      <trkpt lat="49.44213" lon="-1.38145">
        <ele>10.1</ele>
        <time>2022-01-27T14:17:09Z</time>
      </trkpt>
      <trkpt lat="49.44215" lon="-1.38154">
        <ele>9.9</ele>
        <time>2022-01-27T14:17:15Z</time>
      </trkpt>
      <trkpt lat="49.44215" lon="-1.38162">
        <ele>9.7</ele>
        <time>2022-01-27T14:17:20Z</time>
      </trkpt>
      <trkpt lat="49.44215" lon="-1.38169">
        <ele>9.6</ele>
        <time>2022-01-27T14:17:27Z</time>
      </trkpt>
      <trkpt lat="49.44218" lon="-1.38175">
        <ele>9.5</ele>
        <time>2022-01-27T14:17:31Z</time>
      </trkpt>
      <trkpt lat="49.4422" lon="-1.38182">
        <ele>9.3</ele>
        <time>2022-01-27T14:17:36Z</time>
      </trkpt>
      <trkpt lat="49.44223" lon="-1.38188">
        <ele>9.2</ele>
        <time>2022-01-27T14:17:41Z</time>
      </trkpt>
      <trkpt lat="49.44225" lon="-1.38195">
        <ele>9</ele>
        <time>2022-01-27T14:17:46Z</time>
      </trkpt>
      <trkpt lat="49.44226" lon="-1.38203">
        <ele>8.9</ele>
        <time>2022-01-27T14:17:50Z</time>
      </trkpt>
      <trkpt lat="49.44226" lon="-1.3821">
        <ele>8.8</ele>
        <time>2022-01-27T14:17:55Z</time>
      </trkpt>
      <trkpt lat="49.44228" lon="-1.38217">
        <ele>8.7</ele>
        <time>2022-01-27T14:18:00Z</time>
      </trkpt>
      <trkpt lat="49.44229" lon="-1.38225">
        <ele>8.6</ele>
        <time>2022-01-27T14:18:05Z</time>
      </trkpt>
      <trkpt lat="49.44231" lon="-1.38231">
        <ele>8.5</ele>
        <time>2022-01-27T14:18:09Z</time>
      </trkpt>
      <trkpt lat="49.44234" lon="-1.38238">
        <ele>8.4</ele>
        <time>2022-01-27T14:18:14Z</time>
      </trkpt>
      <trkpt lat="49.44237" lon="-1.38244">
        <ele>8.5</ele>
        <time>2022-01-27T14:18:17Z</time>
      </trkpt>
      <trkpt lat="49.4424" lon="-1.3825">
        <ele>8.6</ele>
        <time>2022-01-27T14:18:21Z</time>
      </trkpt>
      <trkpt lat="49.44244" lon="-1.38256">
        <ele>8.3</ele>
        <time>2022-01-27T14:18:26Z</time>
      </trkpt>
      <trkpt lat="49.44248" lon="-1.38261">
        <ele>7.8</ele>
        <time>2022-01-27T14:18:31Z</time>
      </trkpt>
      <trkpt lat="49.4425" lon="-1.38268">
        <ele>7.8</ele>
        <time>2022-01-27T14:18:36Z</time>
      </trkpt>
      <trkpt lat="49.4425" lon="-1.38276">
        <ele>7.6</ele>
        <time>2022-01-27T14:18:48Z</time>
      </trkpt>
      <trkpt lat="49.44254" lon="-1.38283">
        <ele>7.3</ele>
        <time>2022-01-27T14:18:56Z</time>
      </trkpt>
      <trkpt lat="49.44258" lon="-1.38289">
        <ele>7.3</ele>
        <time>2022-01-27T14:19:02Z</time>
      </trkpt>
      <trkpt lat="49.44261" lon="-1.38294">
        <ele>7.3</ele>
        <time>2022-01-27T14:19:06Z</time>
      </trkpt>
      <trkpt lat="49.44264" lon="-1.383">
        <ele>7.5</ele>
        <time>2022-01-27T14:19:12Z</time>
      </trkpt>
      <trkpt lat="49.44265" lon="-1.38307">
        <ele>7.3</ele>
        <time>2022-01-27T14:19:17Z</time>
      </trkpt>
      <trkpt lat="49.44269" lon="-1.38313">
        <ele>6.8</ele>
        <time>2022-01-27T14:19:24Z</time>
      </trkpt>
      <trkpt lat="49.4427" lon="-1.38322">
        <ele>6.7</ele>
        <time>2022-01-27T14:19:28Z</time>
      </trkpt>
      <trkpt lat="49.44272" lon="-1.38329">
        <ele>6.9</ele>
        <time>2022-01-27T14:19:31Z</time>
      </trkpt>
      <trkpt lat="49.44275" lon="-1.38336">
        <ele>7.1</ele>
        <time>2022-01-27T14:19:35Z</time>
      </trkpt>
      <trkpt lat="49.44278" lon="-1.38343">
        <ele>7.3</ele>
        <time>2022-01-27T14:19:40Z</time>
      </trkpt>
      <trkpt lat="49.44281" lon="-1.38348">
        <ele>7.5</ele>
        <time>2022-01-27T14:19:44Z</time>
      </trkpt>
      <trkpt lat="49.44284" lon="-1.38356">
        <ele>7.5</ele>
        <time>2022-01-27T14:19:50Z</time>
      </trkpt>
      <trkpt lat="49.44285" lon="-1.38362">
        <ele>7.1</ele>
        <time>2022-01-27T14:19:54Z</time>
      </trkpt>
      <trkpt lat="49.44285" lon="-1.3837">
        <ele>6.9</ele>
        <time>2022-01-27T14:19:58Z</time>
      </trkpt>
      <trkpt lat="49.44283" lon="-1.38377">
        <ele>6.6</ele>
        <time>2022-01-27T14:20:03Z</time>
      </trkpt>
      <trkpt lat="49.44283" lon="-1.38385">
        <ele>5.9</ele>
        <time>2022-01-27T14:20:09Z</time>
      </trkpt>
      <trkpt lat="49.44284" lon="-1.38393">
        <ele>5.6</ele>
        <time>2022-01-27T14:20:13Z</time>
      </trkpt>
      <trkpt lat="49.44285" lon="-1.38402">
        <ele>5.5</ele>
        <time>2022-01-27T14:20:18Z</time>
      </trkpt>
      <trkpt lat="49.44286" lon="-1.38409">
        <ele>5.1</ele>
        <time>2022-01-27T14:20:22Z</time>
      </trkpt>
      <trkpt lat="49.44286" lon="-1.38417">
        <ele>4.9</ele>
        <time>2022-01-27T14:20:28Z</time>
      </trkpt>
      <trkpt lat="49.44286" lon="-1.38425">
        <ele>5.4</ele>
        <time>2022-01-27T14:20:33Z</time>
      </trkpt>
      <trkpt lat="49.44284" lon="-1.38433">
        <ele>5.5</ele>
        <time>2022-01-27T14:20:38Z</time>
      </trkpt>
      <trkpt lat="49.44282" lon="-1.38441">
        <ele>5.4</ele>
        <time>2022-01-27T14:20:42Z</time>
      </trkpt>
      <trkpt lat="49.44281" lon="-1.38448">
        <ele>5.1</ele>
        <time>2022-01-27T14:20:47Z</time>
      </trkpt>
      <trkpt lat="49.4428" lon="-1.38456">
        <ele>4.8</ele>
        <time>2022-01-27T14:20:52Z</time>
      </trkpt>
      <trkpt lat="49.44279" lon="-1.38464">
        <ele>4.6</ele>
        <time>2022-01-27T14:20:57Z</time>
      </trkpt>
      <trkpt lat="49.44279" lon="-1.38472">
        <ele>4.6</ele>
        <time>2022-01-27T14:21:02Z</time>
      </trkpt>
      <trkpt lat="49.44279" lon="-1.38479">
        <ele>4.7</ele>
        <time>2022-01-27T14:21:06Z</time>
      </trkpt>
      <trkpt lat="49.4428" lon="-1.38486">
        <ele>4.7</ele>
        <time>2022-01-27T14:21:12Z</time>
      </trkpt>
      <trkpt lat="49.44285" lon="-1.38489">
        <ele>5.1</ele>
        <time>2022-01-27T14:21:21Z</time>
      </trkpt>
      <trkpt lat="49.4429" lon="-1.38487">
        <ele>4.8</ele>
        <time>2022-01-27T14:21:32Z</time>
      </trkpt>
      <trkpt lat="49.44294" lon="-1.38489">
        <ele>4.5</ele>
        <time>2022-01-27T14:21:39Z</time>
      </trkpt>
      <trkpt lat="49.44299" lon="-1.38492">
        <ele>4.9</ele>
        <time>2022-01-27T14:21:43Z</time>
      </trkpt>
      <trkpt lat="49.443" lon="-1.38499">
        <ele>9.4</ele>
        <time>2022-01-27T14:22:01Z</time>
      </trkpt>
      <trkpt lat="49.44304" lon="-1.38503">
        <ele>10</ele>
        <time>2022-01-27T14:22:06Z</time>
      </trkpt>
      <trkpt lat="49.44309" lon="-1.38503">
        <ele>11</ele>
        <time>2022-01-27T14:22:13Z</time>
      </trkpt>
      <trkpt lat="49.44312" lon="-1.38497">
        <ele>11.4</ele>
        <time>2022-01-27T14:22:17Z</time>
      </trkpt>
      <trkpt lat="49.44314" lon="-1.38489">
        <ele>12.7</ele>
        <time>2022-01-27T14:22:33Z</time>
      </trkpt>
      <trkpt lat="49.44316" lon="-1.38483">
        <ele>13.1</ele>
        <time>2022-01-27T14:22:35Z</time>
      </trkpt>
      <trkpt lat="49.4432" lon="-1.38479">
        <ele>13.5</ele>
        <time>2022-01-27T14:22:38Z</time>
      </trkpt>
      <trkpt lat="49.44325" lon="-1.38474">
        <ele>13.8</ele>
        <time>2022-01-27T14:22:42Z</time>
      </trkpt>
      <trkpt lat="49.44329" lon="-1.3847">
        <ele>14.1</ele>
        <time>2022-01-27T14:22:46Z</time>
      </trkpt>
      <trkpt lat="49.44332" lon="-1.38464">
        <ele>14.3</ele>
        <time>2022-01-27T14:22:49Z</time>
      </trkpt>
      <trkpt lat="49.44332" lon="-1.38456">
        <ele>14.5</ele>
        <time>2022-01-27T14:22:53Z</time>
      </trkpt>
      <trkpt lat="49.44333" lon="-1.3845">
        <ele>14.6</ele>
        <time>2022-01-27T14:22:59Z</time>
      </trkpt>
      <trkpt lat="49.44337" lon="-1.38443">
        <ele>14.6</ele>
        <time>2022-01-27T14:23:04Z</time>
      </trkpt>
      <trkpt lat="49.4434" lon="-1.38437">
        <ele>14.5</ele>
        <time>2022-01-27T14:23:11Z</time>
      </trkpt>
      <trkpt lat="49.44344" lon="-1.38431">
        <ele>14.5</ele>
        <time>2022-01-27T14:23:15Z</time>
      </trkpt>
      <trkpt lat="49.44346" lon="-1.38423">
        <ele>14.8</ele>
        <time>2022-01-27T14:23:20Z</time>
      </trkpt>
      <trkpt lat="49.4435" lon="-1.38419">
        <ele>15.1</ele>
        <time>2022-01-27T14:23:23Z</time>
      </trkpt>
      <trkpt lat="49.44352" lon="-1.38412">
        <ele>15.2</ele>
        <time>2022-01-27T14:23:26Z</time>
      </trkpt>
      <trkpt lat="49.44354" lon="-1.38406">
        <ele>15.3</ele>
        <time>2022-01-27T14:23:29Z</time>
      </trkpt>
      <trkpt lat="49.44357" lon="-1.384">
        <ele>15.3</ele>
        <time>2022-01-27T14:23:33Z</time>
      </trkpt>
      <trkpt lat="49.4436" lon="-1.38393">
        <ele>15.5</ele>
        <time>2022-01-27T14:23:37Z</time>
      </trkpt>
      <trkpt lat="49.44365" lon="-1.38387">
        <ele>15.7</ele>
        <time>2022-01-27T14:23:43Z</time>
      </trkpt>
      <trkpt lat="49.44369" lon="-1.38383">
        <ele>15.8</ele>
        <time>2022-01-27T14:23:48Z</time>
      </trkpt>
      <trkpt lat="49.44372" lon="-1.38375">
        <ele>16.4</ele>
        <time>2022-01-27T14:24:13Z</time>
      </trkpt>
      <trkpt lat="49.44375" lon="-1.3837">
        <ele>16.4</ele>
        <time>2022-01-27T14:24:14Z</time>
      </trkpt>
      <trkpt lat="49.44381" lon="-1.38364">
        <ele>16.3</ele>
        <time>2022-01-27T14:24:16Z</time>
      </trkpt>
      <trkpt lat="49.44384" lon="-1.38357">
        <ele>16.2</ele>
        <time>2022-01-27T14:24:19Z</time>
      </trkpt>
      <trkpt lat="49.44388" lon="-1.38352">
        <ele>15.9</ele>
        <time>2022-01-27T14:24:21Z</time>
      </trkpt>
      <trkpt lat="49.44393" lon="-1.38348">
        <ele>15.8</ele>
        <time>2022-01-27T14:24:24Z</time>
      </trkpt>
      <trkpt lat="49.44398" lon="-1.38342">
        <ele>15.8</ele>
        <time>2022-01-27T14:24:29Z</time>
      </trkpt>
      <trkpt lat="49.44401" lon="-1.38337">
        <ele>16</ele>
        <time>2022-01-27T14:24:32Z</time>
      </trkpt>
      <trkpt lat="49.44405" lon="-1.38332">
        <ele>16.2</ele>
        <time>2022-01-27T14:24:35Z</time>
      </trkpt>
      <trkpt lat="49.44407" lon="-1.38326">
        <ele>16.4</ele>
        <time>2022-01-27T14:24:39Z</time>
      </trkpt>
      <trkpt lat="49.4441" lon="-1.3832">
        <ele>16.5</ele>
        <time>2022-01-27T14:24:44Z</time>
      </trkpt>
      <trkpt lat="49.44414" lon="-1.38316">
        <ele>16.6</ele>
        <time>2022-01-27T14:24:48Z</time>
      </trkpt>
      <trkpt lat="49.44417" lon="-1.38311">
        <ele>16.5</ele>
        <time>2022-01-27T14:24:52Z</time>
      </trkpt>
      <trkpt lat="49.4442" lon="-1.38304">
        <ele>16.5</ele>
        <time>2022-01-27T14:24:57Z</time>
      </trkpt>
      <trkpt lat="49.44423" lon="-1.38296">
        <ele>16.4</ele>
        <time>2022-01-27T14:25:02Z</time>
      </trkpt>
      <trkpt lat="49.44426" lon="-1.38291">
        <ele>16.2</ele>
        <time>2022-01-27T14:25:07Z</time>
      </trkpt>
      <trkpt lat="49.4443" lon="-1.38285">
        <ele>16.2</ele>
        <time>2022-01-27T14:25:11Z</time>
      </trkpt>
      <trkpt lat="49.44434" lon="-1.38279">
        <ele>16.2</ele>
        <time>2022-01-27T14:25:16Z</time>
      </trkpt>
      <trkpt lat="49.44438" lon="-1.38273">
        <ele>16.2</ele>
        <time>2022-01-27T14:25:20Z</time>
      </trkpt>
      <trkpt lat="49.44442" lon="-1.38268">
        <ele>16.2</ele>
        <time>2022-01-27T14:25:24Z</time>
      </trkpt>
      <trkpt lat="49.44445" lon="-1.38261">
        <ele>16.2</ele>
        <time>2022-01-27T14:25:28Z</time>
      </trkpt>
      <trkpt lat="49.44448" lon="-1.38253">
        <ele>16.2</ele>
        <time>2022-01-27T14:25:33Z</time>
      </trkpt>
      <trkpt lat="49.44451" lon="-1.38247">
        <ele>16.3</ele>
        <time>2022-01-27T14:25:37Z</time>
      </trkpt>
      <trkpt lat="49.44455" lon="-1.38242">
        <ele>16.4</ele>
        <time>2022-01-27T14:25:42Z</time>
      </trkpt>
      <trkpt lat="49.44459" lon="-1.38236">
        <ele>16.5</ele>
        <time>2022-01-27T14:25:47Z</time>
      </trkpt>
      <trkpt lat="49.44463" lon="-1.3823">
        <ele>16.6</ele>
        <time>2022-01-27T14:25:51Z</time>
      </trkpt>
      <trkpt lat="49.44466" lon="-1.38223">
        <ele>16.6</ele>
        <time>2022-01-27T14:25:56Z</time>
      </trkpt>
      <trkpt lat="49.44468" lon="-1.38217">
        <ele>16.6</ele>
        <time>2022-01-27T14:26:00Z</time>
      </trkpt>
      <trkpt lat="49.44472" lon="-1.3821">
        <ele>16.6</ele>
        <time>2022-01-27T14:26:04Z</time>
      </trkpt>
      <trkpt lat="49.44473" lon="-1.38202">
        <ele>16.4</ele>
        <time>2022-01-27T14:26:09Z</time>
      </trkpt>
      <trkpt lat="49.44476" lon="-1.38195">
        <ele>16.3</ele>
        <time>2022-01-27T14:26:14Z</time>
      </trkpt>
      <trkpt lat="49.4448" lon="-1.3819">
        <ele>16.4</ele>
        <time>2022-01-27T14:26:18Z</time>
      </trkpt>
      <trkpt lat="49.44484" lon="-1.38184">
        <ele>16.6</ele>
        <time>2022-01-27T14:26:22Z</time>
      </trkpt>
      <trkpt lat="49.44487" lon="-1.38178">
        <ele>16.7</ele>
        <time>2022-01-27T14:26:26Z</time>
      </trkpt>
      <trkpt lat="49.44488" lon="-1.38171">
        <ele>16.8</ele>
        <time>2022-01-27T14:26:30Z</time>
      </trkpt>
      <trkpt lat="49.44491" lon="-1.38164">
        <ele>17</ele>
        <time>2022-01-27T14:26:37Z</time>
      </trkpt>
      <trkpt lat="49.44495" lon="-1.38158">
        <ele>16.9</ele>
        <time>2022-01-27T14:26:41Z</time>
      </trkpt>
      <trkpt lat="49.44499" lon="-1.38154">
        <ele>16.7</ele>
        <time>2022-01-27T14:26:45Z</time>
      </trkpt>
      <trkpt lat="49.44502" lon="-1.38149">
        <ele>16.6</ele>
        <time>2022-01-27T14:26:48Z</time>
      </trkpt>
      <trkpt lat="49.44506" lon="-1.38144">
        <ele>16.7</ele>
        <time>2022-01-27T14:26:52Z</time>
      </trkpt>
      <trkpt lat="49.4451" lon="-1.38137">
        <ele>16.6</ele>
        <time>2022-01-27T14:26:57Z</time>
      </trkpt>
      <trkpt lat="49.44513" lon="-1.3813">
        <ele>16</ele>
        <time>2022-01-27T14:27:11Z</time>
      </trkpt>
      <trkpt lat="49.44514" lon="-1.38123">
        <ele>16.1</ele>
        <time>2022-01-27T14:27:14Z</time>
      </trkpt>
      <trkpt lat="49.44515" lon="-1.38116">
        <ele>16.1</ele>
        <time>2022-01-27T14:27:17Z</time>
      </trkpt>
      <trkpt lat="49.44519" lon="-1.3811">
        <ele>16.1</ele>
        <time>2022-01-27T14:27:21Z</time>
      </trkpt>
      <trkpt lat="49.44522" lon="-1.38105">
        <ele>16.1</ele>
        <time>2022-01-27T14:27:24Z</time>
      </trkpt>
      <trkpt lat="49.44526" lon="-1.381">
        <ele>16.1</ele>
        <time>2022-01-27T14:27:28Z</time>
      </trkpt>
      <trkpt lat="49.44531" lon="-1.38096">
        <ele>16.1</ele>
        <time>2022-01-27T14:27:32Z</time>
      </trkpt>
      <trkpt lat="49.44534" lon="-1.38089">
        <ele>15.7</ele>
        <time>2022-01-27T14:27:36Z</time>
      </trkpt>
      <trkpt lat="49.44535" lon="-1.38081">
        <ele>15.2</ele>
        <time>2022-01-27T14:27:40Z</time>
      </trkpt>
      <trkpt lat="49.44537" lon="-1.38074">
        <ele>15.1</ele>
        <time>2022-01-27T14:27:44Z</time>
      </trkpt>
      <trkpt lat="49.44541" lon="-1.38068">
        <ele>15.1</ele>
        <time>2022-01-27T14:27:49Z</time>
      </trkpt>
      <trkpt lat="49.44545" lon="-1.38063">
        <ele>15.1</ele>
        <time>2022-01-27T14:27:53Z</time>
      </trkpt>
      <trkpt lat="49.44549" lon="-1.3806">
        <ele>15.1</ele>
        <time>2022-01-27T14:27:58Z</time>
      </trkpt>
      <trkpt lat="49.44552" lon="-1.38054">
        <ele>15</ele>
        <time>2022-01-27T14:28:02Z</time>
      </trkpt>
      <trkpt lat="49.44555" lon="-1.38048">
        <ele>14.9</ele>
        <time>2022-01-27T14:28:05Z</time>
      </trkpt>
      <trkpt lat="49.44556" lon="-1.38041">
        <ele>14.9</ele>
        <time>2022-01-27T14:28:08Z</time>
      </trkpt>
      <trkpt lat="49.44559" lon="-1.38034">
        <ele>15.3</ele>
        <time>2022-01-27T14:28:12Z</time>
      </trkpt>
      <trkpt lat="49.44563" lon="-1.38029">
        <ele>15.7</ele>
        <time>2022-01-27T14:28:16Z</time>
      </trkpt>
      <trkpt lat="49.44566" lon="-1.38024">
        <ele>16.1</ele>
        <time>2022-01-27T14:28:19Z</time>
      </trkpt>
      <trkpt lat="49.44569" lon="-1.38016">
        <ele>16.3</ele>
        <time>2022-01-27T14:28:23Z</time>
      </trkpt>
      <trkpt lat="49.4457" lon="-1.3801">
        <ele>16.4</ele>
        <time>2022-01-27T14:28:27Z</time>
      </trkpt>
      <trkpt lat="49.44573" lon="-1.38004">
        <ele>16.4</ele>
        <time>2022-01-27T14:28:36Z</time>
      </trkpt>
      <trkpt lat="49.44575" lon="-1.37998">
        <ele>16.4</ele>
        <time>2022-01-27T14:28:39Z</time>
      </trkpt>
      <trkpt lat="49.44577" lon="-1.37991">
        <ele>16.4</ele>
        <time>2022-01-27T14:28:43Z</time>
      </trkpt>
      <trkpt lat="49.4458" lon="-1.37984">
        <ele>16.4</ele>
        <time>2022-01-27T14:28:52Z</time>
      </trkpt>
      <trkpt lat="49.44584" lon="-1.37979">
        <ele>16.5</ele>
        <time>2022-01-27T14:28:55Z</time>
      </trkpt>
      <trkpt lat="49.44587" lon="-1.37974">
        <ele>16.5</ele>
        <time>2022-01-27T14:28:58Z</time>
      </trkpt>
      <trkpt lat="49.44589" lon="-1.37967">
        <ele>16.4</ele>
        <time>2022-01-27T14:29:02Z</time>
      </trkpt>
      <trkpt lat="49.44592" lon="-1.3796">
        <ele>16.4</ele>
        <time>2022-01-27T14:29:05Z</time>
      </trkpt>
      <trkpt lat="49.44591" lon="-1.37952">
        <ele>16.4</ele>
        <time>2022-01-27T14:29:09Z</time>
      </trkpt>
      <trkpt lat="49.44592" lon="-1.37945">
        <ele>16.4</ele>
        <time>2022-01-27T14:29:13Z</time>
      </trkpt>
      <trkpt lat="49.44593" lon="-1.37936">
        <ele>16.2</ele>
        <time>2022-01-27T14:29:17Z</time>
      </trkpt>
      <trkpt lat="49.44595" lon="-1.37928">
        <ele>15.8</ele>
        <time>2022-01-27T14:29:22Z</time>
      </trkpt>
      <trkpt lat="49.44594" lon="-1.37919">
        <ele>15.6</ele>
        <time>2022-01-27T14:29:26Z</time>
      </trkpt>
      <trkpt lat="49.44596" lon="-1.37911">
        <ele>15.7</ele>
        <time>2022-01-27T14:29:30Z</time>
      </trkpt>
      <trkpt lat="49.44598" lon="-1.37903">
        <ele>15.8</ele>
        <time>2022-01-27T14:29:34Z</time>
      </trkpt>
      <trkpt lat="49.44599" lon="-1.37894">
        <ele>15.9</ele>
        <time>2022-01-27T14:29:39Z</time>
      </trkpt>
      <trkpt lat="49.44601" lon="-1.37888">
        <ele>15.9</ele>
        <time>2022-01-27T14:29:42Z</time>
      </trkpt>
      <trkpt lat="49.44603" lon="-1.37879">
        <ele>15.9</ele>
        <time>2022-01-27T14:29:46Z</time>
      </trkpt>
      <trkpt lat="49.44604" lon="-1.37871">
        <ele>16</ele>
        <time>2022-01-27T14:29:50Z</time>
      </trkpt>
      <trkpt lat="49.44606" lon="-1.37865">
        <ele>15.9</ele>
        <time>2022-01-27T14:29:54Z</time>
      </trkpt>
      <trkpt lat="49.4461" lon="-1.37857">
        <ele>15.8</ele>
        <time>2022-01-27T14:29:59Z</time>
      </trkpt>
      <trkpt lat="49.44611" lon="-1.37849">
        <ele>15.7</ele>
        <time>2022-01-27T14:30:03Z</time>
      </trkpt>
      <trkpt lat="49.44613" lon="-1.37841">
        <ele>15.7</ele>
        <time>2022-01-27T14:30:08Z</time>
      </trkpt>
      <trkpt lat="49.44617" lon="-1.37834">
        <ele>15.7</ele>
        <time>2022-01-27T14:30:13Z</time>
      </trkpt>
      <trkpt lat="49.44618" lon="-1.37827">
        <ele>15.7</ele>
        <time>2022-01-27T14:30:17Z</time>
      </trkpt>
      <trkpt lat="49.4462" lon="-1.3782">
        <ele>15.8</ele>
        <time>2022-01-27T14:30:20Z</time>
      </trkpt>
      <trkpt lat="49.44622" lon="-1.37814">
        <ele>15.9</ele>
        <time>2022-01-27T14:30:24Z</time>
      </trkpt>
      <trkpt lat="49.44625" lon="-1.37806">
        <ele>15.9</ele>
        <time>2022-01-27T14:30:29Z</time>
      </trkpt>
      <trkpt lat="49.44629" lon="-1.37802">
        <ele>16.1</ele>
        <time>2022-01-27T14:30:33Z</time>
      </trkpt>
      <trkpt lat="49.44632" lon="-1.37796">
        <ele>16.2</ele>
        <time>2022-01-27T14:30:38Z</time>
      </trkpt>
      <trkpt lat="49.44634" lon="-1.37788">
        <ele>16.4</ele>
        <time>2022-01-27T14:30:43Z</time>
      </trkpt>
      <trkpt lat="49.44638" lon="-1.37782">
        <ele>16.7</ele>
        <time>2022-01-27T14:30:47Z</time>
      </trkpt>
      <trkpt lat="49.4464" lon="-1.37775">
        <ele>16.8</ele>
        <time>2022-01-27T14:30:51Z</time>
      </trkpt>
      <trkpt lat="49.44641" lon="-1.37768">
        <ele>16.9</ele>
        <time>2022-01-27T14:30:55Z</time>
      </trkpt>
      <trkpt lat="49.44646" lon="-1.37763">
        <ele>16.7</ele>
        <time>2022-01-27T14:31:00Z</time>
      </trkpt>
      <trkpt lat="49.44648" lon="-1.37756">
        <ele>16.5</ele>
        <time>2022-01-27T14:31:04Z</time>
      </trkpt>
      <trkpt lat="49.44648" lon="-1.37748">
        <ele>16.8</ele>
        <time>2022-01-27T14:31:09Z</time>
      </trkpt>
      <trkpt lat="49.44649" lon="-1.37741">
        <ele>17.5</ele>
        <time>2022-01-27T14:31:13Z</time>
      </trkpt>
      <trkpt lat="49.44651" lon="-1.37733">
        <ele>18</ele>
        <time>2022-01-27T14:31:16Z</time>
      </trkpt>
      <trkpt lat="49.4465" lon="-1.37726">
        <ele>18.1</ele>
        <time>2022-01-27T14:31:19Z</time>
      </trkpt>
      <trkpt lat="49.44646" lon="-1.37721">
        <ele>18.3</ele>
        <time>2022-01-27T14:31:23Z</time>
      </trkpt>
      <trkpt lat="49.4464" lon="-1.37717">
        <ele>18.5</ele>
        <time>2022-01-27T14:31:27Z</time>
      </trkpt>
      <trkpt lat="49.44637" lon="-1.37712">
        <ele>18.6</ele>
        <time>2022-01-27T14:31:32Z</time>
      </trkpt>
      <trkpt lat="49.44634" lon="-1.37707">
        <ele>18</ele>
        <time>2022-01-27T14:31:43Z</time>
      </trkpt>
      <trkpt lat="49.4463" lon="-1.37702">
        <ele>17.9</ele>
        <time>2022-01-27T14:31:47Z</time>
      </trkpt>
      <trkpt lat="49.44626" lon="-1.37695">
        <ele>17.9</ele>
        <time>2022-01-27T14:31:51Z</time>
      </trkpt>
      <trkpt lat="49.44622" lon="-1.37687">
        <ele>17.9</ele>
        <time>2022-01-27T14:32:01Z</time>
      </trkpt>
      <trkpt lat="49.44618" lon="-1.37682">
        <ele>18</ele>
        <time>2022-01-27T14:32:04Z</time>
      </trkpt>
      <trkpt lat="49.44613" lon="-1.3768">
        <ele>18.1</ele>
        <time>2022-01-27T14:32:08Z</time>
      </trkpt>
      <trkpt lat="49.44609" lon="-1.37677">
        <ele>18.1</ele>
        <time>2022-01-27T14:32:14Z</time>
      </trkpt>
      <trkpt lat="49.44608" lon="-1.3767">
        <ele>18</ele>
        <time>2022-01-27T14:32:18Z</time>
      </trkpt>
      <trkpt lat="49.44607" lon="-1.37663">
        <ele>18</ele>
        <time>2022-01-27T14:32:22Z</time>
      </trkpt>
      <trkpt lat="49.44603" lon="-1.37658">
        <ele>18.2</ele>
        <time>2022-01-27T14:32:25Z</time>
      </trkpt>
      <trkpt lat="49.44601" lon="-1.37652">
        <ele>18.4</ele>
        <time>2022-01-27T14:32:28Z</time>
      </trkpt>
      <trkpt lat="49.44597" lon="-1.37646">
        <ele>18.8</ele>
        <time>2022-01-27T14:32:31Z</time>
      </trkpt>
      <trkpt lat="49.44594" lon="-1.37638">
        <ele>19.2</ele>
        <time>2022-01-27T14:32:36Z</time>
      </trkpt>
      <trkpt lat="49.44592" lon="-1.37632">
        <ele>19.3</ele>
        <time>2022-01-27T14:32:39Z</time>
      </trkpt>
      <trkpt lat="49.44589" lon="-1.37627">
        <ele>19.4</ele>
        <time>2022-01-27T14:32:42Z</time>
      </trkpt>
      <trkpt lat="49.44587" lon="-1.37621">
        <ele>19.5</ele>
        <time>2022-01-27T14:32:45Z</time>
      </trkpt>
      <trkpt lat="49.44586" lon="-1.37612">
        <ele>19.6</ele>
        <time>2022-01-27T14:32:49Z</time>
      </trkpt>
      <trkpt lat="49.44587" lon="-1.37604">
        <ele>19.6</ele>
        <time>2022-01-27T14:32:53Z</time>
      </trkpt>
      <trkpt lat="49.44589" lon="-1.37597">
        <ele>19.8</ele>
        <time>2022-01-27T14:32:58Z</time>
      </trkpt>
      <trkpt lat="49.44592" lon="-1.3759">
        <ele>20</ele>
        <time>2022-01-27T14:33:01Z</time>
      </trkpt>
      <trkpt lat="49.44593" lon="-1.37582">
        <ele>20.1</ele>
        <time>2022-01-27T14:33:05Z</time>
      </trkpt>
      <trkpt lat="49.44594" lon="-1.37574">
        <ele>20.3</ele>
        <time>2022-01-27T14:33:09Z</time>
      </trkpt>
      <trkpt lat="49.44596" lon="-1.37567">
        <ele>20.6</ele>
        <time>2022-01-27T14:33:14Z</time>
      </trkpt>
      <trkpt lat="49.44595" lon="-1.3756">
        <ele>20.9</ele>
        <time>2022-01-27T14:33:17Z</time>
      </trkpt>
      <trkpt lat="49.44595" lon="-1.37553">
        <ele>21.4</ele>
        <time>2022-01-27T14:33:21Z</time>
      </trkpt>
      <trkpt lat="49.44597" lon="-1.37546">
        <ele>21.5</ele>
        <time>2022-01-27T14:33:25Z</time>
      </trkpt>
      <trkpt lat="49.44599" lon="-1.3754">
        <ele>21.5</ele>
        <time>2022-01-27T14:33:29Z</time>
      </trkpt>
      <trkpt lat="49.44602" lon="-1.37534">
        <ele>21.3</ele>
        <time>2022-01-27T14:33:32Z</time>
      </trkpt>
      <trkpt lat="49.446" lon="-1.37527">
        <ele>21.1</ele>
        <time>2022-01-27T14:33:39Z</time>
      </trkpt>
      <trkpt lat="49.44602" lon="-1.3752">
        <ele>21.2</ele>
        <time>2022-01-27T14:33:44Z</time>
      </trkpt>
      <trkpt lat="49.44606" lon="-1.37513">
        <ele>21.5</ele>
        <time>2022-01-27T14:33:48Z</time>
      </trkpt>
      <trkpt lat="49.44611" lon="-1.37508">
        <ele>21.5</ele>
        <time>2022-01-27T14:33:51Z</time>
      </trkpt>
      <trkpt lat="49.44615" lon="-1.37505">
        <ele>21.6</ele>
        <time>2022-01-27T14:33:54Z</time>
      </trkpt>
      <trkpt lat="49.44617" lon="-1.37498">
        <ele>21.7</ele>
        <time>2022-01-27T14:33:57Z</time>
      </trkpt>
      <trkpt lat="49.44621" lon="-1.37492">
        <ele>21.7</ele>
        <time>2022-01-27T14:34:03Z</time>
      </trkpt>
      <trkpt lat="49.44624" lon="-1.37486">
        <ele>21.5</ele>
        <time>2022-01-27T14:34:12Z</time>
      </trkpt>
      <trkpt lat="49.44627" lon="-1.37479">
        <ele>21.5</ele>
        <time>2022-01-27T14:34:16Z</time>
      </trkpt>
      <trkpt lat="49.44632" lon="-1.37476">
        <ele>21.4</ele>
        <time>2022-01-27T14:34:19Z</time>
      </trkpt>
      <trkpt lat="49.44635" lon="-1.3747">
        <ele>21.3</ele>
        <time>2022-01-27T14:34:22Z</time>
      </trkpt>
      <trkpt lat="49.44638" lon="-1.37463">
        <ele>21.1</ele>
        <time>2022-01-27T14:34:26Z</time>
      </trkpt>
      <trkpt lat="49.4464" lon="-1.37456">
        <ele>22</ele>
        <time>2022-01-27T14:34:42Z</time>
      </trkpt>
      <trkpt lat="49.44641" lon="-1.37447">
        <ele>21.8</ele>
        <time>2022-01-27T14:34:45Z</time>
      </trkpt>
      <trkpt lat="49.44644" lon="-1.37438">
        <ele>21.6</ele>
        <time>2022-01-27T14:34:47Z</time>
      </trkpt>
      <trkpt lat="49.44648" lon="-1.37432">
        <ele>21.3</ele>
        <time>2022-01-27T14:34:50Z</time>
      </trkpt>
      <trkpt lat="49.44652" lon="-1.37427">
        <ele>21.2</ele>
        <time>2022-01-27T14:34:53Z</time>
      </trkpt>
      <trkpt lat="49.44656" lon="-1.37423">
        <ele>21.3</ele>
        <time>2022-01-27T14:34:57Z</time>
      </trkpt>
      <trkpt lat="49.4466" lon="-1.37419">
        <ele>21.4</ele>
        <time>2022-01-27T14:35:00Z</time>
      </trkpt>
      <trkpt lat="49.44663" lon="-1.37413">
        <ele>21.7</ele>
        <time>2022-01-27T14:35:05Z</time>
      </trkpt>
      <trkpt lat="49.44667" lon="-1.37408">
        <ele>21.8</ele>
        <time>2022-01-27T14:35:10Z</time>
      </trkpt>
      <trkpt lat="49.44672" lon="-1.37404">
        <ele>21.9</ele>
        <time>2022-01-27T14:35:14Z</time>
      </trkpt>
      <trkpt lat="49.44677" lon="-1.37403">
        <ele>21.7</ele>
        <time>2022-01-27T14:35:17Z</time>
      </trkpt>
      <trkpt lat="49.44683" lon="-1.37403">
        <ele>21.4</ele>
        <time>2022-01-27T14:35:21Z</time>
      </trkpt>
      <trkpt lat="49.44687" lon="-1.37404">
        <ele>21.2</ele>
        <time>2022-01-27T14:35:25Z</time>
      </trkpt>
      <trkpt lat="49.44691" lon="-1.374">
        <ele>21.3</ele>
        <time>2022-01-27T14:35:28Z</time>
      </trkpt>
      <trkpt lat="49.44695" lon="-1.37397">
        <ele>21.6</ele>
        <time>2022-01-27T14:35:32Z</time>
      </trkpt>
      <trkpt lat="49.447" lon="-1.37396">
        <ele>21.8</ele>
        <time>2022-01-27T14:35:36Z</time>
      </trkpt>
      <trkpt lat="49.44705" lon="-1.37394">
        <ele>22</ele>
        <time>2022-01-27T14:35:39Z</time>
      </trkpt>
      <trkpt lat="49.44709" lon="-1.37392">
        <ele>22</ele>
        <time>2022-01-27T14:35:43Z</time>
      </trkpt>
      <trkpt lat="49.44715" lon="-1.37392">
        <ele>22.6</ele>
        <time>2022-01-27T14:35:49Z</time>
      </trkpt>
      <trkpt lat="49.4472" lon="-1.37387">
        <ele>23.2</ele>
        <time>2022-01-27T14:35:54Z</time>
      </trkpt>
      <trkpt lat="49.44724" lon="-1.37383">
        <ele>23.2</ele>
        <time>2022-01-27T14:35:58Z</time>
      </trkpt>
      <trkpt lat="49.44729" lon="-1.3738">
        <ele>22</ele>
        <time>2022-01-27T14:36:08Z</time>
      </trkpt>
      <trkpt lat="49.44733" lon="-1.37377">
        <ele>21.9</ele>
        <time>2022-01-27T14:36:11Z</time>
      </trkpt>
      <trkpt lat="49.44738" lon="-1.37372">
        <ele>21.6</ele>
        <time>2022-01-27T14:36:14Z</time>
      </trkpt>
      <trkpt lat="49.44743" lon="-1.37366">
        <ele>21.3</ele>
        <time>2022-01-27T14:36:17Z</time>
      </trkpt>
      <trkpt lat="49.44746" lon="-1.3736">
        <ele>20.9</ele>
        <time>2022-01-27T14:36:20Z</time>
      </trkpt>
      <trkpt lat="49.4475" lon="-1.37354">
        <ele>20.3</ele>
        <time>2022-01-27T14:36:24Z</time>
      </trkpt>
      <trkpt lat="49.44754" lon="-1.37351">
        <ele>19.5</ele>
        <time>2022-01-27T14:36:29Z</time>
      </trkpt>
      <trkpt lat="49.44758" lon="-1.37345">
        <ele>18.6</ele>
        <time>2022-01-27T14:36:34Z</time>
      </trkpt>
      <trkpt lat="49.4476" lon="-1.37337">
        <ele>17.9</ele>
        <time>2022-01-27T14:36:37Z</time>
      </trkpt>
      <trkpt lat="49.44762" lon="-1.3733">
        <ele>17.5</ele>
        <time>2022-01-27T14:36:41Z</time>
      </trkpt>
      <trkpt lat="49.44764" lon="-1.37323">
        <ele>17.1</ele>
        <time>2022-01-27T14:36:46Z</time>
      </trkpt>
      <trkpt lat="49.44768" lon="-1.37316">
        <ele>16.7</ele>
        <time>2022-01-27T14:36:51Z</time>
      </trkpt>
      <trkpt lat="49.44772" lon="-1.37312">
        <ele>16.4</ele>
        <time>2022-01-27T14:36:55Z</time>
      </trkpt>
      <trkpt lat="49.44776" lon="-1.37305">
        <ele>16.2</ele>
        <time>2022-01-27T14:36:59Z</time>
      </trkpt>
      <trkpt lat="49.44779" lon="-1.37297">
        <ele>16.5</ele>
        <time>2022-01-27T14:37:05Z</time>
      </trkpt>
      <trkpt lat="49.44783" lon="-1.3729">
        <ele>16.5</ele>
        <time>2022-01-27T14:37:09Z</time>
      </trkpt>
      <trkpt lat="49.44787" lon="-1.37283">
        <ele>16.4</ele>
        <time>2022-01-27T14:37:12Z</time>
      </trkpt>
      <trkpt lat="49.44789" lon="-1.37277">
        <ele>16.2</ele>
        <time>2022-01-27T14:37:15Z</time>
      </trkpt>
      <trkpt lat="49.44794" lon="-1.37274">
        <ele>16.1</ele>
        <time>2022-01-27T14:37:20Z</time>
      </trkpt>
      <trkpt lat="49.44794" lon="-1.37266">
        <ele>16.2</ele>
        <time>2022-01-27T14:37:47Z</time>
      </trkpt>
      <trkpt lat="49.44797" lon="-1.37259">
        <ele>16.2</ele>
        <time>2022-01-27T14:37:50Z</time>
      </trkpt>
      <trkpt lat="49.448" lon="-1.3725">
        <ele>16.1</ele>
        <time>2022-01-27T14:37:54Z</time>
      </trkpt>
      <trkpt lat="49.44803" lon="-1.37245">
        <ele>16</ele>
        <time>2022-01-27T14:37:58Z</time>
      </trkpt>
      <trkpt lat="49.44805" lon="-1.37235">
        <ele>14.9</ele>
        <time>2022-01-27T14:38:11Z</time>
      </trkpt>
      <trkpt lat="49.4481" lon="-1.37228">
        <ele>14.5</ele>
        <time>2022-01-27T14:38:14Z</time>
      </trkpt>
      <trkpt lat="49.44813" lon="-1.37223">
        <ele>14.2</ele>
        <time>2022-01-27T14:38:17Z</time>
      </trkpt>
      <trkpt lat="49.44818" lon="-1.37218">
        <ele>14.2</ele>
        <time>2022-01-27T14:38:21Z</time>
      </trkpt>
      <trkpt lat="49.44821" lon="-1.37212">
        <ele>14.2</ele>
        <time>2022-01-27T14:38:24Z</time>
      </trkpt>
      <trkpt lat="49.44824" lon="-1.37206">
        <ele>14</ele>
        <time>2022-01-27T14:38:28Z</time>
      </trkpt>
      <trkpt lat="49.44827" lon="-1.37202">
        <ele>13.8</ele>
        <time>2022-01-27T14:38:32Z</time>
      </trkpt>
      <trkpt lat="49.44831" lon="-1.37197">
        <ele>13.7</ele>
        <time>2022-01-27T14:38:36Z</time>
      </trkpt>
      <trkpt lat="49.44833" lon="-1.3719">
        <ele>13.6</ele>
        <time>2022-01-27T14:38:40Z</time>
      </trkpt>
      <trkpt lat="49.44833" lon="-1.37183">
        <ele>13.7</ele>
        <time>2022-01-27T14:38:43Z</time>
      </trkpt>
      <trkpt lat="49.44836" lon="-1.37177">
        <ele>13.7</ele>
        <time>2022-01-27T14:38:47Z</time>
      </trkpt>
      <trkpt lat="49.44839" lon="-1.37171">
        <ele>13.7</ele>
        <time>2022-01-27T14:38:50Z</time>
      </trkpt>
      <trkpt lat="49.44842" lon="-1.37165">
        <ele>13.1</ele>
        <time>2022-01-27T14:38:53Z</time>
      </trkpt>
      <trkpt lat="49.44845" lon="-1.37159">
        <ele>12.5</ele>
        <time>2022-01-27T14:38:57Z</time>
      </trkpt>
      <trkpt lat="49.44849" lon="-1.37152">
        <ele>12.1</ele>
        <time>2022-01-27T14:39:01Z</time>
      </trkpt>
      <trkpt lat="49.4485" lon="-1.37144">
        <ele>12</ele>
        <time>2022-01-27T14:39:05Z</time>
      </trkpt>
      <trkpt lat="49.44853" lon="-1.37138">
        <ele>12</ele>
        <time>2022-01-27T14:39:10Z</time>
      </trkpt>
      <trkpt lat="49.44856" lon="-1.37132">
        <ele>11.9</ele>
        <time>2022-01-27T14:39:14Z</time>
      </trkpt>
      <trkpt lat="49.44859" lon="-1.37125">
        <ele>11.9</ele>
        <time>2022-01-27T14:39:19Z</time>
      </trkpt>
      <trkpt lat="49.44854" lon="-1.37121">
        <ele>12.1</ele>
        <time>2022-01-27T14:39:23Z</time>
      </trkpt>
      <trkpt lat="49.44849" lon="-1.37116">
        <ele>11.3</ele>
        <time>2022-01-27T14:39:41Z</time>
      </trkpt>
      <trkpt lat="49.44846" lon="-1.3711">
        <ele>11.8</ele>
        <time>2022-01-27T14:39:50Z</time>
      </trkpt>
      <trkpt lat="49.44844" lon="-1.37103">
        <ele>11.9</ele>
        <time>2022-01-27T14:39:54Z</time>
      </trkpt>
      <trkpt lat="49.44839" lon="-1.37098">
        <ele>12.1</ele>
        <time>2022-01-27T14:39:58Z</time>
      </trkpt>
      <trkpt lat="49.44834" lon="-1.37093">
        <ele>12.7</ele>
        <time>2022-01-27T14:40:02Z</time>
      </trkpt>
      <trkpt lat="49.44831" lon="-1.37086">
        <ele>13.8</ele>
        <time>2022-01-27T14:40:05Z</time>
      </trkpt>
      <trkpt lat="49.44827" lon="-1.37079">
        <ele>14.8</ele>
        <time>2022-01-27T14:40:10Z</time>
      </trkpt>
      <trkpt lat="49.44822" lon="-1.37074">
        <ele>15.1</ele>
        <time>2022-01-27T14:40:15Z</time>
      </trkpt>
      <trkpt lat="49.44818" lon="-1.37069">
        <ele>15.6</ele>
        <time>2022-01-27T14:40:21Z</time>
      </trkpt>
      <trkpt lat="49.44815" lon="-1.37063">
        <ele>16.2</ele>
        <time>2022-01-27T14:40:25Z</time>
      </trkpt>
      <trkpt lat="49.44811" lon="-1.37057">
        <ele>16.5</ele>
        <time>2022-01-27T14:40:31Z</time>
      </trkpt>
      <trkpt lat="49.44809" lon="-1.3705">
        <ele>16.7</ele>
        <time>2022-01-27T14:40:36Z</time>
      </trkpt>
      <trkpt lat="49.44807" lon="-1.37043">
        <ele>16.6</ele>
        <time>2022-01-27T14:40:41Z</time>
      </trkpt>
      <trkpt lat="49.44803" lon="-1.37036">
        <ele>15.8</ele>
        <time>2022-01-27T14:40:49Z</time>
      </trkpt>
      <trkpt lat="49.44797" lon="-1.37033">
        <ele>15.7</ele>
        <time>2022-01-27T14:40:54Z</time>
      </trkpt>
      <trkpt lat="49.44794" lon="-1.37027">
        <ele>15.9</ele>
        <time>2022-01-27T14:41:01Z</time>
      </trkpt>
      <trkpt lat="49.4479" lon="-1.37023">
        <ele>16.1</ele>
        <time>2022-01-27T14:41:06Z</time>
      </trkpt>
      <trkpt lat="49.44787" lon="-1.37017">
        <ele>16.3</ele>
        <time>2022-01-27T14:41:13Z</time>
      </trkpt>
      <trkpt lat="49.44783" lon="-1.37014">
        <ele>15.1</ele>
        <time>2022-01-27T14:41:30Z</time>
      </trkpt>
      <trkpt lat="49.4478" lon="-1.37009">
        <ele>15.3</ele>
        <time>2022-01-27T14:41:33Z</time>
      </trkpt>
      <trkpt lat="49.44776" lon="-1.37001">
        <ele>15.4</ele>
        <time>2022-01-27T14:41:36Z</time>
      </trkpt>
      <trkpt lat="49.44773" lon="-1.36995">
        <ele>15.4</ele>
        <time>2022-01-27T14:41:39Z</time>
      </trkpt>
      <trkpt lat="49.44769" lon="-1.36988">
        <ele>15.6</ele>
        <time>2022-01-27T14:41:42Z</time>
      </trkpt>
      <trkpt lat="49.44765" lon="-1.36984">
        <ele>15.5</ele>
        <time>2022-01-27T14:41:46Z</time>
      </trkpt>
      <trkpt lat="49.44762" lon="-1.36978">
        <ele>15.6</ele>
        <time>2022-01-27T14:41:49Z</time>
      </trkpt>
      <trkpt lat="49.44757" lon="-1.36972">
        <ele>16.1</ele>
        <time>2022-01-27T14:41:54Z</time>
      </trkpt>
      <trkpt lat="49.44753" lon="-1.36967">
        <ele>16.8</ele>
        <time>2022-01-27T14:41:59Z</time>
      </trkpt>
      <trkpt lat="49.44749" lon="-1.36961">
        <ele>17</ele>
        <time>2022-01-27T14:42:04Z</time>
      </trkpt>
      <trkpt lat="49.44747" lon="-1.36956">
        <ele>17.1</ele>
        <time>2022-01-27T14:42:09Z</time>
      </trkpt>
      <trkpt lat="49.44744" lon="-1.36949">
        <ele>17.2</ele>
        <time>2022-01-27T14:42:14Z</time>
      </trkpt>
      <trkpt lat="49.4474" lon="-1.36945">
        <ele>19.4</ele>
        <time>2022-01-27T14:42:50Z</time>
      </trkpt>
      <trkpt lat="49.44737" lon="-1.36937">
        <ele>19.4</ele>
        <time>2022-01-27T14:42:54Z</time>
      </trkpt>
      <trkpt lat="49.44735" lon="-1.36931">
        <ele>19.4</ele>
        <time>2022-01-27T14:42:56Z</time>
      </trkpt>
      <trkpt lat="49.44731" lon="-1.36924">
        <ele>19.6</ele>
        <time>2022-01-27T14:42:59Z</time>
      </trkpt>
      <trkpt lat="49.44725" lon="-1.36919">
        <ele>19.7</ele>
        <time>2022-01-27T14:43:05Z</time>
      </trkpt>
      <trkpt lat="49.44722" lon="-1.36915">
        <ele>20.1</ele>
        <time>2022-01-27T14:43:09Z</time>
      </trkpt>
      <trkpt lat="49.44719" lon="-1.36909">
        <ele>20.7</ele>
        <time>2022-01-27T14:43:42Z</time>
      </trkpt>
      <trkpt lat="49.44716" lon="-1.36904">
        <ele>21</ele>
        <time>2022-01-27T14:43:53Z</time>
      </trkpt>
      <trkpt lat="49.44712" lon="-1.36899">
        <ele>21.1</ele>
        <time>2022-01-27T14:43:56Z</time>
      </trkpt>
      <trkpt lat="49.44706" lon="-1.36894">
        <ele>21.1</ele>
        <time>2022-01-27T14:43:59Z</time>
      </trkpt>
      <trkpt lat="49.44703" lon="-1.36889">
        <ele>21.1</ele>
        <time>2022-01-27T14:44:04Z</time>
      </trkpt>
      <trkpt lat="49.44697" lon="-1.36885">
        <ele>20.9</ele>
        <time>2022-01-27T14:44:15Z</time>
      </trkpt>
      <trkpt lat="49.44691" lon="-1.36881">
        <ele>20.9</ele>
        <time>2022-01-27T14:44:17Z</time>
      </trkpt>
      <trkpt lat="49.44675" lon="-1.36867">
        <ele>21</ele>
        <time>2022-01-27T14:44:24Z</time>
      </trkpt>
      <trkpt lat="49.4467" lon="-1.36863">
        <ele>21.1</ele>
        <time>2022-01-27T14:44:27Z</time>
      </trkpt>
      <trkpt lat="49.44666" lon="-1.36859">
        <ele>21.2</ele>
        <time>2022-01-27T14:44:31Z</time>
      </trkpt>
      <trkpt lat="49.44662" lon="-1.36854">
        <ele>21.1</ele>
        <time>2022-01-27T14:44:37Z</time>
      </trkpt>
      <trkpt lat="49.44657" lon="-1.36852">
        <ele>21.4</ele>
        <time>2022-01-27T14:44:48Z</time>
      </trkpt>
      <trkpt lat="49.44653" lon="-1.36848">
        <ele>22.1</ele>
        <time>2022-01-27T14:44:53Z</time>
      </trkpt>
      <trkpt lat="49.44649" lon="-1.36844">
        <ele>22.6</ele>
        <time>2022-01-27T14:44:56Z</time>
      </trkpt>
      <trkpt lat="49.44644" lon="-1.36841">
        <ele>22.9</ele>
        <time>2022-01-27T14:45:00Z</time>
      </trkpt>
      <trkpt lat="49.44639" lon="-1.36838">
        <ele>23.4</ele>
        <time>2022-01-27T14:45:04Z</time>
      </trkpt>
      <trkpt lat="49.44635" lon="-1.36834">
        <ele>23.6</ele>
        <time>2022-01-27T14:45:08Z</time>
      </trkpt>
      <trkpt lat="49.4463" lon="-1.3683">
        <ele>23.4</ele>
        <time>2022-01-27T14:45:13Z</time>
      </trkpt>
      <trkpt lat="49.44626" lon="-1.36825">
        <ele>23.1</ele>
        <time>2022-01-27T14:45:17Z</time>
      </trkpt>
      <trkpt lat="49.44621" lon="-1.36823">
        <ele>23.1</ele>
        <time>2022-01-27T14:45:23Z</time>
      </trkpt>
      <trkpt lat="49.44618" lon="-1.36818">
        <ele>23.2</ele>
        <time>2022-01-27T14:45:27Z</time>
      </trkpt>
      <trkpt lat="49.44614" lon="-1.36812">
        <ele>23.5</ele>
        <time>2022-01-27T14:45:32Z</time>
      </trkpt>
      <trkpt lat="49.44611" lon="-1.36806">
        <ele>23.7</ele>
        <time>2022-01-27T14:45:40Z</time>
      </trkpt>
      <trkpt lat="49.44605" lon="-1.36804">
        <ele>24.2</ele>
        <time>2022-01-27T14:45:45Z</time>
      </trkpt>
      <trkpt lat="49.446" lon="-1.36801">
        <ele>26.7</ele>
        <time>2022-01-27T14:45:54Z</time>
      </trkpt>
      <trkpt lat="49.44595" lon="-1.36798">
        <ele>27.6</ele>
        <time>2022-01-27T14:45:57Z</time>
      </trkpt>
      <trkpt lat="49.44591" lon="-1.36793">
        <ele>27.9</ele>
        <time>2022-01-27T14:46:01Z</time>
      </trkpt>
      <trkpt lat="49.44587" lon="-1.36787">
        <ele>28.3</ele>
        <time>2022-01-27T14:46:05Z</time>
      </trkpt>
      <trkpt lat="49.4459" lon="-1.36791">
        <ele>28.8</ele>
        <time>2022-01-27T14:47:08Z</time>
      </trkpt>
      <trkpt lat="49.44593" lon="-1.36785">
        <ele>29.8</ele>
        <time>2022-01-27T14:47:58Z</time>
      </trkpt>
      <trkpt lat="49.44593" lon="-1.36777">
        <ele>30</ele>
        <time>2022-01-27T14:48:01Z</time>
      </trkpt>
      <trkpt lat="49.44593" lon="-1.36768">
        <ele>30.2</ele>
        <time>2022-01-27T14:48:04Z</time>
      </trkpt>
      <trkpt lat="49.44595" lon="-1.3676">
        <ele>30.4</ele>
        <time>2022-01-27T14:48:09Z</time>
      </trkpt>
      <trkpt lat="49.44594" lon="-1.36768">
        <ele>30.2</ele>
        <time>2022-01-27T14:48:22Z</time>
      </trkpt>
      <trkpt lat="49.44593" lon="-1.36775">
        <ele>29.6</ele>
        <time>2022-01-27T14:48:36Z</time>
      </trkpt>
      <trkpt lat="49.44591" lon="-1.36782">
        <ele>28.9</ele>
        <time>2022-01-27T14:49:00Z</time>
      </trkpt>
      <trkpt lat="49.44587" lon="-1.36784">
        <ele>28.5</ele>
        <time>2022-01-27T14:49:59Z</time>
      </trkpt>
      <trkpt lat="49.44582" lon="-1.36786">
        <ele>28.7</ele>
        <time>2022-01-27T14:50:08Z</time>
      </trkpt>
      <trkpt lat="49.44577" lon="-1.36781">
        <ele>28.4</ele>
        <time>2022-01-27T14:50:14Z</time>
      </trkpt>
      <trkpt lat="49.44572" lon="-1.36779">
        <ele>28</ele>
        <time>2022-01-27T14:50:21Z</time>
      </trkpt>
      <trkpt lat="49.44567" lon="-1.36776">
        <ele>27.9</ele>
        <time>2022-01-27T14:50:25Z</time>
      </trkpt>
      <trkpt lat="49.44563" lon="-1.36771">
        <ele>27.9</ele>
        <time>2022-01-27T14:50:30Z</time>
      </trkpt>
      <trkpt lat="49.4456" lon="-1.36766">
        <ele>27.8</ele>
        <time>2022-01-27T14:50:43Z</time>
      </trkpt>
      <trkpt lat="49.44556" lon="-1.36761">
        <ele>27.8</ele>
        <time>2022-01-27T14:50:46Z</time>
      </trkpt>
      <trkpt lat="49.44552" lon="-1.36755">
        <ele>27.8</ele>
        <time>2022-01-27T14:50:52Z</time>
      </trkpt>
      <trkpt lat="49.44549" lon="-1.3675">
        <ele>27.7</ele>
        <time>2022-01-27T14:50:56Z</time>
      </trkpt>
      <trkpt lat="49.44544" lon="-1.36746">
        <ele>27.7</ele>
        <time>2022-01-27T14:51:00Z</time>
      </trkpt>
      <trkpt lat="49.4454" lon="-1.36744">
        <ele>28.9</ele>
        <time>2022-01-27T14:51:13Z</time>
      </trkpt>
      <trkpt lat="49.44535" lon="-1.36739">
        <ele>29.3</ele>
        <time>2022-01-27T14:51:18Z</time>
      </trkpt>
      <trkpt lat="49.44531" lon="-1.36737">
        <ele>29.6</ele>
        <time>2022-01-27T14:51:23Z</time>
      </trkpt>
      <trkpt lat="49.44527" lon="-1.36732">
        <ele>30.1</ele>
        <time>2022-01-27T14:51:27Z</time>
      </trkpt>
      <trkpt lat="49.44524" lon="-1.36725">
        <ele>31</ele>
        <time>2022-01-27T14:51:32Z</time>
      </trkpt>
      <trkpt lat="49.4452" lon="-1.36721">
        <ele>32.5</ele>
        <time>2022-01-27T14:52:00Z</time>
      </trkpt>
      <trkpt lat="49.44518" lon="-1.36714">
        <ele>32.4</ele>
        <time>2022-01-27T14:52:05Z</time>
      </trkpt>
      <trkpt lat="49.44513" lon="-1.36709">
        <ele>32.6</ele>
        <time>2022-01-27T14:52:10Z</time>
      </trkpt>
      <trkpt lat="49.44509" lon="-1.36705">
        <ele>32.9</ele>
        <time>2022-01-27T14:52:14Z</time>
      </trkpt>
      <trkpt lat="49.44505" lon="-1.36699">
        <ele>33.2</ele>
        <time>2022-01-27T14:52:18Z</time>
      </trkpt>
      <trkpt lat="49.44505" lon="-1.36692">
        <ele>33.5</ele>
        <time>2022-01-27T14:52:26Z</time>
      </trkpt>
      <trkpt lat="49.445" lon="-1.36688">
        <ele>32.7</ele>
        <time>2022-01-27T14:52:58Z</time>
      </trkpt>
      <trkpt lat="49.44496" lon="-1.36685">
        <ele>32.8</ele>
        <time>2022-01-27T14:53:01Z</time>
      </trkpt>
      <trkpt lat="49.4449" lon="-1.36683">
        <ele>33.3</ele>
        <time>2022-01-27T14:53:06Z</time>
      </trkpt>
      <trkpt lat="49.44485" lon="-1.36682">
        <ele>33.6</ele>
        <time>2022-01-27T14:53:10Z</time>
      </trkpt>
      <trkpt lat="49.4448" lon="-1.36676">
        <ele>33.8</ele>
        <time>2022-01-27T14:53:14Z</time>
      </trkpt>
      <trkpt lat="49.44476" lon="-1.36671">
        <ele>33.9</ele>
        <time>2022-01-27T14:53:18Z</time>
      </trkpt>
      <trkpt lat="49.44472" lon="-1.36668">
        <ele>33.7</ele>
        <time>2022-01-27T14:53:23Z</time>
      </trkpt>
      <trkpt lat="49.44467" lon="-1.36665">
        <ele>33.4</ele>
        <time>2022-01-27T14:53:27Z</time>
      </trkpt>
      <trkpt lat="49.44463" lon="-1.36661">
        <ele>33.2</ele>
        <time>2022-01-27T14:53:31Z</time>
      </trkpt>
      <trkpt lat="49.44458" lon="-1.36659">
        <ele>33.1</ele>
        <time>2022-01-27T14:53:36Z</time>
      </trkpt>
      <trkpt lat="49.44452" lon="-1.36657">
        <ele>33.1</ele>
        <time>2022-01-27T14:53:40Z</time>
      </trkpt>
      <trkpt lat="49.44446" lon="-1.36654">
        <ele>32.9</ele>
        <time>2022-01-27T14:53:45Z</time>
      </trkpt>
      <trkpt lat="49.44441" lon="-1.3665">
        <ele>32.7</ele>
        <time>2022-01-27T14:53:51Z</time>
      </trkpt>
      <trkpt lat="49.44437" lon="-1.36656">
        <ele>32.6</ele>
        <time>2022-01-27T14:53:57Z</time>
      </trkpt>
      <trkpt lat="49.44434" lon="-1.36662">
        <ele>32.6</ele>
        <time>2022-01-27T14:54:02Z</time>
      </trkpt>
      <trkpt lat="49.44429" lon="-1.36666">
        <ele>32.5</ele>
        <time>2022-01-27T14:54:06Z</time>
      </trkpt>
      <trkpt lat="49.44425" lon="-1.36667">
        <ele>32.5</ele>
        <time>2022-01-27T14:54:11Z</time>
      </trkpt>
      <trkpt lat="49.4442" lon="-1.36672">
        <ele>32.5</ele>
        <time>2022-01-27T14:54:15Z</time>
      </trkpt>
      <trkpt lat="49.44416" lon="-1.36675">
        <ele>32.5</ele>
        <time>2022-01-27T14:54:20Z</time>
      </trkpt>
      <trkpt lat="49.44413" lon="-1.36682">
        <ele>32.4</ele>
        <time>2022-01-27T14:54:25Z</time>
      </trkpt>
      <trkpt lat="49.44408" lon="-1.36686">
        <ele>32.7</ele>
        <time>2022-01-27T14:54:30Z</time>
      </trkpt>
      <trkpt lat="49.44404" lon="-1.36691">
        <ele>32.7</ele>
        <time>2022-01-27T14:54:35Z</time>
      </trkpt>
      <trkpt lat="49.444" lon="-1.36694">
        <ele>32.4</ele>
        <time>2022-01-27T14:54:39Z</time>
      </trkpt>
      <trkpt lat="49.44396" lon="-1.36699">
        <ele>32.3</ele>
        <time>2022-01-27T14:54:43Z</time>
      </trkpt>
      <trkpt lat="49.44392" lon="-1.36704">
        <ele>32.4</ele>
        <time>2022-01-27T14:54:48Z</time>
      </trkpt>
      <trkpt lat="49.44388" lon="-1.36709">
        <ele>32.4</ele>
        <time>2022-01-27T14:54:52Z</time>
      </trkpt>
      <trkpt lat="49.44384" lon="-1.36714">
        <ele>32.1</ele>
        <time>2022-01-27T14:54:57Z</time>
      </trkpt>
      <trkpt lat="49.44379" lon="-1.36719">
        <ele>31.6</ele>
        <time>2022-01-27T14:55:02Z</time>
      </trkpt>
      <trkpt lat="49.44375" lon="-1.36723">
        <ele>31.5</ele>
        <time>2022-01-27T14:55:07Z</time>
      </trkpt>
      <trkpt lat="49.44371" lon="-1.36728">
        <ele>31.5</ele>
        <time>2022-01-27T14:55:12Z</time>
      </trkpt>
      <trkpt lat="49.44367" lon="-1.36734">
        <ele>31.7</ele>
        <time>2022-01-27T14:55:17Z</time>
      </trkpt>
      <trkpt lat="49.44363" lon="-1.36737">
        <ele>32.1</ele>
        <time>2022-01-27T14:55:22Z</time>
      </trkpt>
      <trkpt lat="49.44358" lon="-1.3674">
        <ele>32.5</ele>
        <time>2022-01-27T14:55:27Z</time>
      </trkpt>
      <trkpt lat="49.44355" lon="-1.36746">
        <ele>32.8</ele>
        <time>2022-01-27T14:55:30Z</time>
      </trkpt>
      <trkpt lat="49.4435" lon="-1.36751">
        <ele>32.9</ele>
        <time>2022-01-27T14:55:33Z</time>
      </trkpt>
      <trkpt lat="49.44348" lon="-1.36757">
        <ele>33.1</ele>
        <time>2022-01-27T14:55:36Z</time>
      </trkpt>
      <trkpt lat="49.44344" lon="-1.36761">
        <ele>33.4</ele>
        <time>2022-01-27T14:55:40Z</time>
      </trkpt>
      <trkpt lat="49.4434" lon="-1.36765">
        <ele>33.6</ele>
        <time>2022-01-27T14:55:43Z</time>
      </trkpt>
      <trkpt lat="49.44336" lon="-1.36769">
        <ele>33.8</ele>
        <time>2022-01-27T14:55:47Z</time>
      </trkpt>
      <trkpt lat="49.44331" lon="-1.3677">
        <ele>33.9</ele>
        <time>2022-01-27T14:55:52Z</time>
      </trkpt>
      <trkpt lat="49.44327" lon="-1.36775">
        <ele>33.9</ele>
        <time>2022-01-27T14:55:55Z</time>
      </trkpt>
      <trkpt lat="49.44326" lon="-1.36781">
        <ele>33.9</ele>
        <time>2022-01-27T14:55:59Z</time>
      </trkpt>
      <trkpt lat="49.44323" lon="-1.36787">
        <ele>33.8</ele>
        <time>2022-01-27T14:56:11Z</time>
      </trkpt>
      <trkpt lat="49.44318" lon="-1.36794">
        <ele>33.8</ele>
        <time>2022-01-27T14:56:15Z</time>
      </trkpt>
      <trkpt lat="49.44313" lon="-1.368">
        <ele>33.7</ele>
        <time>2022-01-27T14:56:18Z</time>
      </trkpt>
      <trkpt lat="49.44309" lon="-1.36804">
        <ele>33.4</ele>
        <time>2022-01-27T14:56:21Z</time>
      </trkpt>
      <trkpt lat="49.44304" lon="-1.3681">
        <ele>33.2</ele>
        <time>2022-01-27T14:56:25Z</time>
      </trkpt>
      <trkpt lat="49.44299" lon="-1.36816">
        <ele>32.9</ele>
        <time>2022-01-27T14:56:30Z</time>
      </trkpt>
      <trkpt lat="49.44296" lon="-1.3682">
        <ele>32.8</ele>
        <time>2022-01-27T14:56:33Z</time>
      </trkpt>
      <trkpt lat="49.44291" lon="-1.36826">
        <ele>32.8</ele>
        <time>2022-01-27T14:56:37Z</time>
      </trkpt>
      <trkpt lat="49.44286" lon="-1.3683">
        <ele>32.6</ele>
        <time>2022-01-27T14:56:42Z</time>
      </trkpt>
      <trkpt lat="49.44282" lon="-1.36837">
        <ele>32.3</ele>
        <time>2022-01-27T14:56:47Z</time>
      </trkpt>
      <trkpt lat="49.44278" lon="-1.36843">
        <ele>32.2</ele>
        <time>2022-01-27T14:56:52Z</time>
      </trkpt>
      <trkpt lat="49.44275" lon="-1.36848">
        <ele>32.2</ele>
        <time>2022-01-27T14:56:55Z</time>
      </trkpt>
      <trkpt lat="49.44271" lon="-1.36853">
        <ele>32.1</ele>
        <time>2022-01-27T14:57:00Z</time>
      </trkpt>
      <trkpt lat="49.44268" lon="-1.36858">
        <ele>32</ele>
        <time>2022-01-27T14:57:04Z</time>
      </trkpt>
      <trkpt lat="49.44264" lon="-1.36862">
        <ele>31.7</ele>
        <time>2022-01-27T14:57:07Z</time>
      </trkpt>
      <trkpt lat="49.4426" lon="-1.36866">
        <ele>31.5</ele>
        <time>2022-01-27T14:57:10Z</time>
      </trkpt>
      <trkpt lat="49.44257" lon="-1.36872">
        <ele>31.4</ele>
        <time>2022-01-27T14:57:14Z</time>
      </trkpt>
      <trkpt lat="49.44253" lon="-1.36876">
        <ele>31.4</ele>
        <time>2022-01-27T14:57:17Z</time>
      </trkpt>
      <trkpt lat="49.44248" lon="-1.3688">
        <ele>31.4</ele>
        <time>2022-01-27T14:57:21Z</time>
      </trkpt>
      <trkpt lat="49.44244" lon="-1.36884">
        <ele>31.3</ele>
        <time>2022-01-27T14:57:25Z</time>
      </trkpt>
      <trkpt lat="49.44239" lon="-1.36885">
        <ele>31.3</ele>
        <time>2022-01-27T14:57:29Z</time>
      </trkpt>
      <trkpt lat="49.44234" lon="-1.36886">
        <ele>31</ele>
        <time>2022-01-27T14:57:38Z</time>
      </trkpt>
      <trkpt lat="49.44231" lon="-1.36878">
        <ele>30.5</ele>
        <time>2022-01-27T14:57:48Z</time>
      </trkpt>
      <trkpt lat="49.4423" lon="-1.36869">
        <ele>30.3</ele>
        <time>2022-01-27T14:57:52Z</time>
      </trkpt>
      <trkpt lat="49.44226" lon="-1.36864">
        <ele>30.1</ele>
        <time>2022-01-27T14:57:55Z</time>
      </trkpt>
      <trkpt lat="49.44222" lon="-1.36857">
        <ele>29.9</ele>
        <time>2022-01-27T14:57:59Z</time>
      </trkpt>
      <trkpt lat="49.44219" lon="-1.36851">
        <ele>29.7</ele>
        <time>2022-01-27T14:58:03Z</time>
      </trkpt>
      <trkpt lat="49.44215" lon="-1.36846">
        <ele>29.6</ele>
        <time>2022-01-27T14:58:06Z</time>
      </trkpt>
      <trkpt lat="49.44212" lon="-1.36839">
        <ele>29.4</ele>
        <time>2022-01-27T14:58:10Z</time>
      </trkpt>
      <trkpt lat="49.44209" lon="-1.36832">
        <ele>29.2</ele>
        <time>2022-01-27T14:58:15Z</time>
      </trkpt>
      <trkpt lat="49.44206" lon="-1.36825">
        <ele>28.9</ele>
        <time>2022-01-27T14:58:19Z</time>
      </trkpt>
      <trkpt lat="49.44203" lon="-1.36818">
        <ele>28.6</ele>
        <time>2022-01-27T14:58:23Z</time>
      </trkpt>
      <trkpt lat="49.44201" lon="-1.36811">
        <ele>28.5</ele>
        <time>2022-01-27T14:58:27Z</time>
      </trkpt>
      <trkpt lat="49.44198" lon="-1.36803">
        <ele>28.3</ele>
        <time>2022-01-27T14:58:31Z</time>
      </trkpt>
      <trkpt lat="49.44194" lon="-1.36798">
        <ele>28.2</ele>
        <time>2022-01-27T14:58:35Z</time>
      </trkpt>
      <trkpt lat="49.4419" lon="-1.36792">
        <ele>28</ele>
        <time>2022-01-27T14:58:39Z</time>
      </trkpt>
      <trkpt lat="49.44186" lon="-1.36784">
        <ele>27.8</ele>
        <time>2022-01-27T14:58:45Z</time>
      </trkpt>
      <trkpt lat="49.44183" lon="-1.36778">
        <ele>27.6</ele>
        <time>2022-01-27T14:58:48Z</time>
      </trkpt>
      <trkpt lat="49.4418" lon="-1.36772">
        <ele>27.7</ele>
        <time>2022-01-27T14:58:52Z</time>
      </trkpt>
      <trkpt lat="49.44177" lon="-1.36766">
        <ele>27.7</ele>
        <time>2022-01-27T14:58:55Z</time>
      </trkpt>
      <trkpt lat="49.44175" lon="-1.36758">
        <ele>27.8</ele>
        <time>2022-01-27T14:58:59Z</time>
      </trkpt>
      <trkpt lat="49.44171" lon="-1.36752">
        <ele>27.6</ele>
        <time>2022-01-27T14:59:03Z</time>
      </trkpt>
      <trkpt lat="49.44168" lon="-1.36744">
        <ele>27.6</ele>
        <time>2022-01-27T14:59:07Z</time>
      </trkpt>
      <trkpt lat="49.44164" lon="-1.36737">
        <ele>27.2</ele>
        <time>2022-01-27T14:59:12Z</time>
      </trkpt>
      <trkpt lat="49.44161" lon="-1.36731">
        <ele>26.9</ele>
        <time>2022-01-27T14:59:16Z</time>
      </trkpt>
      <trkpt lat="49.44158" lon="-1.36724">
        <ele>26.5</ele>
        <time>2022-01-27T14:59:20Z</time>
      </trkpt>
      <trkpt lat="49.44155" lon="-1.36718">
        <ele>26.4</ele>
        <time>2022-01-27T14:59:24Z</time>
      </trkpt>
      <trkpt lat="49.44151" lon="-1.36711">
        <ele>26.1</ele>
        <time>2022-01-27T14:59:28Z</time>
      </trkpt>
      <trkpt lat="49.44147" lon="-1.36703">
        <ele>25.9</ele>
        <time>2022-01-27T14:59:33Z</time>
      </trkpt>
      <trkpt lat="49.44144" lon="-1.36695">
        <ele>25.7</ele>
        <time>2022-01-27T14:59:38Z</time>
      </trkpt>
      <trkpt lat="49.44141" lon="-1.36689">
        <ele>25.5</ele>
        <time>2022-01-27T14:59:41Z</time>
      </trkpt>
      <trkpt lat="49.44139" lon="-1.36683">
        <ele>25.3</ele>
        <time>2022-01-27T14:59:44Z</time>
      </trkpt>
      <trkpt lat="49.44136" lon="-1.36676">
        <ele>25</ele>
        <time>2022-01-27T14:59:48Z</time>
      </trkpt>
      <trkpt lat="49.44133" lon="-1.36668">
        <ele>24.7</ele>
        <time>2022-01-27T14:59:52Z</time>
      </trkpt>
      <trkpt lat="49.4413" lon="-1.3666">
        <ele>24.4</ele>
        <time>2022-01-27T14:59:56Z</time>
      </trkpt>
      <trkpt lat="49.44127" lon="-1.36654">
        <ele>24</ele>
        <time>2022-01-27T15:00:01Z</time>
      </trkpt>
      <trkpt lat="49.44124" lon="-1.36647">
        <ele>23.6</ele>
        <time>2022-01-27T15:00:05Z</time>
      </trkpt>
      <trkpt lat="49.44121" lon="-1.36641">
        <ele>23.3</ele>
        <time>2022-01-27T15:00:08Z</time>
      </trkpt>
      <trkpt lat="49.44117" lon="-1.36635">
        <ele>23.2</ele>
        <time>2022-01-27T15:00:12Z</time>
      </trkpt>
      <trkpt lat="49.44113" lon="-1.36628">
        <ele>23.2</ele>
        <time>2022-01-27T15:00:17Z</time>
      </trkpt>
      <trkpt lat="49.4411" lon="-1.36621">
        <ele>23</ele>
        <time>2022-01-27T15:00:20Z</time>
      </trkpt>
      <trkpt lat="49.44107" lon="-1.36615">
        <ele>22.4</ele>
        <time>2022-01-27T15:00:24Z</time>
      </trkpt>
      <trkpt lat="49.44104" lon="-1.3661">
        <ele>22</ele>
        <time>2022-01-27T15:00:27Z</time>
      </trkpt>
      <trkpt lat="49.44102" lon="-1.36602">
        <ele>21.8</ele>
        <time>2022-01-27T15:00:31Z</time>
      </trkpt>
      <trkpt lat="49.44099" lon="-1.36595">
        <ele>21.2</ele>
        <time>2022-01-27T15:00:34Z</time>
      </trkpt>
      <trkpt lat="49.44096" lon="-1.36587">
        <ele>20.3</ele>
        <time>2022-01-27T15:00:38Z</time>
      </trkpt>
      <trkpt lat="49.44094" lon="-1.36581">
        <ele>19.5</ele>
        <time>2022-01-27T15:00:42Z</time>
      </trkpt>
      <trkpt lat="49.4409" lon="-1.36575">
        <ele>18.8</ele>
        <time>2022-01-27T15:00:45Z</time>
      </trkpt>
      <trkpt lat="49.44086" lon="-1.36567">
        <ele>18.3</ele>
        <time>2022-01-27T15:00:49Z</time>
      </trkpt>
      <trkpt lat="49.44084" lon="-1.36561">
        <ele>17.8</ele>
        <time>2022-01-27T15:00:53Z</time>
      </trkpt>
      <trkpt lat="49.4408" lon="-1.36555">
        <ele>17.5</ele>
        <time>2022-01-27T15:00:58Z</time>
      </trkpt>
      <trkpt lat="49.44075" lon="-1.36548">
        <ele>17.5</ele>
        <time>2022-01-27T15:01:02Z</time>
      </trkpt>
      <trkpt lat="49.44074" lon="-1.3654">
        <ele>17.4</ele>
        <time>2022-01-27T15:01:05Z</time>
      </trkpt>
      <trkpt lat="49.44074" lon="-1.36533">
        <ele>17.2</ele>
        <time>2022-01-27T15:01:08Z</time>
      </trkpt>
      <trkpt lat="49.44072" lon="-1.36525">
        <ele>17</ele>
        <time>2022-01-27T15:01:12Z</time>
      </trkpt>
      <trkpt lat="49.44069" lon="-1.36519">
        <ele>17</ele>
        <time>2022-01-27T15:01:16Z</time>
      </trkpt>
      <trkpt lat="49.44066" lon="-1.36513">
        <ele>17.1</ele>
        <time>2022-01-27T15:01:19Z</time>
      </trkpt>
      <trkpt lat="49.44064" lon="-1.36506">
        <ele>17</ele>
        <time>2022-01-27T15:01:22Z</time>
      </trkpt>
      <trkpt lat="49.44062" lon="-1.36498">
        <ele>16.4</ele>
        <time>2022-01-27T15:01:26Z</time>
      </trkpt>
      <trkpt lat="49.44059" lon="-1.36491">
        <ele>15.8</ele>
        <time>2022-01-27T15:01:29Z</time>
      </trkpt>
      <trkpt lat="49.44057" lon="-1.36484">
        <ele>15.5</ele>
        <time>2022-01-27T15:01:32Z</time>
      </trkpt>
      <trkpt lat="49.44055" lon="-1.36476">
        <ele>15.1</ele>
        <time>2022-01-27T15:01:39Z</time>
      </trkpt>
      <trkpt lat="49.44052" lon="-1.36469">
        <ele>13.6</ele>
        <time>2022-01-27T15:01:55Z</time>
      </trkpt>
      <trkpt lat="49.4405" lon="-1.3646">
        <ele>13.5</ele>
        <time>2022-01-27T15:01:58Z</time>
      </trkpt>
      <trkpt lat="49.44047" lon="-1.36453">
        <ele>13.3</ele>
        <time>2022-01-27T15:02:01Z</time>
      </trkpt>
      <trkpt lat="49.44048" lon="-1.36445">
        <ele>13.3</ele>
        <time>2022-01-27T15:02:06Z</time>
      </trkpt>
      <trkpt lat="49.44047" lon="-1.36437">
        <ele>13.2</ele>
        <time>2022-01-27T15:02:10Z</time>
      </trkpt>
      <trkpt lat="49.44046" lon="-1.3643">
        <ele>13.2</ele>
        <time>2022-01-27T15:02:14Z</time>
      </trkpt>
      <trkpt lat="49.44045" lon="-1.36422">
        <ele>13</ele>
        <time>2022-01-27T15:02:18Z</time>
      </trkpt>
      <trkpt lat="49.44043" lon="-1.36414">
        <ele>12.9</ele>
        <time>2022-01-27T15:02:22Z</time>
      </trkpt>
      <trkpt lat="49.4404" lon="-1.36407">
        <ele>12.9</ele>
        <time>2022-01-27T15:02:26Z</time>
      </trkpt>
      <trkpt lat="49.44036" lon="-1.36401">
        <ele>13</ele>
        <time>2022-01-27T15:02:29Z</time>
      </trkpt>
      <trkpt lat="49.44033" lon="-1.36396">
        <ele>12.9</ele>
        <time>2022-01-27T15:02:33Z</time>
      </trkpt>
      <trkpt lat="49.44029" lon="-1.36392">
        <ele>11.6</ele>
        <time>2022-01-27T15:02:42Z</time>
      </trkpt>
      <trkpt lat="49.44023" lon="-1.36393">
        <ele>10.9</ele>
        <time>2022-01-27T15:02:49Z</time>
      </trkpt>
      <trkpt lat="49.44019" lon="-1.36397">
        <ele>10.4</ele>
        <time>2022-01-27T15:03:00Z</time>
      </trkpt>
      <trkpt lat="49.44014" lon="-1.364">
        <ele>10.4</ele>
        <time>2022-01-27T15:03:03Z</time>
      </trkpt>
      <trkpt lat="49.4401" lon="-1.36403">
        <ele>10.5</ele>
        <time>2022-01-27T15:03:06Z</time>
      </trkpt>
      <trkpt lat="49.44004" lon="-1.36405">
        <ele>10.8</ele>
        <time>2022-01-27T15:03:10Z</time>
      </trkpt>
      <trkpt lat="49.43999" lon="-1.36408">
        <ele>10.8</ele>
        <time>2022-01-27T15:03:14Z</time>
      </trkpt>
      <trkpt lat="49.43995" lon="-1.36415">
        <ele>10.4</ele>
        <time>2022-01-27T15:03:26Z</time>
      </trkpt>
      <trkpt lat="49.43992" lon="-1.36421">
        <ele>10.5</ele>
        <time>2022-01-27T15:03:28Z</time>
      </trkpt>
      <trkpt lat="49.43988" lon="-1.36426">
        <ele>10.7</ele>
        <time>2022-01-27T15:03:32Z</time>
      </trkpt>
      <trkpt lat="49.43983" lon="-1.3643">
        <ele>11</ele>
        <time>2022-01-27T15:03:35Z</time>
      </trkpt>
      <trkpt lat="49.4398" lon="-1.36435">
        <ele>11.3</ele>
        <time>2022-01-27T15:03:39Z</time>
      </trkpt>
      <trkpt lat="49.43977" lon="-1.3644">
        <ele>11.6</ele>
        <time>2022-01-27T15:03:42Z</time>
      </trkpt>
      <trkpt lat="49.43972" lon="-1.36444">
        <ele>11.7</ele>
        <time>2022-01-27T15:03:47Z</time>
      </trkpt>
      <trkpt lat="49.43968" lon="-1.36445">
        <ele>11.3</ele>
        <time>2022-01-27T15:03:54Z</time>
      </trkpt>
      <trkpt lat="49.43964" lon="-1.3645">
        <ele>10.3</ele>
        <time>2022-01-27T15:04:16Z</time>
      </trkpt>
      <trkpt lat="49.43961" lon="-1.36456">
        <ele>10.1</ele>
        <time>2022-01-27T15:04:21Z</time>
      </trkpt>
      <trkpt lat="49.43959" lon="-1.36464">
        <ele>9.8</ele>
        <time>2022-01-27T15:04:25Z</time>
      </trkpt>
      <trkpt lat="49.43955" lon="-1.3647">
        <ele>9.6</ele>
        <time>2022-01-27T15:04:29Z</time>
      </trkpt>
      <trkpt lat="49.43951" lon="-1.36474">
        <ele>9.5</ele>
        <time>2022-01-27T15:04:33Z</time>
      </trkpt>
      <trkpt lat="49.43948" lon="-1.36478">
        <ele>9.5</ele>
        <time>2022-01-27T15:04:36Z</time>
      </trkpt>
      <trkpt lat="49.43945" lon="-1.36484">
        <ele>9.3</ele>
        <time>2022-01-27T15:04:40Z</time>
      </trkpt>
      <trkpt lat="49.43943" lon="-1.36491">
        <ele>9.1</ele>
        <time>2022-01-27T15:04:44Z</time>
      </trkpt>
      <trkpt lat="49.4394" lon="-1.36497">
        <ele>8.9</ele>
        <time>2022-01-27T15:04:48Z</time>
      </trkpt>
      <trkpt lat="49.43936" lon="-1.365">
        <ele>8.8</ele>
        <time>2022-01-27T15:04:52Z</time>
      </trkpt>
      <trkpt lat="49.43932" lon="-1.36504">
        <ele>8.6</ele>
        <time>2022-01-27T15:04:56Z</time>
      </trkpt>
      <trkpt lat="49.43927" lon="-1.36507">
        <ele>8.1</ele>
        <time>2022-01-27T15:05:01Z</time>
      </trkpt>
      <trkpt lat="49.43922" lon="-1.36511">
        <ele>7.7</ele>
        <time>2022-01-27T15:05:07Z</time>
      </trkpt>
      <trkpt lat="49.43918" lon="-1.36518">
        <ele>7.5</ele>
        <time>2022-01-27T15:05:11Z</time>
      </trkpt>
      <trkpt lat="49.43916" lon="-1.36524">
        <ele>7.2</ele>
        <time>2022-01-27T15:05:14Z</time>
      </trkpt>
      <trkpt lat="49.43913" lon="-1.36533">
        <ele>7</ele>
        <time>2022-01-27T15:05:18Z</time>
      </trkpt>
      <trkpt lat="49.43909" lon="-1.36544">
        <ele>6.9</ele>
        <time>2022-01-27T15:05:20Z</time>
      </trkpt>
      <trkpt lat="49.43904" lon="-1.36549">
        <ele>6.7</ele>
        <time>2022-01-27T15:05:23Z</time>
      </trkpt>
      <trkpt lat="49.43901" lon="-1.36556">
        <ele>6.5</ele>
        <time>2022-01-27T15:05:28Z</time>
      </trkpt>
      <trkpt lat="49.43899" lon="-1.36562">
        <ele>6.5</ele>
        <time>2022-01-27T15:05:34Z</time>
      </trkpt>
      <trkpt lat="49.43895" lon="-1.36568">
        <ele>6.8</ele>
        <time>2022-01-27T15:05:40Z</time>
      </trkpt>
      <trkpt lat="49.4389" lon="-1.3657">
        <ele>7</ele>
        <time>2022-01-27T15:05:45Z</time>
      </trkpt>
      <trkpt lat="49.43884" lon="-1.36573">
        <ele>6.9</ele>
        <time>2022-01-27T15:05:49Z</time>
      </trkpt>
      <trkpt lat="49.4388" lon="-1.36579">
        <ele>6.6</ele>
        <time>2022-01-27T15:05:54Z</time>
      </trkpt>
      <trkpt lat="49.43879" lon="-1.36587">
        <ele>6.2</ele>
        <time>2022-01-27T15:05:58Z</time>
      </trkpt>
      <trkpt lat="49.43875" lon="-1.36592">
        <ele>5</ele>
        <time>2022-01-27T15:06:04Z</time>
      </trkpt>
      <trkpt lat="49.43869" lon="-1.36594">
        <ele>4.9</ele>
        <time>2022-01-27T15:06:08Z</time>
      </trkpt>
      <trkpt lat="49.43865" lon="-1.36598">
        <ele>4.9</ele>
        <time>2022-01-27T15:06:11Z</time>
      </trkpt>
      <trkpt lat="49.43862" lon="-1.36605">
        <ele>5</ele>
        <time>2022-01-27T15:06:15Z</time>
      </trkpt>
      <trkpt lat="49.43858" lon="-1.36608">
        <ele>5</ele>
        <time>2022-01-27T15:06:28Z</time>
      </trkpt>
      <trkpt lat="49.43853" lon="-1.36614">
        <ele>5</ele>
        <time>2022-01-27T15:06:32Z</time>
      </trkpt>
      <trkpt lat="49.43848" lon="-1.36617">
        <ele>5</ele>
        <time>2022-01-27T15:06:36Z</time>
      </trkpt>
      <trkpt lat="49.43844" lon="-1.36622">
        <ele>5</ele>
        <time>2022-01-27T15:06:41Z</time>
      </trkpt>
      <trkpt lat="49.4384" lon="-1.36626">
        <ele>4.8</ele>
        <time>2022-01-27T15:06:45Z</time>
      </trkpt>
      <trkpt lat="49.43835" lon="-1.3663">
        <ele>4.7</ele>
        <time>2022-01-27T15:06:49Z</time>
      </trkpt>
      <trkpt lat="49.43831" lon="-1.36634">
        <ele>4.7</ele>
        <time>2022-01-27T15:06:52Z</time>
      </trkpt>
      <trkpt lat="49.43827" lon="-1.36634">
        <ele>4.6</ele>
        <time>2022-01-27T15:06:56Z</time>
      </trkpt>
      <trkpt lat="49.43822" lon="-1.36638">
        <ele>4.6</ele>
        <time>2022-01-27T15:07:01Z</time>
      </trkpt>
      <trkpt lat="49.43819" lon="-1.36643">
        <ele>4.6</ele>
        <time>2022-01-27T15:07:05Z</time>
      </trkpt>
      <trkpt lat="49.43814" lon="-1.36644">
        <ele>4.6</ele>
        <time>2022-01-27T15:07:08Z</time>
      </trkpt>
      <trkpt lat="49.4381" lon="-1.36648">
        <ele>4.6</ele>
        <time>2022-01-27T15:07:12Z</time>
      </trkpt>
      <trkpt lat="49.43806" lon="-1.36652">
        <ele>4.6</ele>
        <time>2022-01-27T15:07:15Z</time>
      </trkpt>
      <trkpt lat="49.43801" lon="-1.36656">
        <ele>4.7</ele>
        <time>2022-01-27T15:07:18Z</time>
      </trkpt>
      <trkpt lat="49.43797" lon="-1.36657">
        <ele>4.8</ele>
        <time>2022-01-27T15:07:22Z</time>
      </trkpt>
      <trkpt lat="49.43791" lon="-1.3666">
        <ele>4.9</ele>
        <time>2022-01-27T15:07:28Z</time>
      </trkpt>
      <trkpt lat="49.43786" lon="-1.36663">
        <ele>4.8</ele>
        <time>2022-01-27T15:07:32Z</time>
      </trkpt>
      <trkpt lat="49.43782" lon="-1.36667">
        <ele>4.7</ele>
        <time>2022-01-27T15:07:35Z</time>
      </trkpt>
      <trkpt lat="49.43777" lon="-1.36671">
        <ele>4.7</ele>
        <time>2022-01-27T15:07:39Z</time>
      </trkpt>
      <trkpt lat="49.43773" lon="-1.36675">
        <ele>4.8</ele>
        <time>2022-01-27T15:07:42Z</time>
      </trkpt>
      <trkpt lat="49.43769" lon="-1.36678">
        <ele>4.9</ele>
        <time>2022-01-27T15:07:45Z</time>
      </trkpt>
      <trkpt lat="49.43764" lon="-1.36683">
        <ele>5</ele>
        <time>2022-01-27T15:07:49Z</time>
      </trkpt>
      <trkpt lat="49.43761" lon="-1.36687">
        <ele>5</ele>
        <time>2022-01-27T15:07:53Z</time>
      </trkpt>
      <trkpt lat="49.43758" lon="-1.36694">
        <ele>4.5</ele>
        <time>2022-01-27T15:08:11Z</time>
      </trkpt>
      <trkpt lat="49.43756" lon="-1.36702">
        <ele>4.5</ele>
        <time>2022-01-27T15:08:15Z</time>
      </trkpt>
      <trkpt lat="49.43752" lon="-1.36709">
        <ele>4.5</ele>
        <time>2022-01-27T15:08:18Z</time>
      </trkpt>
      <trkpt lat="49.43749" lon="-1.36715">
        <ele>4.6</ele>
        <time>2022-01-27T15:08:22Z</time>
      </trkpt>
      <trkpt lat="49.43746" lon="-1.36721">
        <ele>4.9</ele>
        <time>2022-01-27T15:08:27Z</time>
      </trkpt>
      <trkpt lat="49.43743" lon="-1.36728">
        <ele>5.2</ele>
        <time>2022-01-27T15:08:30Z</time>
      </trkpt>
      <trkpt lat="49.4374" lon="-1.36734">
        <ele>5.2</ele>
        <time>2022-01-27T15:08:34Z</time>
      </trkpt>
      <trkpt lat="49.43737" lon="-1.36741">
        <ele>5.5</ele>
        <time>2022-01-27T15:08:39Z</time>
      </trkpt>
      <trkpt lat="49.43736" lon="-1.3675">
        <ele>5.7</ele>
        <time>2022-01-27T15:08:43Z</time>
      </trkpt>
      <trkpt lat="49.43733" lon="-1.36758">
        <ele>5.8</ele>
        <time>2022-01-27T15:08:47Z</time>
      </trkpt>
      <trkpt lat="49.43729" lon="-1.36764">
        <ele>5.8</ele>
        <time>2022-01-27T15:08:50Z</time>
      </trkpt>
      <trkpt lat="49.43726" lon="-1.3677">
        <ele>5.8</ele>
        <time>2022-01-27T15:08:53Z</time>
      </trkpt>
      <trkpt lat="49.43722" lon="-1.36775">
        <ele>5.8</ele>
        <time>2022-01-27T15:08:57Z</time>
      </trkpt>
      <trkpt lat="49.43718" lon="-1.36779">
        <ele>5.9</ele>
        <time>2022-01-27T15:09:00Z</time>
      </trkpt>
      <trkpt lat="49.43714" lon="-1.36784">
        <ele>6</ele>
        <time>2022-01-27T15:09:03Z</time>
      </trkpt>
      <trkpt lat="49.4371" lon="-1.36788">
        <ele>6.1</ele>
        <time>2022-01-27T15:09:06Z</time>
      </trkpt>
      <trkpt lat="49.43707" lon="-1.36793">
        <ele>6.9</ele>
        <time>2022-01-27T15:09:14Z</time>
      </trkpt>
      <trkpt lat="49.43704" lon="-1.36799">
        <ele>7.1</ele>
        <time>2022-01-27T15:09:19Z</time>
      </trkpt>
      <trkpt lat="49.43701" lon="-1.36806">
        <ele>7.1</ele>
        <time>2022-01-27T15:09:23Z</time>
      </trkpt>
      <trkpt lat="49.43697" lon="-1.3681">
        <ele>7</ele>
        <time>2022-01-27T15:09:26Z</time>
      </trkpt>
      <trkpt lat="49.43693" lon="-1.36814">
        <ele>7</ele>
        <time>2022-01-27T15:09:29Z</time>
      </trkpt>
      <trkpt lat="49.43688" lon="-1.36816">
        <ele>6.8</ele>
        <time>2022-01-27T15:09:33Z</time>
      </trkpt>
      <trkpt lat="49.43683" lon="-1.36815">
        <ele>6.7</ele>
        <time>2022-01-27T15:09:41Z</time>
      </trkpt>
      <trkpt lat="49.43681" lon="-1.36824">
        <ele>6.7</ele>
        <time>2022-01-27T15:09:45Z</time>
      </trkpt>
      <trkpt lat="49.4368" lon="-1.36831">
        <ele>6.8</ele>
        <time>2022-01-27T15:09:48Z</time>
      </trkpt>
      <trkpt lat="49.43678" lon="-1.36839">
        <ele>6.7</ele>
        <time>2022-01-27T15:10:00Z</time>
      </trkpt>
      <trkpt lat="49.43676" lon="-1.36846">
        <ele>6.6</ele>
        <time>2022-01-27T15:10:03Z</time>
      </trkpt>
      <trkpt lat="49.43673" lon="-1.36851">
        <ele>6.6</ele>
        <time>2022-01-27T15:10:05Z</time>
      </trkpt>
      <trkpt lat="49.4367" lon="-1.36856">
        <ele>6.5</ele>
        <time>2022-01-27T15:10:08Z</time>
      </trkpt>
      <trkpt lat="49.43666" lon="-1.36862">
        <ele>6.4</ele>
        <time>2022-01-27T15:10:11Z</time>
      </trkpt>
      <trkpt lat="49.43662" lon="-1.36868">
        <ele>6.4</ele>
        <time>2022-01-27T15:10:15Z</time>
      </trkpt>
      <trkpt lat="49.43659" lon="-1.36874">
        <ele>6.5</ele>
        <time>2022-01-27T15:10:19Z</time>
      </trkpt>
      <trkpt lat="49.43656" lon="-1.3688">
        <ele>6.5</ele>
        <time>2022-01-27T15:10:24Z</time>
      </trkpt>
      <trkpt lat="49.43652" lon="-1.36884">
        <ele>6.6</ele>
        <time>2022-01-27T15:10:27Z</time>
      </trkpt>
      <trkpt lat="49.43647" lon="-1.3689">
        <ele>7</ele>
        <time>2022-01-27T15:10:32Z</time>
      </trkpt>
      <trkpt lat="49.43643" lon="-1.36893">
        <ele>7.4</ele>
        <time>2022-01-27T15:10:36Z</time>
      </trkpt>
      <trkpt lat="49.43641" lon="-1.369">
        <ele>7.3</ele>
        <time>2022-01-27T15:10:40Z</time>
      </trkpt>
      <trkpt lat="49.43639" lon="-1.36907">
        <ele>7.2</ele>
        <time>2022-01-27T15:10:44Z</time>
      </trkpt>
      <trkpt lat="49.43637" lon="-1.36915">
        <ele>7.1</ele>
        <time>2022-01-27T15:10:47Z</time>
      </trkpt>
      <trkpt lat="49.43634" lon="-1.36923">
        <ele>7.3</ele>
        <time>2022-01-27T15:10:51Z</time>
      </trkpt>
      <trkpt lat="49.43629" lon="-1.36928">
        <ele>7.1</ele>
        <time>2022-01-27T15:10:56Z</time>
      </trkpt>
      <trkpt lat="49.43626" lon="-1.36935">
        <ele>6.8</ele>
        <time>2022-01-27T15:11:01Z</time>
      </trkpt>
      <trkpt lat="49.43624" lon="-1.36942">
        <ele>6.6</ele>
        <time>2022-01-27T15:11:05Z</time>
      </trkpt>
      <trkpt lat="49.43619" lon="-1.36945">
        <ele>6.5</ele>
        <time>2022-01-27T15:11:09Z</time>
      </trkpt>
      <trkpt lat="49.43616" lon="-1.36952">
        <ele>5.9</ele>
        <time>2022-01-27T15:11:13Z</time>
      </trkpt>
      <trkpt lat="49.43612" lon="-1.36954">
        <ele>5.5</ele>
        <time>2022-01-27T15:11:18Z</time>
      </trkpt>
      <trkpt lat="49.43607" lon="-1.36961">
        <ele>5.6</ele>
        <time>2022-01-27T15:11:23Z</time>
      </trkpt>
      <trkpt lat="49.43605" lon="-1.3697">
        <ele>5.7</ele>
        <time>2022-01-27T15:11:28Z</time>
      </trkpt>
      <trkpt lat="49.43602" lon="-1.36976">
        <ele>5.9</ele>
        <time>2022-01-27T15:11:33Z</time>
      </trkpt>
      <trkpt lat="49.43599" lon="-1.36982">
        <ele>5.9</ele>
        <time>2022-01-27T15:11:39Z</time>
      </trkpt>
      <trkpt lat="49.43596" lon="-1.36988">
        <ele>5.9</ele>
        <time>2022-01-27T15:11:47Z</time>
      </trkpt>
      <trkpt lat="49.43593" lon="-1.36994">
        <ele>6</ele>
        <time>2022-01-27T15:11:52Z</time>
      </trkpt>
      <trkpt lat="49.43589" lon="-1.37">
        <ele>4.4</ele>
        <time>2022-01-27T15:12:26Z</time>
      </trkpt>
      <trkpt lat="49.43585" lon="-1.37007">
        <ele>4.4</ele>
        <time>2022-01-27T15:12:29Z</time>
      </trkpt>
      <trkpt lat="49.43582" lon="-1.37011">
        <ele>4.4</ele>
        <time>2022-01-27T15:12:32Z</time>
      </trkpt>
      <trkpt lat="49.43578" lon="-1.37016">
        <ele>4.5</ele>
        <time>2022-01-27T15:12:36Z</time>
      </trkpt>
      <trkpt lat="49.43577" lon="-1.37023">
        <ele>4.7</ele>
        <time>2022-01-27T15:12:40Z</time>
      </trkpt>
      <trkpt lat="49.43576" lon="-1.3703">
        <ele>5</ele>
        <time>2022-01-27T15:12:43Z</time>
      </trkpt>
      <trkpt lat="49.43573" lon="-1.37037">
        <ele>5.2</ele>
        <time>2022-01-27T15:12:47Z</time>
      </trkpt>
      <trkpt lat="49.4357" lon="-1.37044">
        <ele>5.5</ele>
        <time>2022-01-27T15:12:52Z</time>
      </trkpt>
      <trkpt lat="49.43568" lon="-1.3705">
        <ele>5.7</ele>
        <time>2022-01-27T15:12:55Z</time>
      </trkpt>
      <trkpt lat="49.43566" lon="-1.37059">
        <ele>5.6</ele>
        <time>2022-01-27T15:13:00Z</time>
      </trkpt>
      <trkpt lat="49.43565" lon="-1.37066">
        <ele>5.5</ele>
        <time>2022-01-27T15:13:03Z</time>
      </trkpt>
      <trkpt lat="49.43561" lon="-1.3707">
        <ele>5.5</ele>
        <time>2022-01-27T15:13:08Z</time>
      </trkpt>
      <trkpt lat="49.43559" lon="-1.37077">
        <ele>5.8</ele>
        <time>2022-01-27T15:13:11Z</time>
      </trkpt>
      <trkpt lat="49.43558" lon="-1.37084">
        <ele>6</ele>
        <time>2022-01-27T15:13:14Z</time>
      </trkpt>
      <trkpt lat="49.43556" lon="-1.3709">
        <ele>6.2</ele>
        <time>2022-01-27T15:13:18Z</time>
      </trkpt>
      <trkpt lat="49.43553" lon="-1.37096">
        <ele>6.2</ele>
        <time>2022-01-27T15:13:23Z</time>
      </trkpt>
      <trkpt lat="49.43548" lon="-1.37104">
        <ele>6.3</ele>
        <time>2022-01-27T15:13:48Z</time>
      </trkpt>
      <trkpt lat="49.43545" lon="-1.3711">
        <ele>6.2</ele>
        <time>2022-01-27T15:13:51Z</time>
      </trkpt>
      <trkpt lat="49.43542" lon="-1.37118">
        <ele>6.2</ele>
        <time>2022-01-27T15:13:54Z</time>
      </trkpt>
      <trkpt lat="49.43542" lon="-1.37126">
        <ele>6.1</ele>
        <time>2022-01-27T15:13:59Z</time>
      </trkpt>
      <trkpt lat="49.43542" lon="-1.37134">
        <ele>6.1</ele>
        <time>2022-01-27T15:14:03Z</time>
      </trkpt>
      <trkpt lat="49.4354" lon="-1.37141">
        <ele>6.1</ele>
        <time>2022-01-27T15:14:08Z</time>
      </trkpt>
      <trkpt lat="49.43534" lon="-1.37145">
        <ele>6.5</ele>
        <time>2022-01-27T15:14:14Z</time>
      </trkpt>
      <trkpt lat="49.43531" lon="-1.37152">
        <ele>6.4</ele>
        <time>2022-01-27T15:14:18Z</time>
      </trkpt>
      <trkpt lat="49.43533" lon="-1.37158">
        <ele>6.9</ele>
        <time>2022-01-27T15:14:35Z</time>
      </trkpt>
      <trkpt lat="49.43535" lon="-1.37166">
        <ele>7.1</ele>
        <time>2022-01-27T15:14:40Z</time>
      </trkpt>
      <trkpt lat="49.43536" lon="-1.37174">
        <ele>7.2</ele>
        <time>2022-01-27T15:14:43Z</time>
      </trkpt>
      <trkpt lat="49.43536" lon="-1.37181">
        <ele>7.1</ele>
        <time>2022-01-27T15:14:46Z</time>
      </trkpt>
      <trkpt lat="49.43535" lon="-1.37189">
        <ele>6.8</ele>
        <time>2022-01-27T15:14:52Z</time>
      </trkpt>
      <trkpt lat="49.43536" lon="-1.37197">
        <ele>6.1</ele>
        <time>2022-01-27T15:14:56Z</time>
      </trkpt>
      <trkpt lat="49.43535" lon="-1.37206">
        <ele>6</ele>
        <time>2022-01-27T15:15:00Z</time>
      </trkpt>
      <trkpt lat="49.43535" lon="-1.37215">
        <ele>6.2</ele>
        <time>2022-01-27T15:15:05Z</time>
      </trkpt>
      <trkpt lat="49.43535" lon="-1.37223">
        <ele>6.5</ele>
        <time>2022-01-27T15:15:10Z</time>
      </trkpt>
      <trkpt lat="49.43535" lon="-1.37231">
        <ele>6.7</ele>
        <time>2022-01-27T15:15:15Z</time>
      </trkpt>
      <trkpt lat="49.43537" lon="-1.3724">
        <ele>7.3</ele>
        <time>2022-01-27T15:15:22Z</time>
      </trkpt>
      <trkpt lat="49.43538" lon="-1.37247">
        <ele>7.3</ele>
        <time>2022-01-27T15:15:26Z</time>
      </trkpt>
      <trkpt lat="49.43539" lon="-1.37255">
        <ele>7.1</ele>
        <time>2022-01-27T15:15:31Z</time>
      </trkpt>
      <trkpt lat="49.43538" lon="-1.37263">
        <ele>7.1</ele>
        <time>2022-01-27T15:15:36Z</time>
      </trkpt>
      <trkpt lat="49.43538" lon="-1.37271">
        <ele>7.5</ele>
        <time>2022-01-27T15:15:42Z</time>
      </trkpt>
      <trkpt lat="49.43539" lon="-1.3728">
        <ele>7.7</ele>
        <time>2022-01-27T15:15:51Z</time>
      </trkpt>
      <trkpt lat="49.4354" lon="-1.37287">
        <ele>7.5</ele>
        <time>2022-01-27T15:15:54Z</time>
      </trkpt>
      <trkpt lat="49.43538" lon="-1.37295">
        <ele>7.3</ele>
        <time>2022-01-27T15:15:59Z</time>
      </trkpt>
      <trkpt lat="49.43539" lon="-1.37303">
        <ele>7.2</ele>
        <time>2022-01-27T15:16:03Z</time>
      </trkpt>
      <trkpt lat="49.4354" lon="-1.37311">
        <ele>6.9</ele>
        <time>2022-01-27T15:16:09Z</time>
      </trkpt>
      <trkpt lat="49.43538" lon="-1.37318">
        <ele>6.7</ele>
        <time>2022-01-27T15:16:20Z</time>
      </trkpt>
      <trkpt lat="49.43537" lon="-1.37327">
        <ele>6.6</ele>
        <time>2022-01-27T15:16:24Z</time>
      </trkpt>
      <trkpt lat="49.43535" lon="-1.37334">
        <ele>6.4</ele>
        <time>2022-01-27T15:16:28Z</time>
      </trkpt>
      <trkpt lat="49.43533" lon="-1.37342">
        <ele>6.2</ele>
        <time>2022-01-27T15:16:32Z</time>
      </trkpt>
      <trkpt lat="49.43531" lon="-1.3735">
        <ele>6.2</ele>
        <time>2022-01-27T15:16:37Z</time>
      </trkpt>
      <trkpt lat="49.43529" lon="-1.37357">
        <ele>6.2</ele>
        <time>2022-01-27T15:16:41Z</time>
      </trkpt>
      <trkpt lat="49.43527" lon="-1.37364">
        <ele>6</ele>
        <time>2022-01-27T15:16:45Z</time>
      </trkpt>
      <trkpt lat="49.43527" lon="-1.37372">
        <ele>5.9</ele>
        <time>2022-01-27T15:16:50Z</time>
      </trkpt>
      <trkpt lat="49.43526" lon="-1.3738">
        <ele>5.8</ele>
        <time>2022-01-27T15:16:55Z</time>
      </trkpt>
      <trkpt lat="49.43524" lon="-1.37388">
        <ele>5.6</ele>
        <time>2022-01-27T15:16:59Z</time>
      </trkpt>
      <trkpt lat="49.43523" lon="-1.37396">
        <ele>5.3</ele>
        <time>2022-01-27T15:17:04Z</time>
      </trkpt>
      <trkpt lat="49.43522" lon="-1.37403">
        <ele>5</ele>
        <time>2022-01-27T15:17:09Z</time>
      </trkpt>
      <trkpt lat="49.43518" lon="-1.37409">
        <ele>5</ele>
        <time>2022-01-27T15:17:13Z</time>
      </trkpt>
      <trkpt lat="49.43518" lon="-1.37417">
        <ele>5.1</ele>
        <time>2022-01-27T15:17:19Z</time>
      </trkpt>
      <trkpt lat="49.43515" lon="-1.37423">
        <ele>5.2</ele>
        <time>2022-01-27T15:17:23Z</time>
      </trkpt>
      <trkpt lat="49.43513" lon="-1.37431">
        <ele>5.2</ele>
        <time>2022-01-27T15:17:28Z</time>
      </trkpt>
      <trkpt lat="49.43514" lon="-1.37438">
        <ele>5.2</ele>
        <time>2022-01-27T15:17:31Z</time>
      </trkpt>
      <trkpt lat="49.43512" lon="-1.37444">
        <ele>5.1</ele>
        <time>2022-01-27T15:17:36Z</time>
      </trkpt>
      <trkpt lat="49.43507" lon="-1.37444">
        <ele>4.9</ele>
        <time>2022-01-27T15:17:39Z</time>
      </trkpt>
      <trkpt lat="49.43505" lon="-1.37452">
        <ele>4.7</ele>
        <time>2022-01-27T15:17:44Z</time>
      </trkpt>
      <trkpt lat="49.43505" lon="-1.37461">
        <ele>4.5</ele>
        <time>2022-01-27T15:17:49Z</time>
      </trkpt>
      <trkpt lat="49.43503" lon="-1.37469">
        <ele>4.3</ele>
        <time>2022-01-27T15:17:54Z</time>
      </trkpt>
      <trkpt lat="49.43507" lon="-1.37461">
        <ele>4.3</ele>
        <time>2022-01-27T15:18:31Z</time>
      </trkpt>
      <trkpt lat="49.43509" lon="-1.37448">
        <ele>4.3</ele>
        <time>2022-01-27T15:18:33Z</time>
      </trkpt>
      <trkpt lat="49.43511" lon="-1.37442">
        <ele>4.2</ele>
        <time>2022-01-27T15:18:36Z</time>
      </trkpt>
      <trkpt lat="49.4351" lon="-1.37449">
        <ele>5</ele>
        <time>2022-01-27T15:19:24Z</time>
      </trkpt>
      <trkpt lat="49.43507" lon="-1.37456">
        <ele>5.3</ele>
        <time>2022-01-27T15:19:27Z</time>
      </trkpt>
      <trkpt lat="49.43505" lon="-1.37466">
        <ele>5.8</ele>
        <time>2022-01-27T15:19:33Z</time>
      </trkpt>
      <trkpt lat="49.43503" lon="-1.37475">
        <ele>6.1</ele>
        <time>2022-01-27T15:19:36Z</time>
      </trkpt>
      <trkpt lat="49.43502" lon="-1.37483">
        <ele>6.1</ele>
        <time>2022-01-27T15:19:38Z</time>
      </trkpt>
      <trkpt lat="49.435" lon="-1.37491">
        <ele>6.3</ele>
        <time>2022-01-27T15:19:41Z</time>
      </trkpt>
      <trkpt lat="49.43499" lon="-1.37499">
        <ele>6.3</ele>
        <time>2022-01-27T15:19:44Z</time>
      </trkpt>
      <trkpt lat="49.43498" lon="-1.37506">
        <ele>6.2</ele>
        <time>2022-01-27T15:19:48Z</time>
      </trkpt>
      <trkpt lat="49.43496" lon="-1.37514">
        <ele>5.6</ele>
        <time>2022-01-27T15:19:53Z</time>
      </trkpt>
      <trkpt lat="49.43495" lon="-1.37523">
        <ele>5.3</ele>
        <time>2022-01-27T15:19:56Z</time>
      </trkpt>
      <trkpt lat="49.43493" lon="-1.37531">
        <ele>5.1</ele>
        <time>2022-01-27T15:20:00Z</time>
      </trkpt>
      <trkpt lat="49.43491" lon="-1.37539">
        <ele>5.2</ele>
        <time>2022-01-27T15:20:04Z</time>
      </trkpt>
      <trkpt lat="49.4349" lon="-1.37546">
        <ele>5.2</ele>
        <time>2022-01-27T15:20:07Z</time>
      </trkpt>
      <trkpt lat="49.43489" lon="-1.37555">
        <ele>5.2</ele>
        <time>2022-01-27T15:20:11Z</time>
      </trkpt>
      <trkpt lat="49.43488" lon="-1.37563">
        <ele>5.3</ele>
        <time>2022-01-27T15:20:14Z</time>
      </trkpt>
      <trkpt lat="49.43488" lon="-1.37572">
        <ele>5.2</ele>
        <time>2022-01-27T15:20:18Z</time>
      </trkpt>
      <trkpt lat="49.43486" lon="-1.3758">
        <ele>5.1</ele>
        <time>2022-01-27T15:20:22Z</time>
      </trkpt>
      <trkpt lat="49.43484" lon="-1.37589">
        <ele>5</ele>
        <time>2022-01-27T15:20:25Z</time>
      </trkpt>
      <trkpt lat="49.43483" lon="-1.37596">
        <ele>4.9</ele>
        <time>2022-01-27T15:20:28Z</time>
      </trkpt>
      <trkpt lat="49.43481" lon="-1.37604">
        <ele>4.7</ele>
        <time>2022-01-27T15:20:31Z</time>
      </trkpt>
      <trkpt lat="49.4348" lon="-1.37613">
        <ele>4.5</ele>
        <time>2022-01-27T15:20:34Z</time>
      </trkpt>
      <trkpt lat="49.43479" lon="-1.37622">
        <ele>4.4</ele>
        <time>2022-01-27T15:20:37Z</time>
      </trkpt>
      <trkpt lat="49.4348" lon="-1.3763">
        <ele>4.4</ele>
        <time>2022-01-27T15:20:40Z</time>
      </trkpt>
      <trkpt lat="49.43478" lon="-1.37638">
        <ele>4.4</ele>
        <time>2022-01-27T15:20:44Z</time>
      </trkpt>
      <trkpt lat="49.43477" lon="-1.37644">
        <ele>4.4</ele>
        <time>2022-01-27T15:20:48Z</time>
      </trkpt>
      <trkpt lat="49.43476" lon="-1.37652">
        <ele>4.4</ele>
        <time>2022-01-27T15:20:51Z</time>
      </trkpt>
      <trkpt lat="49.43474" lon="-1.3766">
        <ele>4.3</ele>
        <time>2022-01-27T15:20:55Z</time>
      </trkpt>
      <trkpt lat="49.43473" lon="-1.37669">
        <ele>4.7</ele>
        <time>2022-01-27T15:21:09Z</time>
      </trkpt>
      <trkpt lat="49.43472" lon="-1.37679">
        <ele>4.8</ele>
        <time>2022-01-27T15:21:12Z</time>
      </trkpt>
      <trkpt lat="49.43471" lon="-1.37686">
        <ele>4.9</ele>
        <time>2022-01-27T15:21:15Z</time>
      </trkpt>
      <trkpt lat="49.43473" lon="-1.37694">
        <ele>4.9</ele>
        <time>2022-01-27T15:21:19Z</time>
      </trkpt>
      <trkpt lat="49.43473" lon="-1.37702">
        <ele>5</ele>
        <time>2022-01-27T15:21:23Z</time>
      </trkpt>
      <trkpt lat="49.43471" lon="-1.37709">
        <ele>5</ele>
        <time>2022-01-27T15:21:27Z</time>
      </trkpt>
      <trkpt lat="49.43467" lon="-1.37715">
        <ele>5</ele>
        <time>2022-01-27T15:21:31Z</time>
      </trkpt>
      <trkpt lat="49.43466" lon="-1.37723">
        <ele>5</ele>
        <time>2022-01-27T15:21:35Z</time>
      </trkpt>
      <trkpt lat="49.43464" lon="-1.3773">
        <ele>5.1</ele>
        <time>2022-01-27T15:21:38Z</time>
      </trkpt>
      <trkpt lat="49.43462" lon="-1.37738">
        <ele>5.4</ele>
        <time>2022-01-27T15:21:41Z</time>
      </trkpt>
      <trkpt lat="49.43459" lon="-1.37743">
        <ele>5.5</ele>
        <time>2022-01-27T15:21:44Z</time>
      </trkpt>
      <trkpt lat="49.43457" lon="-1.37751">
        <ele>5.6</ele>
        <time>2022-01-27T15:21:47Z</time>
      </trkpt>
      <trkpt lat="49.43456" lon="-1.37759">
        <ele>5.8</ele>
        <time>2022-01-27T15:21:50Z</time>
      </trkpt>
      <trkpt lat="49.43453" lon="-1.37767">
        <ele>5.9</ele>
        <time>2022-01-27T15:21:55Z</time>
      </trkpt>
      <trkpt lat="49.43451" lon="-1.37774">
        <ele>5.9</ele>
        <time>2022-01-27T15:21:58Z</time>
      </trkpt>
      <trkpt lat="49.43449" lon="-1.3778">
        <ele>5.8</ele>
        <time>2022-01-27T15:22:01Z</time>
      </trkpt>
      <trkpt lat="49.43445" lon="-1.37785">
        <ele>5.7</ele>
        <time>2022-01-27T15:22:04Z</time>
      </trkpt>
      <trkpt lat="49.43441" lon="-1.37787">
        <ele>5.7</ele>
        <time>2022-01-27T15:22:09Z</time>
      </trkpt>
      <trkpt lat="49.43436" lon="-1.37787">
        <ele>5.9</ele>
        <time>2022-01-27T15:22:13Z</time>
      </trkpt>
      <trkpt lat="49.43433" lon="-1.37783">
        <ele>4.5</ele>
        <time>2022-01-27T15:22:46Z</time>
      </trkpt>
      <trkpt lat="49.43428" lon="-1.37778">
        <ele>4.6</ele>
        <time>2022-01-27T15:23:03Z</time>
      </trkpt>
      <trkpt lat="49.43424" lon="-1.37773">
        <ele>4.7</ele>
        <time>2022-01-27T15:23:10Z</time>
      </trkpt>
      <trkpt lat="49.43422" lon="-1.37767">
        <ele>4.7</ele>
        <time>2022-01-27T15:23:12Z</time>
      </trkpt>
      <trkpt lat="49.43418" lon="-1.3776">
        <ele>4.7</ele>
        <time>2022-01-27T15:23:15Z</time>
      </trkpt>
      <trkpt lat="49.43414" lon="-1.37754">
        <ele>4.7</ele>
        <time>2022-01-27T15:23:19Z</time>
      </trkpt>
      <trkpt lat="49.43411" lon="-1.37749">
        <ele>4.7</ele>
        <time>2022-01-27T15:23:22Z</time>
      </trkpt>
      <trkpt lat="49.43407" lon="-1.37745">
        <ele>4.8</ele>
        <time>2022-01-27T15:23:25Z</time>
      </trkpt>
      <trkpt lat="49.43403" lon="-1.37738">
        <ele>5</ele>
        <time>2022-01-27T15:23:30Z</time>
      </trkpt>
      <trkpt lat="49.43399" lon="-1.37733">
        <ele>4.8</ele>
        <time>2022-01-27T15:23:34Z</time>
      </trkpt>
      <trkpt lat="49.43395" lon="-1.37727">
        <ele>4.2</ele>
        <time>2022-01-27T15:23:40Z</time>
      </trkpt>
      <trkpt lat="49.43392" lon="-1.37721">
        <ele>3.4</ele>
        <time>2022-01-27T15:23:45Z</time>
      </trkpt>
      <trkpt lat="49.43389" lon="-1.37715">
        <ele>3.2</ele>
        <time>2022-01-27T15:23:51Z</time>
      </trkpt>
      <trkpt lat="49.43384" lon="-1.3771">
        <ele>3.2</ele>
        <time>2022-01-27T15:23:55Z</time>
      </trkpt>
      <trkpt lat="49.43379" lon="-1.37707">
        <ele>3.8</ele>
        <time>2022-01-27T15:24:00Z</time>
      </trkpt>
      <trkpt lat="49.43376" lon="-1.37701">
        <ele>4.2</ele>
        <time>2022-01-27T15:24:04Z</time>
      </trkpt>
      <trkpt lat="49.43374" lon="-1.37694">
        <ele>4.4</ele>
        <time>2022-01-27T15:24:08Z</time>
      </trkpt>
      <trkpt lat="49.43371" lon="-1.37689">
        <ele>4.7</ele>
        <time>2022-01-27T15:24:11Z</time>
      </trkpt>
      <trkpt lat="49.43366" lon="-1.37686">
        <ele>5.3</ele>
        <time>2022-01-27T15:24:16Z</time>
      </trkpt>
      <trkpt lat="49.43363" lon="-1.37682">
        <ele>5.6</ele>
        <time>2022-01-27T15:24:25Z</time>
      </trkpt>
      <trkpt lat="49.4336" lon="-1.37676">
        <ele>5.5</ele>
        <time>2022-01-27T15:24:29Z</time>
      </trkpt>
      <trkpt lat="49.43354" lon="-1.37679">
        <ele>5.5</ele>
        <time>2022-01-27T15:24:36Z</time>
      </trkpt>
      <trkpt lat="49.4335" lon="-1.37672">
        <ele>5.6</ele>
        <time>2022-01-27T15:24:40Z</time>
      </trkpt>
      <trkpt lat="49.43348" lon="-1.37665">
        <ele>5.6</ele>
        <time>2022-01-27T15:24:43Z</time>
      </trkpt>
      <trkpt lat="49.43345" lon="-1.37658">
        <ele>5.4</ele>
        <time>2022-01-27T15:24:47Z</time>
      </trkpt>
      <trkpt lat="49.43341" lon="-1.37652">
        <ele>5.2</ele>
        <time>2022-01-27T15:24:52Z</time>
      </trkpt>
      <trkpt lat="49.43338" lon="-1.37646">
        <ele>5</ele>
        <time>2022-01-27T15:25:01Z</time>
      </trkpt>
      <trkpt lat="49.43333" lon="-1.37642">
        <ele>4.7</ele>
        <time>2022-01-27T15:25:07Z</time>
      </trkpt>
      <trkpt lat="49.4333" lon="-1.37636">
        <ele>4.8</ele>
        <time>2022-01-27T15:25:12Z</time>
      </trkpt>
      <trkpt lat="49.43327" lon="-1.3763">
        <ele>4.9</ele>
        <time>2022-01-27T15:25:15Z</time>
      </trkpt>
      <trkpt lat="49.43323" lon="-1.37623">
        <ele>5</ele>
        <time>2022-01-27T15:25:19Z</time>
      </trkpt>
      <trkpt lat="49.4332" lon="-1.37618">
        <ele>5.2</ele>
        <time>2022-01-27T15:25:24Z</time>
      </trkpt>
      <trkpt lat="49.43316" lon="-1.37613">
        <ele>5.4</ele>
        <time>2022-01-27T15:25:28Z</time>
      </trkpt>
      <trkpt lat="49.43311" lon="-1.3761">
        <ele>5.3</ele>
        <time>2022-01-27T15:25:31Z</time>
      </trkpt>
      <trkpt lat="49.43306" lon="-1.37605">
        <ele>5</ele>
        <time>2022-01-27T15:25:35Z</time>
      </trkpt>
      <trkpt lat="49.43302" lon="-1.37599">
        <ele>4.8</ele>
        <time>2022-01-27T15:25:40Z</time>
      </trkpt>
      <trkpt lat="49.43299" lon="-1.37594">
        <ele>4.8</ele>
        <time>2022-01-27T15:25:43Z</time>
      </trkpt>
      <trkpt lat="49.43295" lon="-1.37588">
        <ele>5.1</ele>
        <time>2022-01-27T15:25:47Z</time>
      </trkpt>
      <trkpt lat="49.43291" lon="-1.37583">
        <ele>5.1</ele>
        <time>2022-01-27T15:25:52Z</time>
      </trkpt>
      <trkpt lat="49.43287" lon="-1.37577">
        <ele>5.1</ele>
        <time>2022-01-27T15:25:56Z</time>
      </trkpt>
      <trkpt lat="49.43283" lon="-1.37572">
        <ele>4.9</ele>
        <time>2022-01-27T15:25:59Z</time>
      </trkpt>
      <trkpt lat="49.43279" lon="-1.37568">
        <ele>4.9</ele>
        <time>2022-01-27T15:26:03Z</time>
      </trkpt>
      <trkpt lat="49.43276" lon="-1.37563">
        <ele>4.9</ele>
        <time>2022-01-27T15:26:08Z</time>
      </trkpt>
      <trkpt lat="49.43272" lon="-1.37558">
        <ele>4.7</ele>
        <time>2022-01-27T15:26:14Z</time>
      </trkpt>
      <trkpt lat="49.43268" lon="-1.37553">
        <ele>4.4</ele>
        <time>2022-01-27T15:26:18Z</time>
      </trkpt>
      <trkpt lat="49.43264" lon="-1.37549">
        <ele>4.2</ele>
        <time>2022-01-27T15:26:21Z</time>
      </trkpt>
      <trkpt lat="49.4326" lon="-1.37545">
        <ele>4.1</ele>
        <time>2022-01-27T15:26:26Z</time>
      </trkpt>
      <trkpt lat="49.43257" lon="-1.3754">
        <ele>4</ele>
        <time>2022-01-27T15:26:29Z</time>
      </trkpt>
      <trkpt lat="49.43255" lon="-1.37534">
        <ele>3.9</ele>
        <time>2022-01-27T15:26:36Z</time>
      </trkpt>
      <trkpt lat="49.43251" lon="-1.37529">
        <ele>3.9</ele>
        <time>2022-01-27T15:26:39Z</time>
      </trkpt>
      <trkpt lat="49.43246" lon="-1.37525">
        <ele>3.9</ele>
        <time>2022-01-27T15:26:43Z</time>
      </trkpt>
      <trkpt lat="49.43243" lon="-1.37518">
        <ele>4</ele>
        <time>2022-01-27T15:26:47Z</time>
      </trkpt>
      <trkpt lat="49.43239" lon="-1.37512">
        <ele>4</ele>
        <time>2022-01-27T15:26:50Z</time>
      </trkpt>
      <trkpt lat="49.43236" lon="-1.37506">
        <ele>4.1</ele>
        <time>2022-01-27T15:26:54Z</time>
      </trkpt>
      <trkpt lat="49.43233" lon="-1.37498">
        <ele>4.2</ele>
        <time>2022-01-27T15:26:59Z</time>
      </trkpt>
      <trkpt lat="49.43228" lon="-1.37498">
        <ele>4.1</ele>
        <time>2022-01-27T15:27:03Z</time>
      </trkpt>
      <trkpt lat="49.43222" lon="-1.37494">
        <ele>4.1</ele>
        <time>2022-01-27T15:27:08Z</time>
      </trkpt>
      <trkpt lat="49.43219" lon="-1.37489">
        <ele>4.1</ele>
        <time>2022-01-27T15:27:12Z</time>
      </trkpt>
      <trkpt lat="49.43217" lon="-1.37483">
        <ele>4</ele>
        <time>2022-01-27T15:27:17Z</time>
      </trkpt>
      <trkpt lat="49.43213" lon="-1.37478">
        <ele>3.8</ele>
        <time>2022-01-27T15:27:30Z</time>
      </trkpt>
      <trkpt lat="49.4321" lon="-1.37474">
        <ele>2.7</ele>
        <time>2022-01-27T15:27:35Z</time>
      </trkpt>
      <trkpt lat="49.43205" lon="-1.37469">
        <ele>2.8</ele>
        <time>2022-01-27T15:27:47Z</time>
      </trkpt>
      <trkpt lat="49.43202" lon="-1.37462">
        <ele>2.9</ele>
        <time>2022-01-27T15:27:50Z</time>
      </trkpt>
      <trkpt lat="49.43199" lon="-1.37455">
        <ele>2.6</ele>
        <time>2022-01-27T15:27:54Z</time>
      </trkpt>
      <trkpt lat="49.43195" lon="-1.37448">
        <ele>2.1</ele>
        <time>2022-01-27T15:27:59Z</time>
      </trkpt>
      <trkpt lat="49.4319" lon="-1.37444">
        <ele>1.3</ele>
        <time>2022-01-27T15:28:04Z</time>
      </trkpt>
      <trkpt lat="49.43186" lon="-1.37438">
        <ele>0.6</ele>
        <time>2022-01-27T15:28:08Z</time>
      </trkpt>
      <trkpt lat="49.43182" lon="-1.37433">
        <ele>0.2</ele>
        <time>2022-01-27T15:28:12Z</time>
      </trkpt>
      <trkpt lat="49.43178" lon="-1.37429">
        <ele>-0.1</ele>
        <time>2022-01-27T15:28:16Z</time>
      </trkpt>
      <trkpt lat="49.43175" lon="-1.37424">
        <ele>-0.1</ele>
        <time>2022-01-27T15:28:20Z</time>
      </trkpt>
      <trkpt lat="49.43171" lon="-1.37419">
        <ele>2.2</ele>
        <time>2022-01-27T15:28:25Z</time>
      </trkpt>
      <trkpt lat="49.43168" lon="-1.37413">
        <ele>2.2</ele>
        <time>2022-01-27T15:28:29Z</time>
      </trkpt>
      <trkpt lat="49.43163" lon="-1.37409">
        <ele>-0.8</ele>
        <time>2022-01-27T15:28:35Z</time>
      </trkpt>
      <trkpt lat="49.43159" lon="-1.37406">
        <ele>-0.7</ele>
        <time>2022-01-27T15:28:40Z</time>
      </trkpt>
      <trkpt lat="49.43155" lon="-1.374">
        <ele>-0.5</ele>
        <time>2022-01-27T15:28:50Z</time>
      </trkpt>
      <trkpt lat="49.43151" lon="-1.37396">
        <ele>-0.9</ele>
        <time>2022-01-27T15:28:54Z</time>
      </trkpt>
      <trkpt lat="49.43148" lon="-1.37388">
        <ele>-1.1</ele>
        <time>2022-01-27T15:28:59Z</time>
      </trkpt>
      <trkpt lat="49.43144" lon="-1.37381">
        <ele>-0.9</ele>
        <time>2022-01-27T15:29:03Z</time>
      </trkpt>
      <trkpt lat="49.43142" lon="-1.37375">
        <ele>-1.3</ele>
        <time>2022-01-27T15:29:16Z</time>
      </trkpt>
      <trkpt lat="49.4314" lon="-1.37369">
        <ele>-0.2</ele>
        <time>2022-01-27T15:29:32Z</time>
      </trkpt>
      <trkpt lat="49.43135" lon="-1.37366">
        <ele>-0.2</ele>
        <time>2022-01-27T15:29:49Z</time>
      </trkpt>
      <trkpt lat="49.43131" lon="-1.37361">
        <ele>-0.4</ele>
        <time>2022-01-27T15:29:53Z</time>
      </trkpt>
      <trkpt lat="49.43128" lon="-1.37355">
        <ele>-0.8</ele>
        <time>2022-01-27T15:29:55Z</time>
      </trkpt>
      <trkpt lat="49.43124" lon="-1.3735">
        <ele>-1.1</ele>
        <time>2022-01-27T15:29:59Z</time>
      </trkpt>
      <trkpt lat="49.4312" lon="-1.37346">
        <ele>-0.9</ele>
        <time>2022-01-27T15:30:02Z</time>
      </trkpt>
      <trkpt lat="49.43116" lon="-1.37341">
        <ele>-0.7</ele>
        <time>2022-01-27T15:30:05Z</time>
      </trkpt>
      <trkpt lat="49.43113" lon="-1.37337">
        <ele>-0.5</ele>
        <time>2022-01-27T15:30:09Z</time>
      </trkpt>
      <trkpt lat="49.43108" lon="-1.37334">
        <ele>-0.3</ele>
        <time>2022-01-27T15:30:13Z</time>
      </trkpt>
      <trkpt lat="49.43106" lon="-1.37328">
        <ele>0.1</ele>
        <time>2022-01-27T15:30:17Z</time>
      </trkpt>
      <trkpt lat="49.43103" lon="-1.37321">
        <ele>0.5</ele>
        <time>2022-01-27T15:30:22Z</time>
      </trkpt>
      <trkpt lat="49.431" lon="-1.37314">
        <ele>-0.1</ele>
        <time>2022-01-27T15:30:28Z</time>
      </trkpt>
      <trkpt lat="49.43097" lon="-1.37308">
        <ele>0.3</ele>
        <time>2022-01-27T15:30:35Z</time>
      </trkpt>
      <trkpt lat="49.43091" lon="-1.37305">
        <ele>0.6</ele>
        <time>2022-01-27T15:30:41Z</time>
      </trkpt>
      <trkpt lat="49.43088" lon="-1.373">
        <ele>0.1</ele>
        <time>2022-01-27T15:30:45Z</time>
      </trkpt>
      <trkpt lat="49.43085" lon="-1.37295">
        <ele>-0.2</ele>
        <time>2022-01-27T15:30:51Z</time>
      </trkpt>
      <trkpt lat="49.4308" lon="-1.37295">
        <ele>0.2</ele>
        <time>2022-01-27T15:31:01Z</time>
      </trkpt>
      <trkpt lat="49.43079" lon="-1.37286">
        <ele>0.5</ele>
        <time>2022-01-27T15:31:06Z</time>
      </trkpt>
      <trkpt lat="49.43076" lon="-1.3728">
        <ele>0.8</ele>
        <time>2022-01-27T15:31:09Z</time>
      </trkpt>
      <trkpt lat="49.43073" lon="-1.37274">
        <ele>1</ele>
        <time>2022-01-27T15:31:12Z</time>
      </trkpt>
      <trkpt lat="49.4307" lon="-1.37268">
        <ele>1.2</ele>
        <time>2022-01-27T15:31:16Z</time>
      </trkpt>
      <trkpt lat="49.43064" lon="-1.37263">
        <ele>1.3</ele>
        <time>2022-01-27T15:31:20Z</time>
      </trkpt>
      <trkpt lat="49.4306" lon="-1.37258">
        <ele>1.1</ele>
        <time>2022-01-27T15:31:24Z</time>
      </trkpt>
      <trkpt lat="49.43056" lon="-1.37253">
        <ele>0.6</ele>
        <time>2022-01-27T15:31:27Z</time>
      </trkpt>
      <trkpt lat="49.43052" lon="-1.37248">
        <ele>1.7</ele>
        <time>2022-01-27T15:31:57Z</time>
      </trkpt>
      <trkpt lat="49.43048" lon="-1.37243">
        <ele>2.3</ele>
        <time>2022-01-27T15:32:00Z</time>
      </trkpt>
      <trkpt lat="49.43045" lon="-1.37238">
        <ele>3</ele>
        <time>2022-01-27T15:32:02Z</time>
      </trkpt>
      <trkpt lat="49.4304" lon="-1.37233">
        <ele>3.2</ele>
        <time>2022-01-27T15:32:05Z</time>
      </trkpt>
      <trkpt lat="49.43037" lon="-1.37227">
        <ele>3.2</ele>
        <time>2022-01-27T15:32:10Z</time>
      </trkpt>
      <trkpt lat="49.43032" lon="-1.37222">
        <ele>3.4</ele>
        <time>2022-01-27T15:32:14Z</time>
      </trkpt>
      <trkpt lat="49.43029" lon="-1.37215">
        <ele>3.5</ele>
        <time>2022-01-27T15:32:18Z</time>
      </trkpt>
      <trkpt lat="49.43025" lon="-1.37211">
        <ele>3.5</ele>
        <time>2022-01-27T15:32:22Z</time>
      </trkpt>
      <trkpt lat="49.43021" lon="-1.37207">
        <ele>3.5</ele>
        <time>2022-01-27T15:32:26Z</time>
      </trkpt>
      <trkpt lat="49.43019" lon="-1.372">
        <ele>3.4</ele>
        <time>2022-01-27T15:32:29Z</time>
      </trkpt>
      <trkpt lat="49.43016" lon="-1.37194">
        <ele>3.3</ele>
        <time>2022-01-27T15:32:34Z</time>
      </trkpt>
      <trkpt lat="49.43012" lon="-1.37191">
        <ele>3.5</ele>
        <time>2022-01-27T15:32:36Z</time>
      </trkpt>
      <trkpt lat="49.43008" lon="-1.37185">
        <ele>3.7</ele>
        <time>2022-01-27T15:32:41Z</time>
      </trkpt>
      <trkpt lat="49.43003" lon="-1.37181">
        <ele>3.2</ele>
        <time>2022-01-27T15:32:47Z</time>
      </trkpt>
      <trkpt lat="49.42999" lon="-1.37176">
        <ele>2.7</ele>
        <time>2022-01-27T15:32:52Z</time>
      </trkpt>
      <trkpt lat="49.42995" lon="-1.3717">
        <ele>2.5</ele>
        <time>2022-01-27T15:32:56Z</time>
      </trkpt>
      <trkpt lat="49.42992" lon="-1.37164">
        <ele>0.5</ele>
        <time>2022-01-27T15:33:28Z</time>
      </trkpt>
      <trkpt lat="49.42989" lon="-1.37157">
        <ele>0.3</ele>
        <time>2022-01-27T15:33:32Z</time>
      </trkpt>
      <trkpt lat="49.42984" lon="-1.37151">
        <ele>0.1</ele>
        <time>2022-01-27T15:33:36Z</time>
      </trkpt>
      <trkpt lat="49.42977" lon="-1.37145">
        <ele>0.3</ele>
        <time>2022-01-27T15:33:41Z</time>
      </trkpt>
      <trkpt lat="49.42972" lon="-1.37143">
        <ele>0.7</ele>
        <time>2022-01-27T15:33:45Z</time>
      </trkpt>
      <trkpt lat="49.42967" lon="-1.37141">
        <ele>0.9</ele>
        <time>2022-01-27T15:33:49Z</time>
      </trkpt>
      <trkpt lat="49.42963" lon="-1.37136">
        <ele>0.7</ele>
        <time>2022-01-27T15:33:53Z</time>
      </trkpt>
      <trkpt lat="49.4296" lon="-1.3713">
        <ele>0.3</ele>
        <time>2022-01-27T15:33:57Z</time>
      </trkpt>
      <trkpt lat="49.42957" lon="-1.37122">
        <ele>-0.3</ele>
        <time>2022-01-27T15:34:02Z</time>
      </trkpt>
      <trkpt lat="49.42954" lon="-1.37116">
        <ele>-0.7</ele>
        <time>2022-01-27T15:34:06Z</time>
      </trkpt>
      <trkpt lat="49.4295" lon="-1.37112">
        <ele>-0.9</ele>
        <time>2022-01-27T15:34:11Z</time>
      </trkpt>
      <trkpt lat="49.42946" lon="-1.37108">
        <ele>-0.8</ele>
        <time>2022-01-27T15:34:14Z</time>
      </trkpt>
      <trkpt lat="49.42942" lon="-1.37105">
        <ele>-0.7</ele>
        <time>2022-01-27T15:34:18Z</time>
      </trkpt>
      <trkpt lat="49.42938" lon="-1.37099">
        <ele>-0.4</ele>
        <time>2022-01-27T15:34:23Z</time>
      </trkpt>
      <trkpt lat="49.42935" lon="-1.37094">
        <ele>-0.3</ele>
        <time>2022-01-27T15:34:27Z</time>
      </trkpt>
      <trkpt lat="49.42931" lon="-1.37089">
        <ele>-0.4</ele>
        <time>2022-01-27T15:34:32Z</time>
      </trkpt>
      <trkpt lat="49.42928" lon="-1.37084">
        <ele>-0.5</ele>
        <time>2022-01-27T15:34:35Z</time>
      </trkpt>
      <trkpt lat="49.42925" lon="-1.37079">
        <ele>-0.3</ele>
        <time>2022-01-27T15:34:38Z</time>
      </trkpt>
      <trkpt lat="49.42921" lon="-1.37074">
        <ele>0.1</ele>
        <time>2022-01-27T15:34:43Z</time>
      </trkpt>
      <trkpt lat="49.42918" lon="-1.3707">
        <ele>0.1</ele>
        <time>2022-01-27T15:34:48Z</time>
      </trkpt>
      <trkpt lat="49.42914" lon="-1.37064">
        <ele>-0.4</ele>
        <time>2022-01-27T15:34:53Z</time>
      </trkpt>
      <trkpt lat="49.4291" lon="-1.37057">
        <ele>-0.6</ele>
        <time>2022-01-27T15:34:59Z</time>
      </trkpt>
      <trkpt lat="49.42906" lon="-1.3705">
        <ele>-0.3</ele>
        <time>2022-01-27T15:35:03Z</time>
      </trkpt>
      <trkpt lat="49.42902" lon="-1.37044">
        <ele>0.3</ele>
        <time>2022-01-27T15:35:07Z</time>
      </trkpt>
      <trkpt lat="49.42898" lon="-1.37041">
        <ele>0.9</ele>
        <time>2022-01-27T15:35:13Z</time>
      </trkpt>
      <trkpt lat="49.42895" lon="-1.37032">
        <ele>1.1</ele>
        <time>2022-01-27T15:35:17Z</time>
      </trkpt>
      <trkpt lat="49.42891" lon="-1.37024">
        <ele>1.1</ele>
        <time>2022-01-27T15:35:21Z</time>
      </trkpt>
      <trkpt lat="49.42889" lon="-1.37017">
        <ele>1</ele>
        <time>2022-01-27T15:35:24Z</time>
      </trkpt>
      <trkpt lat="49.42888" lon="-1.3701">
        <ele>1</ele>
        <time>2022-01-27T15:35:27Z</time>
      </trkpt>
      <trkpt lat="49.42886" lon="-1.37003">
        <ele>1.1</ele>
        <time>2022-01-27T15:35:31Z</time>
      </trkpt>
      <trkpt lat="49.42885" lon="-1.36996">
        <ele>1.1</ele>
        <time>2022-01-27T15:35:34Z</time>
      </trkpt>
      <trkpt lat="49.42883" lon="-1.36988">
        <ele>1.2</ele>
        <time>2022-01-27T15:35:39Z</time>
      </trkpt>
      <trkpt lat="49.42883" lon="-1.36981">
        <ele>1.3</ele>
        <time>2022-01-27T15:35:43Z</time>
      </trkpt>
      <trkpt lat="49.42882" lon="-1.36973">
        <ele>1.3</ele>
        <time>2022-01-27T15:35:47Z</time>
      </trkpt>
      <trkpt lat="49.4288" lon="-1.36965">
        <ele>1.3</ele>
        <time>2022-01-27T15:35:52Z</time>
      </trkpt>
      <trkpt lat="49.4288" lon="-1.36957">
        <ele>1.4</ele>
        <time>2022-01-27T15:35:56Z</time>
      </trkpt>
      <trkpt lat="49.42879" lon="-1.3695">
        <ele>1.5</ele>
        <time>2022-01-27T15:36:01Z</time>
      </trkpt>
      <trkpt lat="49.42878" lon="-1.36942">
        <ele>1.6</ele>
        <time>2022-01-27T15:36:05Z</time>
      </trkpt>
      <trkpt lat="49.42878" lon="-1.36934">
        <ele>1.4</ele>
        <time>2022-01-27T15:36:10Z</time>
      </trkpt>
      <trkpt lat="49.42875" lon="-1.36925">
        <ele>1.4</ele>
        <time>2022-01-27T15:36:15Z</time>
      </trkpt>
      <trkpt lat="49.42874" lon="-1.36917">
        <ele>1.4</ele>
        <time>2022-01-27T15:36:19Z</time>
      </trkpt>
      <trkpt lat="49.42873" lon="-1.36909">
        <ele>1.5</ele>
        <time>2022-01-27T15:36:23Z</time>
      </trkpt>
      <trkpt lat="49.4287" lon="-1.36901">
        <ele>1.4</ele>
        <time>2022-01-27T15:36:27Z</time>
      </trkpt>
      <trkpt lat="49.4287" lon="-1.36894">
        <ele>1.3</ele>
        <time>2022-01-27T15:36:31Z</time>
      </trkpt>
      <trkpt lat="49.42869" lon="-1.36885">
        <ele>1.2</ele>
        <time>2022-01-27T15:36:35Z</time>
      </trkpt>
      <trkpt lat="49.42871" lon="-1.36879">
        <ele>1.3</ele>
        <time>2022-01-27T15:36:41Z</time>
      </trkpt>
      <trkpt lat="49.4287" lon="-1.36871">
        <ele>1.3</ele>
        <time>2022-01-27T15:36:46Z</time>
      </trkpt>
      <trkpt lat="49.42868" lon="-1.36864">
        <ele>1.2</ele>
        <time>2022-01-27T15:36:51Z</time>
      </trkpt>
      <trkpt lat="49.42866" lon="-1.36858">
        <ele>1.1</ele>
        <time>2022-01-27T15:36:55Z</time>
      </trkpt>
      <trkpt lat="49.42866" lon="-1.36849">
        <ele>1</ele>
        <time>2022-01-27T15:37:00Z</time>
      </trkpt>
      <trkpt lat="49.42863" lon="-1.36842">
        <ele>1</ele>
        <time>2022-01-27T15:37:04Z</time>
      </trkpt>
      <trkpt lat="49.42862" lon="-1.36834">
        <ele>0.9</ele>
        <time>2022-01-27T15:37:08Z</time>
      </trkpt>
      <trkpt lat="49.42862" lon="-1.36827">
        <ele>1</ele>
        <time>2022-01-27T15:37:12Z</time>
      </trkpt>
      <trkpt lat="49.4286" lon="-1.3682">
        <ele>0.9</ele>
        <time>2022-01-27T15:37:15Z</time>
      </trkpt>
      <trkpt lat="49.42859" lon="-1.36812">
        <ele>0.8</ele>
        <time>2022-01-27T15:37:20Z</time>
      </trkpt>
      <trkpt lat="49.42858" lon="-1.36804">
        <ele>0.6</ele>
        <time>2022-01-27T15:37:24Z</time>
      </trkpt>
      <trkpt lat="49.42857" lon="-1.36795">
        <ele>0.5</ele>
        <time>2022-01-27T15:37:29Z</time>
      </trkpt>
      <trkpt lat="49.42855" lon="-1.36787">
        <ele>0.2</ele>
        <time>2022-01-27T15:37:33Z</time>
      </trkpt>
      <trkpt lat="49.42855" lon="-1.36778">
        <ele>0.1</ele>
        <time>2022-01-27T15:37:38Z</time>
      </trkpt>
      <trkpt lat="49.42855" lon="-1.36771">
        <ele>0.6</ele>
        <time>2022-01-27T15:37:54Z</time>
      </trkpt>
      <trkpt lat="49.42852" lon="-1.36766">
        <ele>0.3</ele>
        <time>2022-01-27T15:37:57Z</time>
      </trkpt>
      <trkpt lat="49.4285" lon="-1.36759">
        <ele>-0.1</ele>
        <time>2022-01-27T15:37:59Z</time>
      </trkpt>
      <trkpt lat="49.42849" lon="-1.36752">
        <ele>-0.3</ele>
        <time>2022-01-27T15:38:02Z</time>
      </trkpt>
      <trkpt lat="49.42848" lon="-1.36744">
        <ele>-0.3</ele>
        <time>2022-01-27T15:38:05Z</time>
      </trkpt>
      <trkpt lat="49.42848" lon="-1.36735">
        <ele>-0.2</ele>
        <time>2022-01-27T15:38:09Z</time>
      </trkpt>
      <trkpt lat="49.42844" lon="-1.36729">
        <ele>-0.1</ele>
        <time>2022-01-27T15:38:14Z</time>
      </trkpt>
      <trkpt lat="49.42842" lon="-1.36722">
        <ele>-0.1</ele>
        <time>2022-01-27T15:38:17Z</time>
      </trkpt>
      <trkpt lat="49.42842" lon="-1.36715">
        <ele>-0.1</ele>
        <time>2022-01-27T15:38:20Z</time>
      </trkpt>
      <trkpt lat="49.42841" lon="-1.36707">
        <ele>-0.1</ele>
        <time>2022-01-27T15:38:24Z</time>
      </trkpt>
      <trkpt lat="49.42841" lon="-1.367">
        <ele>2.9</ele>
        <time>2022-01-27T15:38:27Z</time>
      </trkpt>
      <trkpt lat="49.42841" lon="-1.36692">
        <ele>0.1</ele>
        <time>2022-01-27T15:38:31Z</time>
      </trkpt>
      <trkpt lat="49.42838" lon="-1.36686">
        <ele>0.2</ele>
        <time>2022-01-27T15:38:35Z</time>
      </trkpt>
      <trkpt lat="49.42837" lon="-1.36678">
        <ele>0.2</ele>
        <time>2022-01-27T15:38:40Z</time>
      </trkpt>
      <trkpt lat="49.42837" lon="-1.36669">
        <ele>0.2</ele>
        <time>2022-01-27T15:38:44Z</time>
      </trkpt>
      <trkpt lat="49.42835" lon="-1.36662">
        <ele>0.1</ele>
        <time>2022-01-27T15:38:48Z</time>
      </trkpt>
      <trkpt lat="49.42834" lon="-1.36653">
        <ele>0.1</ele>
        <time>2022-01-27T15:38:53Z</time>
      </trkpt>
      <trkpt lat="49.42834" lon="-1.36645">
        <ele>3</ele>
        <time>2022-01-27T15:38:57Z</time>
      </trkpt>
      <trkpt lat="49.42834" lon="-1.36638">
        <ele>3</ele>
        <time>2022-01-27T15:39:01Z</time>
      </trkpt>
      <trkpt lat="49.42831" lon="-1.3663">
        <ele>2.9</ele>
        <time>2022-01-27T15:39:05Z</time>
      </trkpt>
      <trkpt lat="49.4283" lon="-1.36622">
        <ele>2.9</ele>
        <time>2022-01-27T15:39:22Z</time>
      </trkpt>
      <trkpt lat="49.42829" lon="-1.36615">
        <ele>2.8</ele>
        <time>2022-01-27T15:39:25Z</time>
      </trkpt>
      <trkpt lat="49.42827" lon="-1.36606">
        <ele>-0.1</ele>
        <time>2022-01-27T15:39:28Z</time>
      </trkpt>
      <trkpt lat="49.42826" lon="-1.36598">
        <ele>-0.1</ele>
        <time>2022-01-27T15:39:31Z</time>
      </trkpt>
      <trkpt lat="49.42824" lon="-1.36588">
        <ele>-0.1</ele>
        <time>2022-01-27T15:39:34Z</time>
      </trkpt>
      <trkpt lat="49.42823" lon="-1.36579">
        <ele>-0.1</ele>
        <time>2022-01-27T15:39:38Z</time>
      </trkpt>
      <trkpt lat="49.42822" lon="-1.36572">
        <ele>3</ele>
        <time>2022-01-27T15:39:42Z</time>
      </trkpt>
      <trkpt lat="49.42821" lon="-1.36565">
        <ele>0.3</ele>
        <time>2022-01-27T15:39:45Z</time>
      </trkpt>
      <trkpt lat="49.4282" lon="-1.36556">
        <ele>0.5</ele>
        <time>2022-01-27T15:39:49Z</time>
      </trkpt>
      <trkpt lat="49.42819" lon="-1.36549">
        <ele>0.5</ele>
        <time>2022-01-27T15:39:54Z</time>
      </trkpt>
      <trkpt lat="49.4282" lon="-1.3654">
        <ele>0.3</ele>
        <time>2022-01-27T15:39:59Z</time>
      </trkpt>
      <trkpt lat="49.42819" lon="-1.36532">
        <ele>0.4</ele>
        <time>2022-01-27T15:40:04Z</time>
      </trkpt>
      <trkpt lat="49.42818" lon="-1.36524">
        <ele>0.6</ele>
        <time>2022-01-27T15:40:08Z</time>
      </trkpt>
      <trkpt lat="49.42816" lon="-1.36518">
        <ele>1.2</ele>
        <time>2022-01-27T15:40:36Z</time>
      </trkpt>
      <trkpt lat="49.42812" lon="-1.36513">
        <ele>2.2</ele>
        <time>2022-01-27T15:40:40Z</time>
      </trkpt>
      <trkpt lat="49.42811" lon="-1.36506">
        <ele>3.1</ele>
        <time>2022-01-27T15:40:42Z</time>
      </trkpt>
      <trkpt lat="49.4281" lon="-1.36499">
        <ele>3.9</ele>
        <time>2022-01-27T15:40:44Z</time>
      </trkpt>
      <trkpt lat="49.4281" lon="-1.3649">
        <ele>4.4</ele>
        <time>2022-01-27T15:40:47Z</time>
      </trkpt>
      <trkpt lat="49.42811" lon="-1.36481">
        <ele>5</ele>
        <time>2022-01-27T15:40:52Z</time>
      </trkpt>
      <trkpt lat="49.42815" lon="-1.36473">
        <ele>5.1</ele>
        <time>2022-01-27T15:40:58Z</time>
      </trkpt>
      <trkpt lat="49.4282" lon="-1.36473">
        <ele>4.2</ele>
        <time>2022-01-27T15:41:04Z</time>
      </trkpt>
      <trkpt lat="49.42826" lon="-1.36472">
        <ele>4.3</ele>
        <time>2022-01-27T15:41:10Z</time>
      </trkpt>
      <trkpt lat="49.4283" lon="-1.36469">
        <ele>4.6</ele>
        <time>2022-01-27T15:41:13Z</time>
      </trkpt>
      <trkpt lat="49.42836" lon="-1.36467">
        <ele>4.8</ele>
        <time>2022-01-27T15:41:17Z</time>
      </trkpt>
      <trkpt lat="49.42841" lon="-1.36466">
        <ele>4.8</ele>
        <time>2022-01-27T15:41:21Z</time>
      </trkpt>
      <trkpt lat="49.42846" lon="-1.36463">
        <ele>4.8</ele>
        <time>2022-01-27T15:41:24Z</time>
      </trkpt>
      <trkpt lat="49.42851" lon="-1.36461">
        <ele>4.7</ele>
        <time>2022-01-27T15:41:29Z</time>
      </trkpt>
      <trkpt lat="49.42855" lon="-1.36459">
        <ele>4.5</ele>
        <time>2022-01-27T15:41:32Z</time>
      </trkpt>
      <trkpt lat="49.4286" lon="-1.36456">
        <ele>4.2</ele>
        <time>2022-01-27T15:41:37Z</time>
      </trkpt>
      <trkpt lat="49.42865" lon="-1.36455">
        <ele>3.9</ele>
        <time>2022-01-27T15:41:40Z</time>
      </trkpt>
      <trkpt lat="49.4287" lon="-1.36452">
        <ele>3.6</ele>
        <time>2022-01-27T15:41:44Z</time>
      </trkpt>
      <trkpt lat="49.42876" lon="-1.36451">
        <ele>3.1</ele>
        <time>2022-01-27T15:41:49Z</time>
      </trkpt>
      <trkpt lat="49.42879" lon="-1.36445">
        <ele>2.8</ele>
        <time>2022-01-27T15:41:55Z</time>
      </trkpt>
      <trkpt lat="49.42884" lon="-1.36446">
        <ele>4.7</ele>
        <time>2022-01-27T15:42:36Z</time>
      </trkpt>
      <trkpt lat="49.42889" lon="-1.36445">
        <ele>4.7</ele>
        <time>2022-01-27T15:42:39Z</time>
      </trkpt>
      <trkpt lat="49.42894" lon="-1.36443">
        <ele>4.6</ele>
        <time>2022-01-27T15:42:43Z</time>
      </trkpt>
      <trkpt lat="49.429" lon="-1.36442">
        <ele>4.1</ele>
        <time>2022-01-27T15:42:46Z</time>
      </trkpt>
      <trkpt lat="49.42906" lon="-1.3644">
        <ele>3.7</ele>
        <time>2022-01-27T15:42:51Z</time>
      </trkpt>
      <trkpt lat="49.42912" lon="-1.36438">
        <ele>3.3</ele>
        <time>2022-01-27T15:42:55Z</time>
      </trkpt>
      <trkpt lat="49.42917" lon="-1.36434">
        <ele>3.1</ele>
        <time>2022-01-27T15:43:00Z</time>
      </trkpt>
      <trkpt lat="49.42922" lon="-1.3643">
        <ele>3.1</ele>
        <time>2022-01-27T15:43:05Z</time>
      </trkpt>
      <trkpt lat="49.42927" lon="-1.36428">
        <ele>3.1</ele>
        <time>2022-01-27T15:43:09Z</time>
      </trkpt>
      <trkpt lat="49.42932" lon="-1.36425">
        <ele>3.2</ele>
        <time>2022-01-27T15:43:14Z</time>
      </trkpt>
      <trkpt lat="49.42937" lon="-1.36424">
        <ele>3.4</ele>
        <time>2022-01-27T15:43:18Z</time>
      </trkpt>
      <trkpt lat="49.42941" lon="-1.36423">
        <ele>3.4</ele>
        <time>2022-01-27T15:43:21Z</time>
      </trkpt>
      <trkpt lat="49.42944" lon="-1.36418">
        <ele>3.1</ele>
        <time>2022-01-27T15:43:25Z</time>
      </trkpt>
      <trkpt lat="49.42945" lon="-1.36411">
        <ele>2.8</ele>
        <time>2022-01-27T15:43:29Z</time>
      </trkpt>
      <trkpt lat="49.42945" lon="-1.36402">
        <ele>2.7</ele>
        <time>2022-01-27T15:43:35Z</time>
      </trkpt>
      <trkpt lat="49.42943" lon="-1.36395">
        <ele>2.7</ele>
        <time>2022-01-27T15:43:40Z</time>
      </trkpt>
      <trkpt lat="49.42943" lon="-1.36387">
        <ele>2.7</ele>
        <time>2022-01-27T15:43:46Z</time>
      </trkpt>
      <trkpt lat="49.4294" lon="-1.3638">
        <ele>2.9</ele>
        <time>2022-01-27T15:43:52Z</time>
      </trkpt>
      <trkpt lat="49.42938" lon="-1.36373">
        <ele>2.8</ele>
        <time>2022-01-27T15:43:56Z</time>
      </trkpt>
      <trkpt lat="49.42936" lon="-1.36365">
        <ele>2.8</ele>
        <time>2022-01-27T15:44:01Z</time>
      </trkpt>
      <trkpt lat="49.42938" lon="-1.36358">
        <ele>2.7</ele>
        <time>2022-01-27T15:44:32Z</time>
      </trkpt>
      <trkpt lat="49.42936" lon="-1.36351">
        <ele>2.8</ele>
        <time>2022-01-27T15:44:34Z</time>
      </trkpt>
      <trkpt lat="49.42934" lon="-1.36345">
        <ele>2.8</ele>
        <time>2022-01-27T15:44:36Z</time>
      </trkpt>
      <trkpt lat="49.42932" lon="-1.36337">
        <ele>2.9</ele>
        <time>2022-01-27T15:44:40Z</time>
      </trkpt>
      <trkpt lat="49.4293" lon="-1.36328">
        <ele>2.8</ele>
        <time>2022-01-27T15:44:44Z</time>
      </trkpt>
      <trkpt lat="49.4293" lon="-1.36321">
        <ele>2.5</ele>
        <time>2022-01-27T15:44:47Z</time>
      </trkpt>
      <trkpt lat="49.4293" lon="-1.36314">
        <ele>2.3</ele>
        <time>2022-01-27T15:44:51Z</time>
      </trkpt>
      <trkpt lat="49.4293" lon="-1.36307">
        <ele>2.1</ele>
        <time>2022-01-27T15:44:54Z</time>
      </trkpt>
      <trkpt lat="49.42931" lon="-1.36298">
        <ele>1.9</ele>
        <time>2022-01-27T15:44:58Z</time>
      </trkpt>
      <trkpt lat="49.42931" lon="-1.36291">
        <ele>1.7</ele>
        <time>2022-01-27T15:45:02Z</time>
      </trkpt>
      <trkpt lat="49.42931" lon="-1.36284">
        <ele>1.6</ele>
        <time>2022-01-27T15:45:05Z</time>
      </trkpt>
      <trkpt lat="49.42932" lon="-1.36276">
        <ele>1.6</ele>
        <time>2022-01-27T15:45:10Z</time>
      </trkpt>
      <trkpt lat="49.42934" lon="-1.36268">
        <ele>1.5</ele>
        <time>2022-01-27T15:45:14Z</time>
      </trkpt>
      <trkpt lat="49.42935" lon="-1.36259">
        <ele>1.3</ele>
        <time>2022-01-27T15:45:19Z</time>
      </trkpt>
      <trkpt lat="49.42936" lon="-1.36251">
        <ele>1.2</ele>
        <time>2022-01-27T15:45:24Z</time>
      </trkpt>
      <trkpt lat="49.42939" lon="-1.36245">
        <ele>1.5</ele>
        <time>2022-01-27T15:45:28Z</time>
      </trkpt>
      <trkpt lat="49.4294" lon="-1.36237">
        <ele>1.9</ele>
        <time>2022-01-27T15:45:33Z</time>
      </trkpt>
      <trkpt lat="49.42943" lon="-1.36231">
        <ele>2</ele>
        <time>2022-01-27T15:45:36Z</time>
      </trkpt>
      <trkpt lat="49.42945" lon="-1.36224">
        <ele>2</ele>
        <time>2022-01-27T15:45:41Z</time>
      </trkpt>
      <trkpt lat="49.42947" lon="-1.36218">
        <ele>2.1</ele>
        <time>2022-01-27T15:45:44Z</time>
      </trkpt>
      <trkpt lat="49.42951" lon="-1.36211">
        <ele>2.2</ele>
        <time>2022-01-27T15:45:48Z</time>
      </trkpt>
      <trkpt lat="49.42955" lon="-1.36206">
        <ele>2.5</ele>
        <time>2022-01-27T15:45:53Z</time>
      </trkpt>
      <trkpt lat="49.4296" lon="-1.36205">
        <ele>2.5</ele>
        <time>2022-01-27T15:45:57Z</time>
      </trkpt>
      <trkpt lat="49.42964" lon="-1.36202">
        <ele>2.5</ele>
        <time>2022-01-27T15:46:01Z</time>
      </trkpt>
      <trkpt lat="49.42968" lon="-1.36197">
        <ele>2.4</ele>
        <time>2022-01-27T15:46:05Z</time>
      </trkpt>
      <trkpt lat="49.42972" lon="-1.36193">
        <ele>2.3</ele>
        <time>2022-01-27T15:46:10Z</time>
      </trkpt>
      <trkpt lat="49.42977" lon="-1.3619">
        <ele>2.4</ele>
        <time>2022-01-27T15:46:14Z</time>
      </trkpt>
      <trkpt lat="49.42981" lon="-1.36187">
        <ele>2.5</ele>
        <time>2022-01-27T15:46:18Z</time>
      </trkpt>
      <trkpt lat="49.42988" lon="-1.36185">
        <ele>2.5</ele>
        <time>2022-01-27T15:46:23Z</time>
      </trkpt>
      <trkpt lat="49.42993" lon="-1.36184">
        <ele>2.4</ele>
        <time>2022-01-27T15:46:27Z</time>
      </trkpt>
      <trkpt lat="49.42999" lon="-1.36184">
        <ele>2.1</ele>
        <time>2022-01-27T15:46:31Z</time>
      </trkpt>
      <trkpt lat="49.43003" lon="-1.3618">
        <ele>2.1</ele>
        <time>2022-01-27T15:46:35Z</time>
      </trkpt>
      <trkpt lat="49.43008" lon="-1.36178">
        <ele>2.1</ele>
        <time>2022-01-27T15:46:40Z</time>
      </trkpt>
      <trkpt lat="49.43013" lon="-1.36179">
        <ele>2.1</ele>
        <time>2022-01-27T15:46:43Z</time>
      </trkpt>
      <trkpt lat="49.43017" lon="-1.36175">
        <ele>2</ele>
        <time>2022-01-27T15:46:47Z</time>
      </trkpt>
      <trkpt lat="49.43021" lon="-1.36173">
        <ele>2.2</ele>
        <time>2022-01-27T15:46:51Z</time>
      </trkpt>
      <trkpt lat="49.43026" lon="-1.36169">
        <ele>2.6</ele>
        <time>2022-01-27T15:46:55Z</time>
      </trkpt>
      <trkpt lat="49.43032" lon="-1.3617">
        <ele>3</ele>
        <time>2022-01-27T15:46:59Z</time>
      </trkpt>
      <trkpt lat="49.43036" lon="-1.36166">
        <ele>3.1</ele>
        <time>2022-01-27T15:47:03Z</time>
      </trkpt>
      <trkpt lat="49.43041" lon="-1.36163">
        <ele>3.3</ele>
        <time>2022-01-27T15:47:07Z</time>
      </trkpt>
      <trkpt lat="49.43046" lon="-1.3616">
        <ele>3.5</ele>
        <time>2022-01-27T15:47:12Z</time>
      </trkpt>
      <trkpt lat="49.43051" lon="-1.36156">
        <ele>3.6</ele>
        <time>2022-01-27T15:47:16Z</time>
      </trkpt>
      <trkpt lat="49.43055" lon="-1.36152">
        <ele>3.8</ele>
        <time>2022-01-27T15:47:20Z</time>
      </trkpt>
      <trkpt lat="49.43059" lon="-1.36147">
        <ele>4.1</ele>
        <time>2022-01-27T15:47:27Z</time>
      </trkpt>
      <trkpt lat="49.43063" lon="-1.36143">
        <ele>4.2</ele>
        <time>2022-01-27T15:47:31Z</time>
      </trkpt>
      <trkpt lat="49.43067" lon="-1.36139">
        <ele>4.2</ele>
        <time>2022-01-27T15:47:35Z</time>
      </trkpt>
      <trkpt lat="49.43071" lon="-1.36133">
        <ele>4.2</ele>
        <time>2022-01-27T15:47:39Z</time>
      </trkpt>
      <trkpt lat="49.43075" lon="-1.36128">
        <ele>4.2</ele>
        <time>2022-01-27T15:47:44Z</time>
      </trkpt>
      <trkpt lat="49.43079" lon="-1.36122">
        <ele>4.3</ele>
        <time>2022-01-27T15:47:48Z</time>
      </trkpt>
      <trkpt lat="49.43083" lon="-1.36115">
        <ele>4.6</ele>
        <time>2022-01-27T15:47:53Z</time>
      </trkpt>
      <trkpt lat="49.43087" lon="-1.36111">
        <ele>4.8</ele>
        <time>2022-01-27T15:47:56Z</time>
      </trkpt>
      <trkpt lat="49.43091" lon="-1.36107">
        <ele>4.9</ele>
        <time>2022-01-27T15:48:00Z</time>
      </trkpt>
      <trkpt lat="49.43094" lon="-1.36102">
        <ele>5.1</ele>
        <time>2022-01-27T15:48:03Z</time>
      </trkpt>
      <trkpt lat="49.43099" lon="-1.36095">
        <ele>5.3</ele>
        <time>2022-01-27T15:48:08Z</time>
      </trkpt>
      <trkpt lat="49.43103" lon="-1.36089">
        <ele>5.4</ele>
        <time>2022-01-27T15:48:13Z</time>
      </trkpt>
      <trkpt lat="49.43107" lon="-1.36083">
        <ele>5.5</ele>
        <time>2022-01-27T15:48:17Z</time>
      </trkpt>
      <trkpt lat="49.43112" lon="-1.36076">
        <ele>5.6</ele>
        <time>2022-01-27T15:48:22Z</time>
      </trkpt>
      <trkpt lat="49.43115" lon="-1.3607">
        <ele>5.6</ele>
        <time>2022-01-27T15:48:26Z</time>
      </trkpt>
      <trkpt lat="49.43118" lon="-1.36065">
        <ele>5.8</ele>
        <time>2022-01-27T15:48:30Z</time>
      </trkpt>
      <trkpt lat="49.43122" lon="-1.36057">
        <ele>6</ele>
        <time>2022-01-27T15:48:35Z</time>
      </trkpt>
      <trkpt lat="49.43125" lon="-1.36052">
        <ele>6.2</ele>
        <time>2022-01-27T15:48:38Z</time>
      </trkpt>
      <trkpt lat="49.43129" lon="-1.36045">
        <ele>6.4</ele>
        <time>2022-01-27T15:48:43Z</time>
      </trkpt>
      <trkpt lat="49.43133" lon="-1.36038">
        <ele>6.7</ele>
        <time>2022-01-27T15:48:47Z</time>
      </trkpt>
      <trkpt lat="49.43136" lon="-1.36031">
        <ele>7.2</ele>
        <time>2022-01-27T15:48:52Z</time>
      </trkpt>
      <trkpt lat="49.43139" lon="-1.36025">
        <ele>7.6</ele>
        <time>2022-01-27T15:48:57Z</time>
      </trkpt>
      <trkpt lat="49.43144" lon="-1.36022">
        <ele>7.8</ele>
        <time>2022-01-27T15:49:01Z</time>
      </trkpt>
      <trkpt lat="49.43146" lon="-1.36015">
        <ele>8</ele>
        <time>2022-01-27T15:49:05Z</time>
      </trkpt>
      <trkpt lat="49.43149" lon="-1.36008">
        <ele>8</ele>
        <time>2022-01-27T15:49:10Z</time>
      </trkpt>
      <trkpt lat="49.43152" lon="-1.36002">
        <ele>8</ele>
        <time>2022-01-27T15:49:14Z</time>
      </trkpt>
      <trkpt lat="49.43156" lon="-1.35996">
        <ele>8.1</ele>
        <time>2022-01-27T15:49:19Z</time>
      </trkpt>
      <trkpt lat="49.43161" lon="-1.3599">
        <ele>8.2</ele>
        <time>2022-01-27T15:49:24Z</time>
      </trkpt>
      <trkpt lat="49.43165" lon="-1.35984">
        <ele>8.3</ele>
        <time>2022-01-27T15:49:29Z</time>
      </trkpt>
      <trkpt lat="49.43168" lon="-1.35978">
        <ele>8.4</ele>
        <time>2022-01-27T15:49:32Z</time>
      </trkpt>
      <trkpt lat="49.43172" lon="-1.35972">
        <ele>8.7</ele>
        <time>2022-01-27T15:49:37Z</time>
      </trkpt>
      <trkpt lat="49.43175" lon="-1.35967">
        <ele>9</ele>
        <time>2022-01-27T15:49:40Z</time>
      </trkpt>
      <trkpt lat="49.4318" lon="-1.35962">
        <ele>9.3</ele>
        <time>2022-01-27T15:49:45Z</time>
      </trkpt>
      <trkpt lat="49.43185" lon="-1.35956">
        <ele>9.6</ele>
        <time>2022-01-27T15:49:49Z</time>
      </trkpt>
      <trkpt lat="49.43188" lon="-1.35952">
        <ele>9.6</ele>
        <time>2022-01-27T15:49:53Z</time>
      </trkpt>
      <trkpt lat="49.43193" lon="-1.35947">
        <ele>9.8</ele>
        <time>2022-01-27T15:49:57Z</time>
      </trkpt>
      <trkpt lat="49.43197" lon="-1.35943">
        <ele>9.9</ele>
        <time>2022-01-27T15:50:01Z</time>
      </trkpt>
      <trkpt lat="49.43201" lon="-1.35938">
        <ele>10.2</ele>
        <time>2022-01-27T15:50:06Z</time>
      </trkpt>
      <trkpt lat="49.43205" lon="-1.35932">
        <ele>10.5</ele>
        <time>2022-01-27T15:50:10Z</time>
      </trkpt>
      <trkpt lat="49.4321" lon="-1.35928">
        <ele>11.1</ele>
        <time>2022-01-27T15:50:14Z</time>
      </trkpt>
      <trkpt lat="49.43215" lon="-1.35922">
        <ele>11.6</ele>
        <time>2022-01-27T15:50:19Z</time>
      </trkpt>
      <trkpt lat="49.43218" lon="-1.35915">
        <ele>12</ele>
        <time>2022-01-27T15:50:23Z</time>
      </trkpt>
      <trkpt lat="49.43222" lon="-1.35911">
        <ele>12.3</ele>
        <time>2022-01-27T15:50:27Z</time>
      </trkpt>
      <trkpt lat="49.43226" lon="-1.35906">
        <ele>12.6</ele>
        <time>2022-01-27T15:50:32Z</time>
      </trkpt>
      <trkpt lat="49.4323" lon="-1.35901">
        <ele>12.8</ele>
        <time>2022-01-27T15:50:36Z</time>
      </trkpt>
      <trkpt lat="49.43234" lon="-1.35896">
        <ele>13.1</ele>
        <time>2022-01-27T15:50:39Z</time>
      </trkpt>
      <trkpt lat="49.43238" lon="-1.35891">
        <ele>13.6</ele>
        <time>2022-01-27T15:50:43Z</time>
      </trkpt>
      <trkpt lat="49.43242" lon="-1.35887">
        <ele>14.1</ele>
        <time>2022-01-27T15:50:47Z</time>
      </trkpt>
      <trkpt lat="49.43247" lon="-1.35881">
        <ele>14.4</ele>
        <time>2022-01-27T15:50:51Z</time>
      </trkpt>
      <trkpt lat="49.43251" lon="-1.35877">
        <ele>14.4</ele>
        <time>2022-01-27T15:50:55Z</time>
      </trkpt>
      <trkpt lat="49.43255" lon="-1.35872">
        <ele>14.5</ele>
        <time>2022-01-27T15:50:59Z</time>
      </trkpt>
      <trkpt lat="49.43259" lon="-1.35868">
        <ele>14.7</ele>
        <time>2022-01-27T15:51:03Z</time>
      </trkpt>
      <trkpt lat="49.43264" lon="-1.35864">
        <ele>14.9</ele>
        <time>2022-01-27T15:51:07Z</time>
      </trkpt>
      <trkpt lat="49.43269" lon="-1.35861">
        <ele>15.1</ele>
        <time>2022-01-27T15:51:11Z</time>
      </trkpt>
      <trkpt lat="49.43274" lon="-1.35858">
        <ele>15.5</ele>
        <time>2022-01-27T15:51:15Z</time>
      </trkpt>
      <trkpt lat="49.43279" lon="-1.35856">
        <ele>15.8</ele>
        <time>2022-01-27T15:51:19Z</time>
      </trkpt>
      <trkpt lat="49.43284" lon="-1.35853">
        <ele>16.2</ele>
        <time>2022-01-27T15:51:24Z</time>
      </trkpt>
      <trkpt lat="49.43289" lon="-1.35849">
        <ele>16.3</ele>
        <time>2022-01-27T15:51:29Z</time>
      </trkpt>
      <trkpt lat="49.43294" lon="-1.35849">
        <ele>16.4</ele>
        <time>2022-01-27T15:51:33Z</time>
      </trkpt>
      <trkpt lat="49.433" lon="-1.35848">
        <ele>16.5</ele>
        <time>2022-01-27T15:51:39Z</time>
      </trkpt>
      <trkpt lat="49.43305" lon="-1.35846">
        <ele>16.6</ele>
        <time>2022-01-27T15:51:42Z</time>
      </trkpt>
      <trkpt lat="49.43311" lon="-1.35844">
        <ele>16.6</ele>
        <time>2022-01-27T15:51:47Z</time>
      </trkpt>
      <trkpt lat="49.43316" lon="-1.35845">
        <ele>16.8</ele>
        <time>2022-01-27T15:51:51Z</time>
      </trkpt>
      <trkpt lat="49.4332" lon="-1.35844">
        <ele>17</ele>
        <time>2022-01-27T15:51:55Z</time>
      </trkpt>
      <trkpt lat="49.43326" lon="-1.35843">
        <ele>17.3</ele>
        <time>2022-01-27T15:51:59Z</time>
      </trkpt>
      <trkpt lat="49.43332" lon="-1.35843">
        <ele>17.7</ele>
        <time>2022-01-27T15:52:05Z</time>
      </trkpt>
      <trkpt lat="49.43337" lon="-1.35843">
        <ele>18.1</ele>
        <time>2022-01-27T15:52:09Z</time>
      </trkpt>
      <trkpt lat="49.43342" lon="-1.35842">
        <ele>18.3</ele>
        <time>2022-01-27T15:52:13Z</time>
      </trkpt>
      <trkpt lat="49.43347" lon="-1.35842">
        <ele>18.4</ele>
        <time>2022-01-27T15:52:18Z</time>
      </trkpt>
      <trkpt lat="49.43353" lon="-1.35842">
        <ele>18.4</ele>
        <time>2022-01-27T15:52:23Z</time>
      </trkpt>
      <trkpt lat="49.43358" lon="-1.35842">
        <ele>18.7</ele>
        <time>2022-01-27T15:52:26Z</time>
      </trkpt>
      <trkpt lat="49.43363" lon="-1.35841">
        <ele>18.9</ele>
        <time>2022-01-27T15:52:30Z</time>
      </trkpt>
      <trkpt lat="49.43368" lon="-1.3584">
        <ele>19.2</ele>
        <time>2022-01-27T15:52:33Z</time>
      </trkpt>
      <trkpt lat="49.43373" lon="-1.3584">
        <ele>19.4</ele>
        <time>2022-01-27T15:52:37Z</time>
      </trkpt>
      <trkpt lat="49.43377" lon="-1.35843">
        <ele>19.6</ele>
        <time>2022-01-27T15:52:41Z</time>
      </trkpt>
      <trkpt lat="49.43382" lon="-1.35844">
        <ele>19.9</ele>
        <time>2022-01-27T15:52:45Z</time>
      </trkpt>
      <trkpt lat="49.43387" lon="-1.35844">
        <ele>20.1</ele>
        <time>2022-01-27T15:52:49Z</time>
      </trkpt>
      <trkpt lat="49.43392" lon="-1.35844">
        <ele>20.4</ele>
        <time>2022-01-27T15:52:53Z</time>
      </trkpt>
      <trkpt lat="49.43397" lon="-1.35844">
        <ele>20.7</ele>
        <time>2022-01-27T15:52:58Z</time>
      </trkpt>
      <trkpt lat="49.43403" lon="-1.35843">
        <ele>20.9</ele>
        <time>2022-01-27T15:53:03Z</time>
      </trkpt>
      <trkpt lat="49.43408" lon="-1.35845">
        <ele>21.2</ele>
        <time>2022-01-27T15:53:07Z</time>
      </trkpt>
      <trkpt lat="49.43413" lon="-1.35847">
        <ele>21.3</ele>
        <time>2022-01-27T15:53:11Z</time>
      </trkpt>
      <trkpt lat="49.43417" lon="-1.35852">
        <ele>21.3</ele>
        <time>2022-01-27T15:53:17Z</time>
      </trkpt>
      <trkpt lat="49.43421" lon="-1.35849">
        <ele>21.2</ele>
        <time>2022-01-27T15:53:20Z</time>
      </trkpt>
      <trkpt lat="49.43427" lon="-1.35849">
        <ele>21.4</ele>
        <time>2022-01-27T15:53:26Z</time>
      </trkpt>
      <trkpt lat="49.43432" lon="-1.3585">
        <ele>21.8</ele>
        <time>2022-01-27T15:53:32Z</time>
      </trkpt>
      <trkpt lat="49.43436" lon="-1.35854">
        <ele>21.4</ele>
        <time>2022-01-27T15:53:49Z</time>
      </trkpt>
      <trkpt lat="49.43441" lon="-1.35858">
        <ele>21.3</ele>
        <time>2022-01-27T15:53:52Z</time>
      </trkpt>
      <trkpt lat="49.43445" lon="-1.35861">
        <ele>21.2</ele>
        <time>2022-01-27T15:53:54Z</time>
      </trkpt>
      <trkpt lat="49.43451" lon="-1.35865">
        <ele>21.2</ele>
        <time>2022-01-27T15:53:58Z</time>
      </trkpt>
      <trkpt lat="49.43456" lon="-1.35869">
        <ele>21.3</ele>
        <time>2022-01-27T15:54:01Z</time>
      </trkpt>
      <trkpt lat="49.4346" lon="-1.35873">
        <ele>21.5</ele>
        <time>2022-01-27T15:54:05Z</time>
      </trkpt>
      <trkpt lat="49.43464" lon="-1.35876">
        <ele>21.8</ele>
        <time>2022-01-27T15:54:09Z</time>
      </trkpt>
      <trkpt lat="49.43469" lon="-1.35877">
        <ele>22.3</ele>
        <time>2022-01-27T15:54:14Z</time>
      </trkpt>
      <trkpt lat="49.43475" lon="-1.35878">
        <ele>22.9</ele>
        <time>2022-01-27T15:54:19Z</time>
      </trkpt>
      <trkpt lat="49.43479" lon="-1.35881">
        <ele>23.5</ele>
        <time>2022-01-27T15:54:22Z</time>
      </trkpt>
      <trkpt lat="49.43484" lon="-1.35878">
        <ele>24.1</ele>
        <time>2022-01-27T15:54:27Z</time>
      </trkpt>
      <trkpt lat="49.43489" lon="-1.35877">
        <ele>24.3</ele>
        <time>2022-01-27T15:54:30Z</time>
      </trkpt>
      <trkpt lat="49.43494" lon="-1.35876">
        <ele>24.4</ele>
        <time>2022-01-27T15:54:34Z</time>
      </trkpt>
      <trkpt lat="49.435" lon="-1.35875">
        <ele>24.5</ele>
        <time>2022-01-27T15:54:38Z</time>
      </trkpt>
      <trkpt lat="49.43504" lon="-1.35874">
        <ele>24.6</ele>
        <time>2022-01-27T15:54:42Z</time>
      </trkpt>
      <trkpt lat="49.43509" lon="-1.35873">
        <ele>24.7</ele>
        <time>2022-01-27T15:54:46Z</time>
      </trkpt>
      <trkpt lat="49.43513" lon="-1.35868">
        <ele>24.9</ele>
        <time>2022-01-27T15:54:50Z</time>
      </trkpt>
      <trkpt lat="49.43516" lon="-1.35863">
        <ele>24.9</ele>
        <time>2022-01-27T15:54:54Z</time>
      </trkpt>
      <trkpt lat="49.43521" lon="-1.35858">
        <ele>25</ele>
        <time>2022-01-27T15:54:58Z</time>
      </trkpt>
      <trkpt lat="49.43525" lon="-1.35855">
        <ele>24.8</ele>
        <time>2022-01-27T15:55:02Z</time>
      </trkpt>
      <trkpt lat="49.43529" lon="-1.35852">
        <ele>24.8</ele>
        <time>2022-01-27T15:55:05Z</time>
      </trkpt>
      <trkpt lat="49.43534" lon="-1.35847">
        <ele>25</ele>
        <time>2022-01-27T15:55:10Z</time>
      </trkpt>
      <trkpt lat="49.43539" lon="-1.35844">
        <ele>25.2</ele>
        <time>2022-01-27T15:55:14Z</time>
      </trkpt>
      <trkpt lat="49.43545" lon="-1.3584">
        <ele>25.5</ele>
        <time>2022-01-27T15:55:19Z</time>
      </trkpt>
      <trkpt lat="49.4355" lon="-1.35838">
        <ele>25.8</ele>
        <time>2022-01-27T15:55:24Z</time>
      </trkpt>
      <trkpt lat="49.43553" lon="-1.35833">
        <ele>26.1</ele>
        <time>2022-01-27T15:55:27Z</time>
      </trkpt>
      <trkpt lat="49.43558" lon="-1.35828">
        <ele>26.3</ele>
        <time>2022-01-27T15:55:31Z</time>
      </trkpt>
      <trkpt lat="49.43563" lon="-1.35824">
        <ele>26.4</ele>
        <time>2022-01-27T15:55:36Z</time>
      </trkpt>
      <trkpt lat="49.43568" lon="-1.35822">
        <ele>26.4</ele>
        <time>2022-01-27T15:55:39Z</time>
      </trkpt>
      <trkpt lat="49.43574" lon="-1.35822">
        <ele>26.6</ele>
        <time>2022-01-27T15:55:44Z</time>
      </trkpt>
      <trkpt lat="49.43579" lon="-1.3582">
        <ele>26.8</ele>
        <time>2022-01-27T15:55:48Z</time>
      </trkpt>
      <trkpt lat="49.43585" lon="-1.35819">
        <ele>27.1</ele>
        <time>2022-01-27T15:55:53Z</time>
      </trkpt>
      <trkpt lat="49.4359" lon="-1.35817">
        <ele>27.2</ele>
        <time>2022-01-27T15:55:56Z</time>
      </trkpt>
      <trkpt lat="49.43596" lon="-1.35818">
        <ele>27.2</ele>
        <time>2022-01-27T15:56:01Z</time>
      </trkpt>
      <trkpt lat="49.43601" lon="-1.35816">
        <ele>27.3</ele>
        <time>2022-01-27T15:56:06Z</time>
      </trkpt>
      <trkpt lat="49.43606" lon="-1.35818">
        <ele>27.4</ele>
        <time>2022-01-27T15:56:11Z</time>
      </trkpt>
      <trkpt lat="49.43612" lon="-1.35818">
        <ele>27.4</ele>
        <time>2022-01-27T15:56:16Z</time>
      </trkpt>
      <trkpt lat="49.43618" lon="-1.35819">
        <ele>27.4</ele>
        <time>2022-01-27T15:56:20Z</time>
      </trkpt>
      <trkpt lat="49.43623" lon="-1.3582">
        <ele>27.5</ele>
        <time>2022-01-27T15:56:24Z</time>
      </trkpt>
      <trkpt lat="49.43629" lon="-1.3582">
        <ele>27.6</ele>
        <time>2022-01-27T15:56:29Z</time>
      </trkpt>
      <trkpt lat="49.43634" lon="-1.35821">
        <ele>27.9</ele>
        <time>2022-01-27T15:56:33Z</time>
      </trkpt>
      <trkpt lat="49.43639" lon="-1.35823">
        <ele>28</ele>
        <time>2022-01-27T15:56:38Z</time>
      </trkpt>
      <trkpt lat="49.43645" lon="-1.35821">
        <ele>28</ele>
        <time>2022-01-27T15:56:43Z</time>
      </trkpt>
      <trkpt lat="49.4365" lon="-1.35817">
        <ele>27.9</ele>
        <time>2022-01-27T15:56:46Z</time>
      </trkpt>
      <trkpt lat="49.43654" lon="-1.35812">
        <ele>27.8</ele>
        <time>2022-01-27T15:56:50Z</time>
      </trkpt>
      <trkpt lat="49.43656" lon="-1.35805">
        <ele>28.1</ele>
        <time>2022-01-27T15:56:55Z</time>
      </trkpt>
      <trkpt lat="49.43661" lon="-1.35803">
        <ele>28.7</ele>
        <time>2022-01-27T15:57:11Z</time>
      </trkpt>
      <trkpt lat="49.43666" lon="-1.358">
        <ele>28.9</ele>
        <time>2022-01-27T15:57:15Z</time>
      </trkpt>
      <trkpt lat="49.43671" lon="-1.35795">
        <ele>29.1</ele>
        <time>2022-01-27T15:57:19Z</time>
      </trkpt>
      <trkpt lat="49.43675" lon="-1.35791">
        <ele>29.1</ele>
        <time>2022-01-27T15:57:23Z</time>
      </trkpt>
      <trkpt lat="49.43679" lon="-1.35786">
        <ele>29.1</ele>
        <time>2022-01-27T15:57:27Z</time>
      </trkpt>
      <trkpt lat="49.43683" lon="-1.35782">
        <ele>29</ele>
        <time>2022-01-27T15:57:31Z</time>
      </trkpt>
      <trkpt lat="49.43687" lon="-1.35779">
        <ele>29</ele>
        <time>2022-01-27T15:57:34Z</time>
      </trkpt>
      <trkpt lat="49.43691" lon="-1.35774">
        <ele>29.2</ele>
        <time>2022-01-27T15:57:38Z</time>
      </trkpt>
      <trkpt lat="49.43695" lon="-1.3577">
        <ele>29.3</ele>
        <time>2022-01-27T15:57:41Z</time>
      </trkpt>
      <trkpt lat="49.43699" lon="-1.35766">
        <ele>29.4</ele>
        <time>2022-01-27T15:57:45Z</time>
      </trkpt>
      <trkpt lat="49.43702" lon="-1.3576">
        <ele>29.5</ele>
        <time>2022-01-27T15:57:48Z</time>
      </trkpt>
      <trkpt lat="49.43707" lon="-1.35755">
        <ele>29.8</ele>
        <time>2022-01-27T15:57:53Z</time>
      </trkpt>
      <trkpt lat="49.43712" lon="-1.35751">
        <ele>30.1</ele>
        <time>2022-01-27T15:57:57Z</time>
      </trkpt>
      <trkpt lat="49.43717" lon="-1.35749">
        <ele>30.2</ele>
        <time>2022-01-27T15:58:02Z</time>
      </trkpt>
      <trkpt lat="49.43721" lon="-1.35746">
        <ele>30.1</ele>
        <time>2022-01-27T15:58:06Z</time>
      </trkpt>
      <trkpt lat="49.43724" lon="-1.3574">
        <ele>30</ele>
        <time>2022-01-27T15:58:10Z</time>
      </trkpt>
      <trkpt lat="49.43729" lon="-1.35735">
        <ele>29.7</ele>
        <time>2022-01-27T15:58:16Z</time>
      </trkpt>
      <trkpt lat="49.43733" lon="-1.3573">
        <ele>29.7</ele>
        <time>2022-01-27T15:58:22Z</time>
      </trkpt>
      <trkpt lat="49.43736" lon="-1.35723">
        <ele>29.4</ele>
        <time>2022-01-27T15:58:35Z</time>
      </trkpt>
      <trkpt lat="49.4374" lon="-1.35717">
        <ele>29.1</ele>
        <time>2022-01-27T15:58:39Z</time>
      </trkpt>
      <trkpt lat="49.43745" lon="-1.35713">
        <ele>28.8</ele>
        <time>2022-01-27T15:58:42Z</time>
      </trkpt>
      <trkpt lat="49.43748" lon="-1.35707">
        <ele>28.6</ele>
        <time>2022-01-27T15:58:45Z</time>
      </trkpt>
      <trkpt lat="49.43752" lon="-1.35704">
        <ele>28.7</ele>
        <time>2022-01-27T15:58:48Z</time>
      </trkpt>
      <trkpt lat="49.43758" lon="-1.35701">
        <ele>28.9</ele>
        <time>2022-01-27T15:58:52Z</time>
      </trkpt>
      <trkpt lat="49.43763" lon="-1.35704">
        <ele>29.4</ele>
        <time>2022-01-27T15:58:56Z</time>
      </trkpt>
      <trkpt lat="49.43767" lon="-1.35709">
        <ele>29.6</ele>
        <time>2022-01-27T15:59:00Z</time>
      </trkpt>
      <trkpt lat="49.43771" lon="-1.35715">
        <ele>29.6</ele>
        <time>2022-01-27T15:59:03Z</time>
      </trkpt>
      <trkpt lat="49.43775" lon="-1.3572">
        <ele>29.8</ele>
        <time>2022-01-27T15:59:06Z</time>
      </trkpt>
      <trkpt lat="49.43778" lon="-1.35727">
        <ele>29.7</ele>
        <time>2022-01-27T15:59:17Z</time>
      </trkpt>
      <trkpt lat="49.43783" lon="-1.35734">
        <ele>29.8</ele>
        <time>2022-01-27T15:59:21Z</time>
      </trkpt>
      <trkpt lat="49.43787" lon="-1.35737">
        <ele>29.9</ele>
        <time>2022-01-27T15:59:23Z</time>
      </trkpt>
      <trkpt lat="49.43791" lon="-1.35741">
        <ele>30.2</ele>
        <time>2022-01-27T15:59:26Z</time>
      </trkpt>
      <trkpt lat="49.43796" lon="-1.35747">
        <ele>30.6</ele>
        <time>2022-01-27T15:59:30Z</time>
      </trkpt>
      <trkpt lat="49.438" lon="-1.35754">
        <ele>31.3</ele>
        <time>2022-01-27T15:59:35Z</time>
      </trkpt>
      <trkpt lat="49.43803" lon="-1.35761">
        <ele>31.8</ele>
        <time>2022-01-27T15:59:39Z</time>
      </trkpt>
      <trkpt lat="49.43807" lon="-1.35767">
        <ele>31.8</ele>
        <time>2022-01-27T15:59:44Z</time>
      </trkpt>
      <trkpt lat="49.43811" lon="-1.35772">
        <ele>31.7</ele>
        <time>2022-01-27T15:59:48Z</time>
      </trkpt>
      <trkpt lat="49.43815" lon="-1.35777">
        <ele>31.7</ele>
        <time>2022-01-27T15:59:52Z</time>
      </trkpt>
      <trkpt lat="49.43819" lon="-1.35782">
        <ele>31.8</ele>
        <time>2022-01-27T15:59:55Z</time>
      </trkpt>
      <trkpt lat="49.43824" lon="-1.35788">
        <ele>31.8</ele>
        <time>2022-01-27T16:00:00Z</time>
      </trkpt>
      <trkpt lat="49.43828" lon="-1.35793">
        <ele>31.7</ele>
        <time>2022-01-27T16:00:03Z</time>
      </trkpt>
      <trkpt lat="49.43832" lon="-1.35799">
        <ele>31.6</ele>
        <time>2022-01-27T16:00:07Z</time>
      </trkpt>
      <trkpt lat="49.43836" lon="-1.35804">
        <ele>31.6</ele>
        <time>2022-01-27T16:00:10Z</time>
      </trkpt>
      <trkpt lat="49.43845" lon="-1.35836">
        <ele>30.6</ele>
        <time>2022-01-27T16:00:28Z</time>
      </trkpt>
      <trkpt lat="49.43848" lon="-1.35843">
        <ele>30.4</ele>
        <time>2022-01-27T16:00:32Z</time>
      </trkpt>
      <trkpt lat="49.43852" lon="-1.35849">
        <ele>30.4</ele>
        <time>2022-01-27T16:00:36Z</time>
      </trkpt>
      <trkpt lat="49.43855" lon="-1.35855">
        <ele>30.4</ele>
        <time>2022-01-27T16:00:39Z</time>
      </trkpt>
      <trkpt lat="49.43858" lon="-1.35862">
        <ele>30.4</ele>
        <time>2022-01-27T16:00:43Z</time>
      </trkpt>
      <trkpt lat="49.43861" lon="-1.35868">
        <ele>30.4</ele>
        <time>2022-01-27T16:00:46Z</time>
      </trkpt>
      <trkpt lat="49.43864" lon="-1.35874">
        <ele>30.3</ele>
        <time>2022-01-27T16:00:50Z</time>
      </trkpt>
      <trkpt lat="49.43866" lon="-1.35881">
        <ele>30</ele>
        <time>2022-01-27T16:00:55Z</time>
      </trkpt>
      <trkpt lat="49.4387" lon="-1.35887">
        <ele>29.9</ele>
        <time>2022-01-27T16:00:59Z</time>
      </trkpt>
      <trkpt lat="49.43874" lon="-1.35893">
        <ele>29.6</ele>
        <time>2022-01-27T16:01:04Z</time>
      </trkpt>
      <trkpt lat="49.43874" lon="-1.359">
        <ele>29.5</ele>
        <time>2022-01-27T16:01:07Z</time>
      </trkpt>
      <trkpt lat="49.43877" lon="-1.35908">
        <ele>29.1</ele>
        <time>2022-01-27T16:01:12Z</time>
      </trkpt>
      <trkpt lat="49.43881" lon="-1.35919">
        <ele>28.6</ele>
        <time>2022-01-27T16:01:17Z</time>
      </trkpt>
      <trkpt lat="49.43886" lon="-1.35935">
        <ele>27.9</ele>
        <time>2022-01-27T16:01:26Z</time>
      </trkpt>
      <trkpt lat="49.43888" lon="-1.35944">
        <ele>27.5</ele>
        <time>2022-01-27T16:01:30Z</time>
      </trkpt>
      <trkpt lat="49.4389" lon="-1.3595">
        <ele>27.3</ele>
        <time>2022-01-27T16:01:33Z</time>
      </trkpt>
      <trkpt lat="49.43893" lon="-1.35956">
        <ele>27</ele>
        <time>2022-01-27T16:01:37Z</time>
      </trkpt>
      <trkpt lat="49.43896" lon="-1.35964">
        <ele>26.8</ele>
        <time>2022-01-27T16:01:41Z</time>
      </trkpt>
      <trkpt lat="49.43898" lon="-1.35972">
        <ele>26.6</ele>
        <time>2022-01-27T16:01:45Z</time>
      </trkpt>
      <trkpt lat="49.43899" lon="-1.35978">
        <ele>26.5</ele>
        <time>2022-01-27T16:01:49Z</time>
      </trkpt>
      <trkpt lat="49.43901" lon="-1.35987">
        <ele>26.3</ele>
        <time>2022-01-27T16:01:53Z</time>
      </trkpt>
      <trkpt lat="49.43903" lon="-1.35993">
        <ele>26.1</ele>
        <time>2022-01-27T16:01:56Z</time>
      </trkpt>
      <trkpt lat="49.43905" lon="-1.36">
        <ele>26</ele>
        <time>2022-01-27T16:02:00Z</time>
      </trkpt>
      <trkpt lat="49.43907" lon="-1.36008">
        <ele>25.7</ele>
        <time>2022-01-27T16:02:05Z</time>
      </trkpt>
      <trkpt lat="49.43909" lon="-1.36015">
        <ele>25.5</ele>
        <time>2022-01-27T16:02:08Z</time>
      </trkpt>
      <trkpt lat="49.4391" lon="-1.36023">
        <ele>25.4</ele>
        <time>2022-01-27T16:02:13Z</time>
      </trkpt>
      <trkpt lat="49.43915" lon="-1.36032">
        <ele>25.3</ele>
        <time>2022-01-27T16:02:30Z</time>
      </trkpt>
      <trkpt lat="49.43919" lon="-1.3604">
        <ele>25.3</ele>
        <time>2022-01-27T16:02:33Z</time>
      </trkpt>
      <trkpt lat="49.43921" lon="-1.36046">
        <ele>25.2</ele>
        <time>2022-01-27T16:02:37Z</time>
      </trkpt>
      <trkpt lat="49.43926" lon="-1.36054">
        <ele>25.2</ele>
        <time>2022-01-27T16:02:41Z</time>
      </trkpt>
      <trkpt lat="49.4393" lon="-1.36061">
        <ele>25</ele>
        <time>2022-01-27T16:02:46Z</time>
      </trkpt>
      <trkpt lat="49.43933" lon="-1.36069">
        <ele>24.8</ele>
        <time>2022-01-27T16:02:50Z</time>
      </trkpt>
      <trkpt lat="49.43937" lon="-1.36077">
        <ele>24.4</ele>
        <time>2022-01-27T16:02:55Z</time>
      </trkpt>
      <trkpt lat="49.4394" lon="-1.36084">
        <ele>24.1</ele>
        <time>2022-01-27T16:02:58Z</time>
      </trkpt>
      <trkpt lat="49.43944" lon="-1.36088">
        <ele>23.5</ele>
        <time>2022-01-27T16:03:03Z</time>
      </trkpt>
      <trkpt lat="49.43948" lon="-1.36093">
        <ele>22.9</ele>
        <time>2022-01-27T16:03:08Z</time>
      </trkpt>
      <trkpt lat="49.4395" lon="-1.361">
        <ele>22.6</ele>
        <time>2022-01-27T16:03:11Z</time>
      </trkpt>
      <trkpt lat="49.43952" lon="-1.36107">
        <ele>22.3</ele>
        <time>2022-01-27T16:03:14Z</time>
      </trkpt>
      <trkpt lat="49.43954" lon="-1.36114">
        <ele>22</ele>
        <time>2022-01-27T16:03:18Z</time>
      </trkpt>
      <trkpt lat="49.43958" lon="-1.36121">
        <ele>21.6</ele>
        <time>2022-01-27T16:03:22Z</time>
      </trkpt>
      <trkpt lat="49.43961" lon="-1.36126">
        <ele>21.2</ele>
        <time>2022-01-27T16:03:25Z</time>
      </trkpt>
      <trkpt lat="49.43963" lon="-1.36132">
        <ele>20.8</ele>
        <time>2022-01-27T16:03:29Z</time>
      </trkpt>
      <trkpt lat="49.43966" lon="-1.36138">
        <ele>20.3</ele>
        <time>2022-01-27T16:03:32Z</time>
      </trkpt>
      <trkpt lat="49.4397" lon="-1.36142">
        <ele>19.7</ele>
        <time>2022-01-27T16:03:35Z</time>
      </trkpt>
      <trkpt lat="49.43974" lon="-1.36151">
        <ele>18.8</ele>
        <time>2022-01-27T16:03:40Z</time>
      </trkpt>
      <trkpt lat="49.43977" lon="-1.36157">
        <ele>18.4</ele>
        <time>2022-01-27T16:03:44Z</time>
      </trkpt>
      <trkpt lat="49.4398" lon="-1.36163">
        <ele>18</ele>
        <time>2022-01-27T16:03:47Z</time>
      </trkpt>
      <trkpt lat="49.43983" lon="-1.3617">
        <ele>17.7</ele>
        <time>2022-01-27T16:03:50Z</time>
      </trkpt>
      <trkpt lat="49.43985" lon="-1.36177">
        <ele>17.5</ele>
        <time>2022-01-27T16:03:54Z</time>
      </trkpt>
      <trkpt lat="49.43988" lon="-1.36185">
        <ele>17.3</ele>
        <time>2022-01-27T16:03:57Z</time>
      </trkpt>
      <trkpt lat="49.4399" lon="-1.36191">
        <ele>17.2</ele>
        <time>2022-01-27T16:04:00Z</time>
      </trkpt>
      <trkpt lat="49.43992" lon="-1.36197">
        <ele>17</ele>
        <time>2022-01-27T16:04:03Z</time>
      </trkpt>
      <trkpt lat="49.43994" lon="-1.36204">
        <ele>16.8</ele>
        <time>2022-01-27T16:04:07Z</time>
      </trkpt>
      <trkpt lat="49.43996" lon="-1.36211">
        <ele>16.5</ele>
        <time>2022-01-27T16:04:10Z</time>
      </trkpt>
      <trkpt lat="49.43998" lon="-1.36219">
        <ele>16.3</ele>
        <time>2022-01-27T16:04:13Z</time>
      </trkpt>
      <trkpt lat="49.44" lon="-1.36226">
        <ele>16.3</ele>
        <time>2022-01-27T16:04:16Z</time>
      </trkpt>
      <trkpt lat="49.44002" lon="-1.36232">
        <ele>16</ele>
        <time>2022-01-27T16:04:19Z</time>
      </trkpt>
      <trkpt lat="49.44004" lon="-1.36239">
        <ele>15.4</ele>
        <time>2022-01-27T16:04:22Z</time>
      </trkpt>
      <trkpt lat="49.44007" lon="-1.36247">
        <ele>14.8</ele>
        <time>2022-01-27T16:04:26Z</time>
      </trkpt>
      <trkpt lat="49.4401" lon="-1.36255">
        <ele>14.3</ele>
        <time>2022-01-27T16:04:29Z</time>
      </trkpt>
      <trkpt lat="49.44012" lon="-1.36263">
        <ele>13.6</ele>
        <time>2022-01-27T16:04:33Z</time>
      </trkpt>
      <trkpt lat="49.44014" lon="-1.36269">
        <ele>13.3</ele>
        <time>2022-01-27T16:04:37Z</time>
      </trkpt>
      <trkpt lat="49.44016" lon="-1.36275">
        <ele>12.9</ele>
        <time>2022-01-27T16:04:41Z</time>
      </trkpt>
      <trkpt lat="49.44019" lon="-1.36282">
        <ele>12.4</ele>
        <time>2022-01-27T16:04:44Z</time>
      </trkpt>
      <trkpt lat="49.44022" lon="-1.36288">
        <ele>11.7</ele>
        <time>2022-01-27T16:04:47Z</time>
      </trkpt>
      <trkpt lat="49.44024" lon="-1.36295">
        <ele>11</ele>
        <time>2022-01-27T16:04:51Z</time>
      </trkpt>
      <trkpt lat="49.44026" lon="-1.36302">
        <ele>10.5</ele>
        <time>2022-01-27T16:04:53Z</time>
      </trkpt>
      <trkpt lat="49.44028" lon="-1.36309">
        <ele>9.7</ele>
        <time>2022-01-27T16:04:56Z</time>
      </trkpt>
      <trkpt lat="49.4403" lon="-1.36315">
        <ele>9.1</ele>
        <time>2022-01-27T16:05:00Z</time>
      </trkpt>
      <trkpt lat="49.44031" lon="-1.36322">
        <ele>8.8</ele>
        <time>2022-01-27T16:05:03Z</time>
      </trkpt>
      <trkpt lat="49.44032" lon="-1.36331">
        <ele>8.9</ele>
        <time>2022-01-27T16:05:07Z</time>
      </trkpt>
      <trkpt lat="49.44034" lon="-1.36338">
        <ele>9</ele>
        <time>2022-01-27T16:05:10Z</time>
      </trkpt>
      <trkpt lat="49.44035" lon="-1.36346">
        <ele>9</ele>
        <time>2022-01-27T16:05:14Z</time>
      </trkpt>
      <trkpt lat="49.44037" lon="-1.36354">
        <ele>8.9</ele>
        <time>2022-01-27T16:05:17Z</time>
      </trkpt>
      <trkpt lat="49.44038" lon="-1.36362">
        <ele>8.9</ele>
        <time>2022-01-27T16:05:20Z</time>
      </trkpt>
      <trkpt lat="49.44039" lon="-1.36369">
        <ele>9</ele>
        <time>2022-01-27T16:05:23Z</time>
      </trkpt>
      <trkpt lat="49.4404" lon="-1.36376">
        <ele>9.1</ele>
        <time>2022-01-27T16:05:27Z</time>
      </trkpt>
      <trkpt lat="49.44043" lon="-1.36381">
        <ele>9</ele>
        <time>2022-01-27T16:05:34Z</time>
      </trkpt>
      <trkpt lat="49.44042" lon="-1.3639">
        <ele>9.7</ele>
        <time>2022-01-27T16:06:47Z</time>
      </trkpt>
      <trkpt lat="49.44042" lon="-1.36403">
        <ele>9.6</ele>
        <time>2022-01-27T16:06:51Z</time>
      </trkpt>
      <trkpt lat="49.44043" lon="-1.36412">
        <ele>9.1</ele>
        <time>2022-01-27T16:06:55Z</time>
      </trkpt>
      <trkpt lat="49.44044" lon="-1.3642">
        <ele>8.9</ele>
        <time>2022-01-27T16:06:58Z</time>
      </trkpt>
      <trkpt lat="49.44045" lon="-1.36427">
        <ele>9</ele>
        <time>2022-01-27T16:07:00Z</time>
      </trkpt>
      <trkpt lat="49.44047" lon="-1.36433">
        <ele>9.1</ele>
        <time>2022-01-27T16:07:03Z</time>
      </trkpt>
      <trkpt lat="49.44048" lon="-1.36442">
        <ele>9.2</ele>
        <time>2022-01-27T16:07:06Z</time>
      </trkpt>
      <trkpt lat="49.4405" lon="-1.3645">
        <ele>9.2</ele>
        <time>2022-01-27T16:07:09Z</time>
      </trkpt>
      <trkpt lat="49.44052" lon="-1.36457">
        <ele>9</ele>
        <time>2022-01-27T16:07:13Z</time>
      </trkpt>
      <trkpt lat="49.44055" lon="-1.36463">
        <ele>8.9</ele>
        <time>2022-01-27T16:07:17Z</time>
      </trkpt>
      <trkpt lat="49.44057" lon="-1.36471">
        <ele>9</ele>
        <time>2022-01-27T16:07:22Z</time>
      </trkpt>
      <trkpt lat="49.4406" lon="-1.36478">
        <ele>9.1</ele>
        <time>2022-01-27T16:07:25Z</time>
      </trkpt>
      <trkpt lat="49.44061" lon="-1.36484">
        <ele>9.2</ele>
        <time>2022-01-27T16:07:28Z</time>
      </trkpt>
      <trkpt lat="49.44062" lon="-1.36492">
        <ele>9.9</ele>
        <time>2022-01-27T16:07:32Z</time>
      </trkpt>
      <trkpt lat="49.44064" lon="-1.36499">
        <ele>10.9</ele>
        <time>2022-01-27T16:07:35Z</time>
      </trkpt>
      <trkpt lat="49.44066" lon="-1.36506">
        <ele>12.1</ele>
        <time>2022-01-27T16:07:40Z</time>
      </trkpt>
      <trkpt lat="49.44067" lon="-1.36514">
        <ele>12.5</ele>
        <time>2022-01-27T16:07:44Z</time>
      </trkpt>
      <trkpt lat="49.4407" lon="-1.36521">
        <ele>12.2</ele>
        <time>2022-01-27T16:07:49Z</time>
      </trkpt>
      <trkpt lat="49.44074" lon="-1.36529">
        <ele>12.1</ele>
        <time>2022-01-27T16:07:53Z</time>
      </trkpt>
      <trkpt lat="49.44076" lon="-1.36536">
        <ele>12.7</ele>
        <time>2022-01-27T16:07:57Z</time>
      </trkpt>
      <trkpt lat="49.44079" lon="-1.36541">
        <ele>13.2</ele>
        <time>2022-01-27T16:08:00Z</time>
      </trkpt>
      <trkpt lat="49.44081" lon="-1.36548">
        <ele>13.6</ele>
        <time>2022-01-27T16:08:04Z</time>
      </trkpt>
      <trkpt lat="49.44083" lon="-1.36555">
        <ele>13.8</ele>
        <time>2022-01-27T16:08:07Z</time>
      </trkpt>
      <trkpt lat="49.44085" lon="-1.36561">
        <ele>14.1</ele>
        <time>2022-01-27T16:08:11Z</time>
      </trkpt>
      <trkpt lat="49.44089" lon="-1.36567">
        <ele>14.1</ele>
        <time>2022-01-27T16:08:15Z</time>
      </trkpt>
      <trkpt lat="49.44093" lon="-1.36573">
        <ele>13.6</ele>
        <time>2022-01-27T16:08:20Z</time>
      </trkpt>
      <trkpt lat="49.44097" lon="-1.36579">
        <ele>13.4</ele>
        <time>2022-01-27T16:08:24Z</time>
      </trkpt>
      <trkpt lat="49.441" lon="-1.36586">
        <ele>13.8</ele>
        <time>2022-01-27T16:08:29Z</time>
      </trkpt>
      <trkpt lat="49.44102" lon="-1.36593">
        <ele>14.3</ele>
        <time>2022-01-27T16:08:32Z</time>
      </trkpt>
      <trkpt lat="49.44105" lon="-1.36599">
        <ele>14.6</ele>
        <time>2022-01-27T16:08:35Z</time>
      </trkpt>
      <trkpt lat="49.44108" lon="-1.36607">
        <ele>14.7</ele>
        <time>2022-01-27T16:08:39Z</time>
      </trkpt>
      <trkpt lat="49.44112" lon="-1.36613">
        <ele>14.9</ele>
        <time>2022-01-27T16:08:44Z</time>
      </trkpt>
      <trkpt lat="49.44115" lon="-1.36619">
        <ele>15.4</ele>
        <time>2022-01-27T16:08:47Z</time>
      </trkpt>
      <trkpt lat="49.44118" lon="-1.36625">
        <ele>16.1</ele>
        <time>2022-01-27T16:08:50Z</time>
      </trkpt>
      <trkpt lat="49.4412" lon="-1.36633">
        <ele>16.8</ele>
        <time>2022-01-27T16:08:54Z</time>
      </trkpt>
      <trkpt lat="49.44123" lon="-1.3664">
        <ele>17.4</ele>
        <time>2022-01-27T16:08:58Z</time>
      </trkpt>
      <trkpt lat="49.44126" lon="-1.36648">
        <ele>17.7</ele>
        <time>2022-01-27T16:09:02Z</time>
      </trkpt>
      <trkpt lat="49.44129" lon="-1.36654">
        <ele>17.8</ele>
        <time>2022-01-27T16:09:06Z</time>
      </trkpt>
      <trkpt lat="49.44132" lon="-1.3666">
        <ele>17.8</ele>
        <time>2022-01-27T16:09:08Z</time>
      </trkpt>
      <trkpt lat="49.44134" lon="-1.36666">
        <ele>18.2</ele>
        <time>2022-01-27T16:09:12Z</time>
      </trkpt>
      <trkpt lat="49.44138" lon="-1.36672">
        <ele>18.3</ele>
        <time>2022-01-27T16:09:16Z</time>
      </trkpt>
      <trkpt lat="49.44141" lon="-1.36677">
        <ele>18.3</ele>
        <time>2022-01-27T16:09:20Z</time>
      </trkpt>
      <trkpt lat="49.44144" lon="-1.36683">
        <ele>18.1</ele>
        <time>2022-01-27T16:09:23Z</time>
      </trkpt>
      <trkpt lat="49.44146" lon="-1.36689">
        <ele>18.1</ele>
        <time>2022-01-27T16:09:26Z</time>
      </trkpt>
      <trkpt lat="49.44149" lon="-1.36696">
        <ele>18.1</ele>
        <time>2022-01-27T16:09:30Z</time>
      </trkpt>
      <trkpt lat="49.4415" lon="-1.36703">
        <ele>18.1</ele>
        <time>2022-01-27T16:09:34Z</time>
      </trkpt>
      <trkpt lat="49.44154" lon="-1.3671">
        <ele>17.9</ele>
        <time>2022-01-27T16:09:39Z</time>
      </trkpt>
      <trkpt lat="49.44157" lon="-1.36716">
        <ele>18</ele>
        <time>2022-01-27T16:09:42Z</time>
      </trkpt>
      <trkpt lat="49.4416" lon="-1.36722">
        <ele>18</ele>
        <time>2022-01-27T16:09:45Z</time>
      </trkpt>
      <trkpt lat="49.44163" lon="-1.36729">
        <ele>18.1</ele>
        <time>2022-01-27T16:09:50Z</time>
      </trkpt>
      <trkpt lat="49.44167" lon="-1.36735">
        <ele>18.3</ele>
        <time>2022-01-27T16:09:55Z</time>
      </trkpt>
      <trkpt lat="49.4417" lon="-1.36742">
        <ele>18.6</ele>
        <time>2022-01-27T16:09:59Z</time>
      </trkpt>
      <trkpt lat="49.44174" lon="-1.36748">
        <ele>18.8</ele>
        <time>2022-01-27T16:10:03Z</time>
      </trkpt>
      <trkpt lat="49.44178" lon="-1.36753">
        <ele>18.5</ele>
        <time>2022-01-27T16:10:07Z</time>
      </trkpt>
      <trkpt lat="49.44181" lon="-1.3676">
        <ele>18.3</ele>
        <time>2022-01-27T16:10:10Z</time>
      </trkpt>
      <trkpt lat="49.44184" lon="-1.36769">
        <ele>18.3</ele>
        <time>2022-01-27T16:10:15Z</time>
      </trkpt>
      <trkpt lat="49.44188" lon="-1.36777">
        <ele>18.5</ele>
        <time>2022-01-27T16:10:20Z</time>
      </trkpt>
      <trkpt lat="49.44191" lon="-1.36783">
        <ele>19</ele>
        <time>2022-01-27T16:10:23Z</time>
      </trkpt>
      <trkpt lat="49.44194" lon="-1.3679">
        <ele>19.7</ele>
        <time>2022-01-27T16:10:27Z</time>
      </trkpt>
      <trkpt lat="49.44196" lon="-1.36796">
        <ele>20.1</ele>
        <time>2022-01-27T16:10:31Z</time>
      </trkpt>
      <trkpt lat="49.44199" lon="-1.36803">
        <ele>20.3</ele>
        <time>2022-01-27T16:10:35Z</time>
      </trkpt>
      <trkpt lat="49.44202" lon="-1.3681">
        <ele>20.8</ele>
        <time>2022-01-27T16:10:39Z</time>
      </trkpt>
      <trkpt lat="49.44206" lon="-1.36813">
        <ele>22.1</ele>
        <time>2022-01-27T16:10:58Z</time>
      </trkpt>
      <trkpt lat="49.44208" lon="-1.3682">
        <ele>22.2</ele>
        <time>2022-01-27T16:11:02Z</time>
      </trkpt>
      <trkpt lat="49.4421" lon="-1.36828">
        <ele>22.4</ele>
        <time>2022-01-27T16:11:05Z</time>
      </trkpt>
      <trkpt lat="49.44213" lon="-1.36834">
        <ele>22.8</ele>
        <time>2022-01-27T16:11:09Z</time>
      </trkpt>
      <trkpt lat="49.44218" lon="-1.36838">
        <ele>23.5</ele>
        <time>2022-01-27T16:11:14Z</time>
      </trkpt>
      <trkpt lat="49.44221" lon="-1.36845">
        <ele>24.1</ele>
        <time>2022-01-27T16:11:17Z</time>
      </trkpt>
      <trkpt lat="49.44222" lon="-1.36853">
        <ele>24.8</ele>
        <time>2022-01-27T16:11:21Z</time>
      </trkpt>
      <trkpt lat="49.44226" lon="-1.36859">
        <ele>25.3</ele>
        <time>2022-01-27T16:11:24Z</time>
      </trkpt>
      <trkpt lat="49.44229" lon="-1.36866">
        <ele>25.6</ele>
        <time>2022-01-27T16:11:28Z</time>
      </trkpt>
      <trkpt lat="49.44233" lon="-1.36872">
        <ele>25.7</ele>
        <time>2022-01-27T16:11:31Z</time>
      </trkpt>
      <trkpt lat="49.44236" lon="-1.36878">
        <ele>25.8</ele>
        <time>2022-01-27T16:11:35Z</time>
      </trkpt>
      <trkpt lat="49.44237" lon="-1.36885">
        <ele>25.9</ele>
        <time>2022-01-27T16:11:38Z</time>
      </trkpt>
      <trkpt lat="49.44237" lon="-1.36894">
        <ele>26.2</ele>
        <time>2022-01-27T16:11:42Z</time>
      </trkpt>
      <trkpt lat="49.44235" lon="-1.36902">
        <ele>26.6</ele>
        <time>2022-01-27T16:11:47Z</time>
      </trkpt>
      <trkpt lat="49.44231" lon="-1.36907">
        <ele>27</ele>
        <time>2022-01-27T16:11:51Z</time>
      </trkpt>
      <trkpt lat="49.44228" lon="-1.36915">
        <ele>27.4</ele>
        <time>2022-01-27T16:11:56Z</time>
      </trkpt>
      <trkpt lat="49.44224" lon="-1.36922">
        <ele>27.8</ele>
        <time>2022-01-27T16:12:00Z</time>
      </trkpt>
      <trkpt lat="49.4422" lon="-1.36927">
        <ele>28.2</ele>
        <time>2022-01-27T16:12:03Z</time>
      </trkpt>
      <trkpt lat="49.44216" lon="-1.36934">
        <ele>28.8</ele>
        <time>2022-01-27T16:12:08Z</time>
      </trkpt>
      <trkpt lat="49.44213" lon="-1.3694">
        <ele>29.2</ele>
        <time>2022-01-27T16:12:12Z</time>
      </trkpt>
      <trkpt lat="49.4421" lon="-1.36945">
        <ele>29.6</ele>
        <time>2022-01-27T16:12:15Z</time>
      </trkpt>
      <trkpt lat="49.44207" lon="-1.36951">
        <ele>29.8</ele>
        <time>2022-01-27T16:12:18Z</time>
      </trkpt>
      <trkpt lat="49.44204" lon="-1.36957">
        <ele>29.9</ele>
        <time>2022-01-27T16:12:22Z</time>
      </trkpt>
      <trkpt lat="49.44201" lon="-1.36962">
        <ele>29.9</ele>
        <time>2022-01-27T16:12:25Z</time>
      </trkpt>
      <trkpt lat="49.44197" lon="-1.36968">
        <ele>29.9</ele>
        <time>2022-01-27T16:12:28Z</time>
      </trkpt>
      <trkpt lat="49.44194" lon="-1.36974">
        <ele>30</ele>
        <time>2022-01-27T16:12:32Z</time>
      </trkpt>
      <trkpt lat="49.44191" lon="-1.3698">
        <ele>30</ele>
        <time>2022-01-27T16:12:35Z</time>
      </trkpt>
      <trkpt lat="49.44189" lon="-1.36986">
        <ele>29.9</ele>
        <time>2022-01-27T16:12:38Z</time>
      </trkpt>
      <trkpt lat="49.44184" lon="-1.36986">
        <ele>29.1</ele>
        <time>2022-01-27T16:12:45Z</time>
      </trkpt>
      <trkpt lat="49.44179" lon="-1.3699">
        <ele>28.8</ele>
        <time>2022-01-27T16:12:49Z</time>
      </trkpt>
      <trkpt lat="49.44174" lon="-1.36993">
        <ele>28.5</ele>
        <time>2022-01-27T16:12:54Z</time>
      </trkpt>
      <trkpt lat="49.4417" lon="-1.36997">
        <ele>28.5</ele>
        <time>2022-01-27T16:12:57Z</time>
      </trkpt>
      <trkpt lat="49.44167" lon="-1.37004">
        <ele>28.7</ele>
        <time>2022-01-27T16:13:01Z</time>
      </trkpt>
      <trkpt lat="49.44167" lon="-1.37012">
        <ele>28.8</ele>
        <time>2022-01-27T16:13:03Z</time>
      </trkpt>
      <trkpt lat="49.44168" lon="-1.3702">
        <ele>28.7</ele>
        <time>2022-01-27T16:13:05Z</time>
      </trkpt>
      <trkpt lat="49.44168" lon="-1.37028">
        <ele>28.6</ele>
        <time>2022-01-27T16:13:07Z</time>
      </trkpt>
      <trkpt lat="49.44166" lon="-1.37035">
        <ele>28.4</ele>
        <time>2022-01-27T16:13:09Z</time>
      </trkpt>
      <trkpt lat="49.44163" lon="-1.37044">
        <ele>28</ele>
        <time>2022-01-27T16:13:13Z</time>
      </trkpt>
      <trkpt lat="49.4416" lon="-1.37051">
        <ele>27.8</ele>
        <time>2022-01-27T16:13:16Z</time>
      </trkpt>
      <trkpt lat="49.44158" lon="-1.37058">
        <ele>27.5</ele>
        <time>2022-01-27T16:13:19Z</time>
      </trkpt>
      <trkpt lat="49.44155" lon="-1.37065">
        <ele>27.2</ele>
        <time>2022-01-27T16:13:23Z</time>
      </trkpt>
      <trkpt lat="49.44152" lon="-1.3707">
        <ele>26.9</ele>
        <time>2022-01-27T16:13:26Z</time>
      </trkpt>
      <trkpt lat="49.4415" lon="-1.37076">
        <ele>26.8</ele>
        <time>2022-01-27T16:13:29Z</time>
      </trkpt>
      <trkpt lat="49.44147" lon="-1.37082">
        <ele>26.8</ele>
        <time>2022-01-27T16:13:33Z</time>
      </trkpt>
      <trkpt lat="49.44145" lon="-1.37089">
        <ele>26.9</ele>
        <time>2022-01-27T16:13:36Z</time>
      </trkpt>
      <trkpt lat="49.44142" lon="-1.37095">
        <ele>27.1</ele>
        <time>2022-01-27T16:13:39Z</time>
      </trkpt>
      <trkpt lat="49.4414" lon="-1.37102">
        <ele>27.9</ele>
        <time>2022-01-27T16:13:45Z</time>
      </trkpt>
      <trkpt lat="49.44136" lon="-1.37109">
        <ele>28.3</ele>
        <time>2022-01-27T16:13:49Z</time>
      </trkpt>
      <trkpt lat="49.44134" lon="-1.37116">
        <ele>27.9</ele>
        <time>2022-01-27T16:13:53Z</time>
      </trkpt>
      <trkpt lat="49.44131" lon="-1.37124">
        <ele>27.4</ele>
        <time>2022-01-27T16:13:57Z</time>
      </trkpt>
      <trkpt lat="49.44129" lon="-1.37131">
        <ele>27.2</ele>
        <time>2022-01-27T16:14:01Z</time>
      </trkpt>
      <trkpt lat="49.44127" lon="-1.37139">
        <ele>27.3</ele>
        <time>2022-01-27T16:14:05Z</time>
      </trkpt>
      <trkpt lat="49.44124" lon="-1.37145">
        <ele>27.9</ele>
        <time>2022-01-27T16:14:08Z</time>
      </trkpt>
      <trkpt lat="49.44121" lon="-1.37152">
        <ele>28.6</ele>
        <time>2022-01-27T16:14:12Z</time>
      </trkpt>
      <trkpt lat="49.44118" lon="-1.37159">
        <ele>28.8</ele>
        <time>2022-01-27T16:14:16Z</time>
      </trkpt>
      <trkpt lat="49.44114" lon="-1.37166">
        <ele>28.7</ele>
        <time>2022-01-27T16:14:20Z</time>
      </trkpt>
      <trkpt lat="49.44112" lon="-1.37174">
        <ele>28.5</ele>
        <time>2022-01-27T16:14:24Z</time>
      </trkpt>
      <trkpt lat="49.4411" lon="-1.3718">
        <ele>28.4</ele>
        <time>2022-01-27T16:14:27Z</time>
      </trkpt>
      <trkpt lat="49.44107" lon="-1.37186">
        <ele>28.2</ele>
        <time>2022-01-27T16:14:30Z</time>
      </trkpt>
      <trkpt lat="49.44104" lon="-1.37192">
        <ele>28</ele>
        <time>2022-01-27T16:14:34Z</time>
      </trkpt>
      <trkpt lat="49.44101" lon="-1.37198">
        <ele>28</ele>
        <time>2022-01-27T16:14:37Z</time>
      </trkpt>
      <trkpt lat="49.44099" lon="-1.37205">
        <ele>28</ele>
        <time>2022-01-27T16:14:40Z</time>
      </trkpt>
      <trkpt lat="49.44096" lon="-1.37213">
        <ele>27.8</ele>
        <time>2022-01-27T16:14:44Z</time>
      </trkpt>
      <trkpt lat="49.44093" lon="-1.37219">
        <ele>27.6</ele>
        <time>2022-01-27T16:14:48Z</time>
      </trkpt>
      <trkpt lat="49.4409" lon="-1.37227">
        <ele>27.6</ele>
        <time>2022-01-27T16:14:52Z</time>
      </trkpt>
      <trkpt lat="49.44087" lon="-1.37232">
        <ele>27.7</ele>
        <time>2022-01-27T16:14:56Z</time>
      </trkpt>
      <trkpt lat="49.44084" lon="-1.37238">
        <ele>28.1</ele>
        <time>2022-01-27T16:14:59Z</time>
      </trkpt>
      <trkpt lat="49.44081" lon="-1.37244">
        <ele>28.5</ele>
        <time>2022-01-27T16:15:02Z</time>
      </trkpt>
      <trkpt lat="49.44078" lon="-1.37251">
        <ele>28.6</ele>
        <time>2022-01-27T16:15:06Z</time>
      </trkpt>
      <trkpt lat="49.44075" lon="-1.37259">
        <ele>28.4</ele>
        <time>2022-01-27T16:15:10Z</time>
      </trkpt>
      <trkpt lat="49.44073" lon="-1.37265">
        <ele>27.9</ele>
        <time>2022-01-27T16:15:17Z</time>
      </trkpt>
      <trkpt lat="49.4407" lon="-1.37271">
        <ele>27.4</ele>
        <time>2022-01-27T16:15:21Z</time>
      </trkpt>
      <trkpt lat="49.44067" lon="-1.37277">
        <ele>27</ele>
        <time>2022-01-27T16:15:24Z</time>
      </trkpt>
      <trkpt lat="49.44064" lon="-1.37284">
        <ele>26.7</ele>
        <time>2022-01-27T16:15:27Z</time>
      </trkpt>
      <trkpt lat="49.44061" lon="-1.37292">
        <ele>26.4</ele>
        <time>2022-01-27T16:15:31Z</time>
      </trkpt>
      <trkpt lat="49.44057" lon="-1.37297">
        <ele>26.2</ele>
        <time>2022-01-27T16:15:34Z</time>
      </trkpt>
      <trkpt lat="49.44054" lon="-1.37303">
        <ele>26.1</ele>
        <time>2022-01-27T16:15:38Z</time>
      </trkpt>
      <trkpt lat="49.44051" lon="-1.37309">
        <ele>25.9</ele>
        <time>2022-01-27T16:15:41Z</time>
      </trkpt>
      <trkpt lat="49.44048" lon="-1.37316">
        <ele>25.5</ele>
        <time>2022-01-27T16:15:45Z</time>
      </trkpt>
      <trkpt lat="49.44045" lon="-1.37322">
        <ele>25.1</ele>
        <time>2022-01-27T16:15:48Z</time>
      </trkpt>
      <trkpt lat="49.44042" lon="-1.37328">
        <ele>25</ele>
        <time>2022-01-27T16:15:51Z</time>
      </trkpt>
      <trkpt lat="49.4404" lon="-1.37335">
        <ele>24.7</ele>
        <time>2022-01-27T16:15:56Z</time>
      </trkpt>
      <trkpt lat="49.44037" lon="-1.37342">
        <ele>24.7</ele>
        <time>2022-01-27T16:15:59Z</time>
      </trkpt>
      <trkpt lat="49.44034" lon="-1.37348">
        <ele>24.6</ele>
        <time>2022-01-27T16:16:02Z</time>
      </trkpt>
      <trkpt lat="49.44031" lon="-1.37353">
        <ele>24.7</ele>
        <time>2022-01-27T16:16:06Z</time>
      </trkpt>
      <trkpt lat="49.44028" lon="-1.3736">
        <ele>24.8</ele>
        <time>2022-01-27T16:16:09Z</time>
      </trkpt>
      <trkpt lat="49.44025" lon="-1.37365">
        <ele>24.9</ele>
        <time>2022-01-27T16:16:12Z</time>
      </trkpt>
      <trkpt lat="49.44022" lon="-1.3737">
        <ele>24.9</ele>
        <time>2022-01-27T16:16:16Z</time>
      </trkpt>
      <trkpt lat="49.44018" lon="-1.37376">
        <ele>24.7</ele>
        <time>2022-01-27T16:16:20Z</time>
      </trkpt>
      <trkpt lat="49.44013" lon="-1.37382">
        <ele>24.4</ele>
        <time>2022-01-27T16:16:25Z</time>
      </trkpt>
      <trkpt lat="49.4401" lon="-1.37388">
        <ele>24.1</ele>
        <time>2022-01-27T16:16:29Z</time>
      </trkpt>
      <trkpt lat="49.44005" lon="-1.37393">
        <ele>24</ele>
        <time>2022-01-27T16:16:34Z</time>
      </trkpt>
      <trkpt lat="49.44001" lon="-1.37399">
        <ele>23.7</ele>
        <time>2022-01-27T16:16:47Z</time>
      </trkpt>
      <trkpt lat="49.43997" lon="-1.37406">
        <ele>23.4</ele>
        <time>2022-01-27T16:16:51Z</time>
      </trkpt>
      <trkpt lat="49.43993" lon="-1.37411">
        <ele>23.1</ele>
        <time>2022-01-27T16:16:54Z</time>
      </trkpt>
      <trkpt lat="49.43989" lon="-1.37415">
        <ele>22.9</ele>
        <time>2022-01-27T16:16:57Z</time>
      </trkpt>
      <trkpt lat="49.43985" lon="-1.37419">
        <ele>22.6</ele>
        <time>2022-01-27T16:17:00Z</time>
      </trkpt>
      <trkpt lat="49.43981" lon="-1.37424">
        <ele>22.4</ele>
        <time>2022-01-27T16:17:04Z</time>
      </trkpt>
      <trkpt lat="49.43976" lon="-1.37428">
        <ele>22.3</ele>
        <time>2022-01-27T16:17:08Z</time>
      </trkpt>
      <trkpt lat="49.43972" lon="-1.37435">
        <ele>22.2</ele>
        <time>2022-01-27T16:17:21Z</time>
      </trkpt>
      <trkpt lat="49.43966" lon="-1.37439">
        <ele>22</ele>
        <time>2022-01-27T16:17:24Z</time>
      </trkpt>
      <trkpt lat="49.43961" lon="-1.37442">
        <ele>21.9</ele>
        <time>2022-01-27T16:17:27Z</time>
      </trkpt>
      <trkpt lat="49.43956" lon="-1.37445">
        <ele>21.7</ele>
        <time>2022-01-27T16:17:31Z</time>
      </trkpt>
      <trkpt lat="49.43951" lon="-1.37447">
        <ele>21.5</ele>
        <time>2022-01-27T16:17:34Z</time>
      </trkpt>
      <trkpt lat="49.43946" lon="-1.37449">
        <ele>21.2</ele>
        <time>2022-01-27T16:17:38Z</time>
      </trkpt>
      <trkpt lat="49.43941" lon="-1.37451">
        <ele>20.9</ele>
        <time>2022-01-27T16:17:41Z</time>
      </trkpt>
      <trkpt lat="49.43935" lon="-1.37451">
        <ele>20.5</ele>
        <time>2022-01-27T16:17:45Z</time>
      </trkpt>
      <trkpt lat="49.4393" lon="-1.37452">
        <ele>20.3</ele>
        <time>2022-01-27T16:17:48Z</time>
      </trkpt>
      <trkpt lat="49.43925" lon="-1.37452">
        <ele>20</ele>
        <time>2022-01-27T16:17:52Z</time>
      </trkpt>
      <trkpt lat="49.43919" lon="-1.3745">
        <ele>19.8</ele>
        <time>2022-01-27T16:17:55Z</time>
      </trkpt>
      <trkpt lat="49.43914" lon="-1.37449">
        <ele>19.6</ele>
        <time>2022-01-27T16:17:58Z</time>
      </trkpt>
      <trkpt lat="49.43908" lon="-1.37446">
        <ele>19.4</ele>
        <time>2022-01-27T16:18:02Z</time>
      </trkpt>
      <trkpt lat="49.43904" lon="-1.37445">
        <ele>18.6</ele>
        <time>2022-01-27T16:18:06Z</time>
      </trkpt>
      <trkpt lat="49.43899" lon="-1.37447">
        <ele>17.5</ele>
        <time>2022-01-27T16:18:11Z</time>
      </trkpt>
      <trkpt lat="49.43894" lon="-1.37451">
        <ele>17.1</ele>
        <time>2022-01-27T16:18:14Z</time>
      </trkpt>
      <trkpt lat="49.43889" lon="-1.37456">
        <ele>17.1</ele>
        <time>2022-01-27T16:18:17Z</time>
      </trkpt>
      <trkpt lat="49.43883" lon="-1.3746">
        <ele>17.7</ele>
        <time>2022-01-27T16:18:20Z</time>
      </trkpt>
      <trkpt lat="49.43878" lon="-1.37465">
        <ele>18.2</ele>
        <time>2022-01-27T16:18:23Z</time>
      </trkpt>
      <trkpt lat="49.43874" lon="-1.37469">
        <ele>18.6</ele>
        <time>2022-01-27T16:18:26Z</time>
      </trkpt>
      <trkpt lat="49.43869" lon="-1.37476">
        <ele>18.6</ele>
        <time>2022-01-27T16:18:30Z</time>
      </trkpt>
      <trkpt lat="49.43866" lon="-1.37482">
        <ele>18.7</ele>
        <time>2022-01-27T16:18:33Z</time>
      </trkpt>
      <trkpt lat="49.43862" lon="-1.37488">
        <ele>18.6</ele>
        <time>2022-01-27T16:18:37Z</time>
      </trkpt>
      <trkpt lat="49.43858" lon="-1.37494">
        <ele>18.4</ele>
        <time>2022-01-27T16:18:40Z</time>
      </trkpt>
      <trkpt lat="49.43855" lon="-1.375">
        <ele>18.3</ele>
        <time>2022-01-27T16:18:44Z</time>
      </trkpt>
      <trkpt lat="49.43851" lon="-1.37506">
        <ele>18.2</ele>
        <time>2022-01-27T16:18:47Z</time>
      </trkpt>
      <trkpt lat="49.43847" lon="-1.37512">
        <ele>18.1</ele>
        <time>2022-01-27T16:18:51Z</time>
      </trkpt>
      <trkpt lat="49.43844" lon="-1.37519">
        <ele>17.6</ele>
        <time>2022-01-27T16:18:55Z</time>
      </trkpt>
      <trkpt lat="49.4384" lon="-1.37524">
        <ele>17.1</ele>
        <time>2022-01-27T16:18:59Z</time>
      </trkpt>
      <trkpt lat="49.43837" lon="-1.37529">
        <ele>16.6</ele>
        <time>2022-01-27T16:19:03Z</time>
      </trkpt>
      <trkpt lat="49.43833" lon="-1.37535">
        <ele>16.2</ele>
        <time>2022-01-27T16:19:08Z</time>
      </trkpt>
      <trkpt lat="49.43828" lon="-1.37539">
        <ele>15.9</ele>
        <time>2022-01-27T16:19:12Z</time>
      </trkpt>
      <trkpt lat="49.43823" lon="-1.37546">
        <ele>15.6</ele>
        <time>2022-01-27T16:19:17Z</time>
      </trkpt>
      <trkpt lat="49.4382" lon="-1.37552">
        <ele>15.6</ele>
        <time>2022-01-27T16:19:20Z</time>
      </trkpt>
      <trkpt lat="49.43817" lon="-1.37558">
        <ele>15.5</ele>
        <time>2022-01-27T16:19:24Z</time>
      </trkpt>
      <trkpt lat="49.43814" lon="-1.37566">
        <ele>15.2</ele>
        <time>2022-01-27T16:19:27Z</time>
      </trkpt>
      <trkpt lat="49.43811" lon="-1.37572">
        <ele>14.8</ele>
        <time>2022-01-27T16:19:31Z</time>
      </trkpt>
      <trkpt lat="49.43807" lon="-1.37578">
        <ele>14.6</ele>
        <time>2022-01-27T16:19:35Z</time>
      </trkpt>
      <trkpt lat="49.43804" lon="-1.37582">
        <ele>14.5</ele>
        <time>2022-01-27T16:19:38Z</time>
      </trkpt>
      <trkpt lat="49.438" lon="-1.37586">
        <ele>14.4</ele>
        <time>2022-01-27T16:19:41Z</time>
      </trkpt>
      <trkpt lat="49.43796" lon="-1.37591">
        <ele>14.4</ele>
        <time>2022-01-27T16:19:44Z</time>
      </trkpt>
      <trkpt lat="49.43792" lon="-1.37597">
        <ele>14.3</ele>
        <time>2022-01-27T16:19:47Z</time>
      </trkpt>
      <trkpt lat="49.43788" lon="-1.37602">
        <ele>14.3</ele>
        <time>2022-01-27T16:19:51Z</time>
      </trkpt>
      <trkpt lat="49.43784" lon="-1.37607">
        <ele>14</ele>
        <time>2022-01-27T16:19:54Z</time>
      </trkpt>
      <trkpt lat="49.43781" lon="-1.37612">
        <ele>13.9</ele>
        <time>2022-01-27T16:19:57Z</time>
      </trkpt>
      <trkpt lat="49.43777" lon="-1.37618">
        <ele>13.9</ele>
        <time>2022-01-27T16:20:01Z</time>
      </trkpt>
      <trkpt lat="49.43772" lon="-1.3762">
        <ele>13.9</ele>
        <time>2022-01-27T16:20:06Z</time>
      </trkpt>
      <trkpt lat="49.43768" lon="-1.37625">
        <ele>13.8</ele>
        <time>2022-01-27T16:20:10Z</time>
      </trkpt>
      <trkpt lat="49.43763" lon="-1.3763">
        <ele>13.9</ele>
        <time>2022-01-27T16:20:15Z</time>
      </trkpt>
      <trkpt lat="49.43759" lon="-1.37636">
        <ele>13.8</ele>
        <time>2022-01-27T16:20:19Z</time>
      </trkpt>
      <trkpt lat="49.43754" lon="-1.37641">
        <ele>13.6</ele>
        <time>2022-01-27T16:20:23Z</time>
      </trkpt>
      <trkpt lat="49.43751" lon="-1.37646">
        <ele>13.5</ele>
        <time>2022-01-27T16:20:27Z</time>
      </trkpt>
      <trkpt lat="49.43746" lon="-1.37651">
        <ele>13.6</ele>
        <time>2022-01-27T16:20:30Z</time>
      </trkpt>
      <trkpt lat="49.43743" lon="-1.37657">
        <ele>13.5</ele>
        <time>2022-01-27T16:20:35Z</time>
      </trkpt>
      <trkpt lat="49.43739" lon="-1.37662">
        <ele>12.9</ele>
        <time>2022-01-27T16:20:39Z</time>
      </trkpt>
      <trkpt lat="49.43735" lon="-1.37666">
        <ele>12.6</ele>
        <time>2022-01-27T16:20:42Z</time>
      </trkpt>
      <trkpt lat="49.4373" lon="-1.37672">
        <ele>12.4</ele>
        <time>2022-01-27T16:20:46Z</time>
      </trkpt>
      <trkpt lat="49.43727" lon="-1.37677">
        <ele>12.4</ele>
        <time>2022-01-27T16:20:50Z</time>
      </trkpt>
      <trkpt lat="49.43723" lon="-1.37683">
        <ele>12.2</ele>
        <time>2022-01-27T16:20:53Z</time>
      </trkpt>
      <trkpt lat="49.43719" lon="-1.37688">
        <ele>12.1</ele>
        <time>2022-01-27T16:20:57Z</time>
      </trkpt>
      <trkpt lat="49.43715" lon="-1.37693">
        <ele>12</ele>
        <time>2022-01-27T16:21:01Z</time>
      </trkpt>
      <trkpt lat="49.43711" lon="-1.37699">
        <ele>12</ele>
        <time>2022-01-27T16:21:04Z</time>
      </trkpt>
      <trkpt lat="49.43708" lon="-1.37704">
        <ele>11.7</ele>
        <time>2022-01-27T16:21:07Z</time>
      </trkpt>
      <trkpt lat="49.43705" lon="-1.37711">
        <ele>11.4</ele>
        <time>2022-01-27T16:21:11Z</time>
      </trkpt>
      <trkpt lat="49.43702" lon="-1.37719">
        <ele>11.2</ele>
        <time>2022-01-27T16:21:15Z</time>
      </trkpt>
      <trkpt lat="49.43699" lon="-1.37725">
        <ele>11.1</ele>
        <time>2022-01-27T16:21:18Z</time>
      </trkpt>
      <trkpt lat="49.43695" lon="-1.37731">
        <ele>11</ele>
        <time>2022-01-27T16:21:22Z</time>
      </trkpt>
      <trkpt lat="49.43692" lon="-1.37736">
        <ele>10.6</ele>
        <time>2022-01-27T16:21:25Z</time>
      </trkpt>
      <trkpt lat="49.43688" lon="-1.37741">
        <ele>10.1</ele>
        <time>2022-01-27T16:21:29Z</time>
      </trkpt>
      <trkpt lat="49.43683" lon="-1.37747">
        <ele>9.6</ele>
        <time>2022-01-27T16:21:33Z</time>
      </trkpt>
      <trkpt lat="49.4368" lon="-1.37753">
        <ele>9.5</ele>
        <time>2022-01-27T16:21:36Z</time>
      </trkpt>
      <trkpt lat="49.43677" lon="-1.3776">
        <ele>9.4</ele>
        <time>2022-01-27T16:21:40Z</time>
      </trkpt>
      <trkpt lat="49.43674" lon="-1.37767">
        <ele>9.5</ele>
        <time>2022-01-27T16:21:44Z</time>
      </trkpt>
      <trkpt lat="49.4367" lon="-1.37773">
        <ele>9.8</ele>
        <time>2022-01-27T16:21:48Z</time>
      </trkpt>
      <trkpt lat="49.43667" lon="-1.37779">
        <ele>10</ele>
        <time>2022-01-27T16:21:51Z</time>
      </trkpt>
      <trkpt lat="49.43664" lon="-1.37784">
        <ele>10</ele>
        <time>2022-01-27T16:21:54Z</time>
      </trkpt>
      <trkpt lat="49.4366" lon="-1.37791">
        <ele>9.9</ele>
        <time>2022-01-27T16:21:58Z</time>
      </trkpt>
      <trkpt lat="49.43657" lon="-1.37797">
        <ele>9.8</ele>
        <time>2022-01-27T16:22:01Z</time>
      </trkpt>
      <trkpt lat="49.43654" lon="-1.37802">
        <ele>9.7</ele>
        <time>2022-01-27T16:22:04Z</time>
      </trkpt>
      <trkpt lat="49.43651" lon="-1.37808">
        <ele>9.6</ele>
        <time>2022-01-27T16:22:08Z</time>
      </trkpt>
      <trkpt lat="49.43648" lon="-1.37815">
        <ele>9.4</ele>
        <time>2022-01-27T16:22:11Z</time>
      </trkpt>
      <trkpt lat="49.43644" lon="-1.37821">
        <ele>9.3</ele>
        <time>2022-01-27T16:22:15Z</time>
      </trkpt>
      <trkpt lat="49.43641" lon="-1.37827">
        <ele>9.1</ele>
        <time>2022-01-27T16:22:18Z</time>
      </trkpt>
      <trkpt lat="49.43638" lon="-1.37832">
        <ele>8.9</ele>
        <time>2022-01-27T16:22:22Z</time>
      </trkpt>
      <trkpt lat="49.43635" lon="-1.37838">
        <ele>8.8</ele>
        <time>2022-01-27T16:22:25Z</time>
      </trkpt>
      <trkpt lat="49.43632" lon="-1.37844">
        <ele>8.7</ele>
        <time>2022-01-27T16:22:28Z</time>
      </trkpt>
      <trkpt lat="49.43629" lon="-1.3785">
        <ele>8.7</ele>
        <time>2022-01-27T16:22:33Z</time>
      </trkpt>
      <trkpt lat="49.43625" lon="-1.37855">
        <ele>8.6</ele>
        <time>2022-01-27T16:22:36Z</time>
      </trkpt>
      <trkpt lat="49.43622" lon="-1.37861">
        <ele>8.5</ele>
        <time>2022-01-27T16:22:39Z</time>
      </trkpt>
      <trkpt lat="49.43619" lon="-1.37867">
        <ele>8.3</ele>
        <time>2022-01-27T16:22:43Z</time>
      </trkpt>
      <trkpt lat="49.43615" lon="-1.37873">
        <ele>8</ele>
        <time>2022-01-27T16:22:46Z</time>
      </trkpt>
      <trkpt lat="49.43612" lon="-1.37878">
        <ele>7.6</ele>
        <time>2022-01-27T16:22:49Z</time>
      </trkpt>
      <trkpt lat="49.43609" lon="-1.37884">
        <ele>7.5</ele>
        <time>2022-01-27T16:22:53Z</time>
      </trkpt>
      <trkpt lat="49.43606" lon="-1.3789">
        <ele>7.3</ele>
        <time>2022-01-27T16:22:56Z</time>
      </trkpt>
      <trkpt lat="49.43603" lon="-1.37895">
        <ele>7.2</ele>
        <time>2022-01-27T16:23:00Z</time>
      </trkpt>
      <trkpt lat="49.436" lon="-1.37901">
        <ele>7.2</ele>
        <time>2022-01-27T16:23:03Z</time>
      </trkpt>
      <trkpt lat="49.43596" lon="-1.37907">
        <ele>7.3</ele>
        <time>2022-01-27T16:23:07Z</time>
      </trkpt>
      <trkpt lat="49.43592" lon="-1.37914">
        <ele>7.3</ele>
        <time>2022-01-27T16:23:11Z</time>
      </trkpt>
      <trkpt lat="49.43588" lon="-1.3792">
        <ele>7.3</ele>
        <time>2022-01-27T16:23:14Z</time>
      </trkpt>
      <trkpt lat="49.43584" lon="-1.37926">
        <ele>7.2</ele>
        <time>2022-01-27T16:23:19Z</time>
      </trkpt>
      <trkpt lat="49.4358" lon="-1.37931">
        <ele>7</ele>
        <time>2022-01-27T16:23:22Z</time>
      </trkpt>
      <trkpt lat="49.43577" lon="-1.37937">
        <ele>7.1</ele>
        <time>2022-01-27T16:23:25Z</time>
      </trkpt>
      <trkpt lat="49.43574" lon="-1.37943">
        <ele>7.3</ele>
        <time>2022-01-27T16:23:28Z</time>
      </trkpt>
      <trkpt lat="49.43571" lon="-1.37949">
        <ele>7.5</ele>
        <time>2022-01-27T16:23:32Z</time>
      </trkpt>
      <trkpt lat="49.43567" lon="-1.37956">
        <ele>7.5</ele>
        <time>2022-01-27T16:23:36Z</time>
      </trkpt>
      <trkpt lat="49.43564" lon="-1.37961">
        <ele>7.4</ele>
        <time>2022-01-27T16:23:39Z</time>
      </trkpt>
      <trkpt lat="49.43561" lon="-1.37968">
        <ele>6.9</ele>
        <time>2022-01-27T16:23:43Z</time>
      </trkpt>
      <trkpt lat="49.43558" lon="-1.37975">
        <ele>6.5</ele>
        <time>2022-01-27T16:23:47Z</time>
      </trkpt>
      <trkpt lat="49.43556" lon="-1.37982">
        <ele>6.2</ele>
        <time>2022-01-27T16:23:50Z</time>
      </trkpt>
      <trkpt lat="49.43553" lon="-1.37989">
        <ele>6.1</ele>
        <time>2022-01-27T16:23:54Z</time>
      </trkpt>
      <trkpt lat="49.43551" lon="-1.37997">
        <ele>5.8</ele>
        <time>2022-01-27T16:23:58Z</time>
      </trkpt>
      <trkpt lat="49.43551" lon="-1.38004">
        <ele>5.4</ele>
        <time>2022-01-27T16:24:01Z</time>
      </trkpt>
      <trkpt lat="49.4355" lon="-1.38013">
        <ele>5</ele>
        <time>2022-01-27T16:24:05Z</time>
      </trkpt>
      <trkpt lat="49.43551" lon="-1.38022">
        <ele>4.3</ele>
        <time>2022-01-27T16:24:10Z</time>
      </trkpt>
      <trkpt lat="49.43547" lon="-1.38026">
        <ele>3.7</ele>
        <time>2022-01-27T16:24:15Z</time>
      </trkpt>
      <trkpt lat="49.43549" lon="-1.38033">
        <ele>3.3</ele>
        <time>2022-01-27T16:24:19Z</time>
      </trkpt>
      <trkpt lat="49.43554" lon="-1.38038">
        <ele>3.1</ele>
        <time>2022-01-27T16:24:22Z</time>
      </trkpt>
      <trkpt lat="49.43557" lon="-1.38044">
        <ele>3</ele>
        <time>2022-01-27T16:24:25Z</time>
      </trkpt>
      <trkpt lat="49.43558" lon="-1.38054">
        <ele>2.9</ele>
        <time>2022-01-27T16:24:29Z</time>
      </trkpt>
      <trkpt lat="49.43561" lon="-1.38061">
        <ele>2.9</ele>
        <time>2022-01-27T16:24:33Z</time>
      </trkpt>
      <trkpt lat="49.43565" lon="-1.38066">
        <ele>2.9</ele>
        <time>2022-01-27T16:24:36Z</time>
      </trkpt>
      <trkpt lat="49.43569" lon="-1.38069">
        <ele>3.3</ele>
        <time>2022-01-27T16:24:39Z</time>
      </trkpt>
      <trkpt lat="49.43574" lon="-1.38073">
        <ele>3.7</ele>
        <time>2022-01-27T16:24:43Z</time>
      </trkpt>
      <trkpt lat="49.43578" lon="-1.38078">
        <ele>4</ele>
        <time>2022-01-27T16:24:46Z</time>
      </trkpt>
      <trkpt lat="49.43581" lon="-1.38083">
        <ele>3.9</ele>
        <time>2022-01-27T16:24:49Z</time>
      </trkpt>
      <trkpt lat="49.43585" lon="-1.38088">
        <ele>4</ele>
        <time>2022-01-27T16:24:53Z</time>
      </trkpt>
      <trkpt lat="49.4359" lon="-1.38091">
        <ele>4.2</ele>
        <time>2022-01-27T16:24:56Z</time>
      </trkpt>
      <trkpt lat="49.43595" lon="-1.38095">
        <ele>4.6</ele>
        <time>2022-01-27T16:25:00Z</time>
      </trkpt>
      <trkpt lat="49.43599" lon="-1.381">
        <ele>4.8</ele>
        <time>2022-01-27T16:25:04Z</time>
      </trkpt>
      <trkpt lat="49.43604" lon="-1.38104">
        <ele>4.8</ele>
        <time>2022-01-27T16:25:08Z</time>
      </trkpt>
      <trkpt lat="49.43608" lon="-1.38107">
        <ele>4.8</ele>
        <time>2022-01-27T16:25:12Z</time>
      </trkpt>
      <trkpt lat="49.43613" lon="-1.38111">
        <ele>4.8</ele>
        <time>2022-01-27T16:25:15Z</time>
      </trkpt>
      <trkpt lat="49.43618" lon="-1.38115">
        <ele>4.9</ele>
        <time>2022-01-27T16:25:19Z</time>
      </trkpt>
      <trkpt lat="49.43622" lon="-1.38119">
        <ele>5.1</ele>
        <time>2022-01-27T16:25:22Z</time>
      </trkpt>
      <trkpt lat="49.43627" lon="-1.38123">
        <ele>5.2</ele>
        <time>2022-01-27T16:25:25Z</time>
      </trkpt>
      <trkpt lat="49.43631" lon="-1.38129">
        <ele>5.1</ele>
        <time>2022-01-27T16:25:29Z</time>
      </trkpt>
      <trkpt lat="49.43637" lon="-1.38134">
        <ele>4.9</ele>
        <time>2022-01-27T16:25:33Z</time>
      </trkpt>
      <trkpt lat="49.4364" lon="-1.38138">
        <ele>4.8</ele>
        <time>2022-01-27T16:25:37Z</time>
      </trkpt>
      <trkpt lat="49.43644" lon="-1.38142">
        <ele>4.8</ele>
        <time>2022-01-27T16:25:40Z</time>
      </trkpt>
      <trkpt lat="49.43649" lon="-1.38148">
        <ele>4.8</ele>
        <time>2022-01-27T16:25:44Z</time>
      </trkpt>
      <trkpt lat="49.43653" lon="-1.38152">
        <ele>4.8</ele>
        <time>2022-01-27T16:25:47Z</time>
      </trkpt>
      <trkpt lat="49.43656" lon="-1.38157">
        <ele>5.1</ele>
        <time>2022-01-27T16:25:51Z</time>
      </trkpt>
      <trkpt lat="49.4366" lon="-1.38163">
        <ele>5.2</ele>
        <time>2022-01-27T16:25:55Z</time>
      </trkpt>
      <trkpt lat="49.43663" lon="-1.38168">
        <ele>5</ele>
        <time>2022-01-27T16:25:59Z</time>
      </trkpt>
      <trkpt lat="49.43667" lon="-1.38172">
        <ele>4.8</ele>
        <time>2022-01-27T16:26:02Z</time>
      </trkpt>
      <trkpt lat="49.43671" lon="-1.38177">
        <ele>4.7</ele>
        <time>2022-01-27T16:26:07Z</time>
      </trkpt>
      <trkpt lat="49.43676" lon="-1.38181">
        <ele>4.6</ele>
        <time>2022-01-27T16:26:10Z</time>
      </trkpt>
      <trkpt lat="49.4368" lon="-1.38184">
        <ele>4.2</ele>
        <time>2022-01-27T16:26:14Z</time>
      </trkpt>
      <trkpt lat="49.43685" lon="-1.38189">
        <ele>3.8</ele>
        <time>2022-01-27T16:26:17Z</time>
      </trkpt>
      <trkpt lat="49.43689" lon="-1.38195">
        <ele>3.2</ele>
        <time>2022-01-27T16:26:21Z</time>
      </trkpt>
      <trkpt lat="49.43693" lon="-1.382">
        <ele>2.5</ele>
        <time>2022-01-27T16:26:26Z</time>
      </trkpt>
      <trkpt lat="49.43697" lon="-1.38205">
        <ele>2.1</ele>
        <time>2022-01-27T16:26:29Z</time>
      </trkpt>
      <trkpt lat="49.43701" lon="-1.38211">
        <ele>1.9</ele>
        <time>2022-01-27T16:26:32Z</time>
      </trkpt>
      <trkpt lat="49.43705" lon="-1.38216">
        <ele>1.7</ele>
        <time>2022-01-27T16:26:36Z</time>
      </trkpt>
      <trkpt lat="49.4371" lon="-1.38221">
        <ele>1.6</ele>
        <time>2022-01-27T16:26:39Z</time>
      </trkpt>
      <trkpt lat="49.43714" lon="-1.38226">
        <ele>1.4</ele>
        <time>2022-01-27T16:26:43Z</time>
      </trkpt>
      <trkpt lat="49.43718" lon="-1.38232">
        <ele>1.1</ele>
        <time>2022-01-27T16:26:47Z</time>
      </trkpt>
      <trkpt lat="49.43722" lon="-1.38237">
        <ele>0.8</ele>
        <time>2022-01-27T16:26:50Z</time>
      </trkpt>
      <trkpt lat="49.43727" lon="-1.38242">
        <ele>0.8</ele>
        <time>2022-01-27T16:26:54Z</time>
      </trkpt>
      <trkpt lat="49.43731" lon="-1.38247">
        <ele>0.9</ele>
        <time>2022-01-27T16:26:58Z</time>
      </trkpt>
      <trkpt lat="49.43735" lon="-1.38252">
        <ele>0.9</ele>
        <time>2022-01-27T16:27:01Z</time>
      </trkpt>
      <trkpt lat="49.43739" lon="-1.38257">
        <ele>0.3</ele>
        <time>2022-01-27T16:27:06Z</time>
      </trkpt>
      <trkpt lat="49.43744" lon="-1.38263">
        <ele>-0.3</ele>
        <time>2022-01-27T16:27:10Z</time>
      </trkpt>
      <trkpt lat="49.43748" lon="-1.38268">
        <ele>-0.2</ele>
        <time>2022-01-27T16:27:14Z</time>
      </trkpt>
      <trkpt lat="49.43753" lon="-1.38273">
        <ele>0.2</ele>
        <time>2022-01-27T16:27:18Z</time>
      </trkpt>
      <trkpt lat="49.43757" lon="-1.38278">
        <ele>0.6</ele>
        <time>2022-01-27T16:27:22Z</time>
      </trkpt>
      <trkpt lat="49.43761" lon="-1.38284">
        <ele>0.7</ele>
        <time>2022-01-27T16:27:26Z</time>
      </trkpt>
      <trkpt lat="49.43765" lon="-1.38288">
        <ele>0.9</ele>
        <time>2022-01-27T16:27:30Z</time>
      </trkpt>
      <trkpt lat="49.43764" lon="-1.38295">
        <ele>1.5</ele>
        <time>2022-01-27T16:27:35Z</time>
      </trkpt>
      <trkpt lat="49.43767" lon="-1.38303">
        <ele>2.3</ele>
        <time>2022-01-27T16:27:39Z</time>
      </trkpt>
      <trkpt lat="49.43773" lon="-1.38307">
        <ele>2.7</ele>
        <time>2022-01-27T16:27:43Z</time>
      </trkpt>
      <trkpt lat="49.43779" lon="-1.3831">
        <ele>2.8</ele>
        <time>2022-01-27T16:27:45Z</time>
      </trkpt>
      <trkpt lat="49.43784" lon="-1.38312">
        <ele>2.8</ele>
        <time>2022-01-27T16:27:48Z</time>
      </trkpt>
      <trkpt lat="49.43788" lon="-1.38316">
        <ele>2.9</ele>
        <time>2022-01-27T16:27:51Z</time>
      </trkpt>
      <trkpt lat="49.43791" lon="-1.38322">
        <ele>2.9</ele>
        <time>2022-01-27T16:27:54Z</time>
      </trkpt>
      <trkpt lat="49.43795" lon="-1.38326">
        <ele>3.1</ele>
        <time>2022-01-27T16:27:57Z</time>
      </trkpt>
      <trkpt lat="49.43799" lon="-1.38331">
        <ele>3.3</ele>
        <time>2022-01-27T16:28:01Z</time>
      </trkpt>
      <trkpt lat="49.43804" lon="-1.38335">
        <ele>3.2</ele>
        <time>2022-01-27T16:28:05Z</time>
      </trkpt>
      <trkpt lat="49.43808" lon="-1.38339">
        <ele>3</ele>
        <time>2022-01-27T16:28:08Z</time>
      </trkpt>
      <trkpt lat="49.43812" lon="-1.38345">
        <ele>2.8</ele>
        <time>2022-01-27T16:28:13Z</time>
      </trkpt>
      <trkpt lat="49.43816" lon="-1.3835">
        <ele>2.9</ele>
        <time>2022-01-27T16:28:16Z</time>
      </trkpt>
      <trkpt lat="49.4382" lon="-1.38355">
        <ele>2.8</ele>
        <time>2022-01-27T16:28:19Z</time>
      </trkpt>
      <trkpt lat="49.43824" lon="-1.38359">
        <ele>2.7</ele>
        <time>2022-01-27T16:28:22Z</time>
      </trkpt>
      <trkpt lat="49.43828" lon="-1.38364">
        <ele>2.6</ele>
        <time>2022-01-27T16:28:26Z</time>
      </trkpt>
      <trkpt lat="49.43832" lon="-1.38368">
        <ele>2.5</ele>
        <time>2022-01-27T16:28:29Z</time>
      </trkpt>
      <trkpt lat="49.43836" lon="-1.38373">
        <ele>2.6</ele>
        <time>2022-01-27T16:28:32Z</time>
      </trkpt>
      <trkpt lat="49.4384" lon="-1.38377">
        <ele>2.5</ele>
        <time>2022-01-27T16:28:36Z</time>
      </trkpt>
      <trkpt lat="49.43845" lon="-1.38381">
        <ele>2.5</ele>
        <time>2022-01-27T16:28:39Z</time>
      </trkpt>
      <trkpt lat="49.43848" lon="-1.38385">
        <ele>2.4</ele>
        <time>2022-01-27T16:28:42Z</time>
      </trkpt>
      <trkpt lat="49.43853" lon="-1.3839">
        <ele>2.4</ele>
        <time>2022-01-27T16:28:46Z</time>
      </trkpt>
      <trkpt lat="49.43857" lon="-1.38395">
        <ele>2.6</ele>
        <time>2022-01-27T16:28:50Z</time>
      </trkpt>
      <trkpt lat="49.43861" lon="-1.384">
        <ele>2.7</ele>
        <time>2022-01-27T16:28:53Z</time>
      </trkpt>
      <trkpt lat="49.43865" lon="-1.38405">
        <ele>2.6</ele>
        <time>2022-01-27T16:28:57Z</time>
      </trkpt>
      <trkpt lat="49.4387" lon="-1.3841">
        <ele>2.4</ele>
        <time>2022-01-27T16:29:01Z</time>
      </trkpt>
      <trkpt lat="49.43873" lon="-1.38415">
        <ele>2.4</ele>
        <time>2022-01-27T16:29:05Z</time>
      </trkpt>
      <trkpt lat="49.43877" lon="-1.3842">
        <ele>2.5</ele>
        <time>2022-01-27T16:29:08Z</time>
      </trkpt>
      <trkpt lat="49.43881" lon="-1.38424">
        <ele>2.7</ele>
        <time>2022-01-27T16:29:11Z</time>
      </trkpt>
      <trkpt lat="49.43885" lon="-1.38428">
        <ele>2.8</ele>
        <time>2022-01-27T16:29:15Z</time>
      </trkpt>
      <trkpt lat="49.43891" lon="-1.38433">
        <ele>2.9</ele>
        <time>2022-01-27T16:29:19Z</time>
      </trkpt>
      <trkpt lat="49.43894" lon="-1.38438">
        <ele>3.1</ele>
        <time>2022-01-27T16:29:22Z</time>
      </trkpt>
      <trkpt lat="49.43899" lon="-1.38441">
        <ele>3.4</ele>
        <time>2022-01-27T16:29:26Z</time>
      </trkpt>
      <trkpt lat="49.43909" lon="-1.38449">
        <ele>4.3</ele>
        <time>2022-01-27T16:29:33Z</time>
      </trkpt>
      <trkpt lat="49.43913" lon="-1.38454">
        <ele>4.3</ele>
        <time>2022-01-27T16:29:37Z</time>
      </trkpt>
      <trkpt lat="49.43917" lon="-1.38457">
        <ele>4.2</ele>
        <time>2022-01-27T16:29:40Z</time>
      </trkpt>
      <trkpt lat="49.43921" lon="-1.38461">
        <ele>3.8</ele>
        <time>2022-01-27T16:29:43Z</time>
      </trkpt>
      <trkpt lat="49.43936" lon="-1.38474">
        <ele>3.8</ele>
        <time>2022-01-27T16:29:54Z</time>
      </trkpt>
      <trkpt lat="49.4394" lon="-1.38478">
        <ele>4.1</ele>
        <time>2022-01-27T16:29:58Z</time>
      </trkpt>
      <trkpt lat="49.43945" lon="-1.38483">
        <ele>4.2</ele>
        <time>2022-01-27T16:30:02Z</time>
      </trkpt>
      <trkpt lat="49.43949" lon="-1.38487">
        <ele>4.4</ele>
        <time>2022-01-27T16:30:05Z</time>
      </trkpt>
      <trkpt lat="49.43953" lon="-1.38491">
        <ele>4.7</ele>
        <time>2022-01-27T16:30:09Z</time>
      </trkpt>
      <trkpt lat="49.43956" lon="-1.38496">
        <ele>5</ele>
        <time>2022-01-27T16:30:12Z</time>
      </trkpt>
      <trkpt lat="49.4396" lon="-1.385">
        <ele>5.3</ele>
        <time>2022-01-27T16:30:15Z</time>
      </trkpt>
      <trkpt lat="49.43965" lon="-1.38505">
        <ele>5.8</ele>
        <time>2022-01-27T16:30:19Z</time>
      </trkpt>
      <trkpt lat="49.43969" lon="-1.38508">
        <ele>6.1</ele>
        <time>2022-01-27T16:30:24Z</time>
      </trkpt>
      <trkpt lat="49.43975" lon="-1.38511">
        <ele>6.3</ele>
        <time>2022-01-27T16:30:30Z</time>
      </trkpt>
      <trkpt lat="49.43979" lon="-1.38515">
        <ele>6.4</ele>
        <time>2022-01-27T16:30:35Z</time>
      </trkpt>
      <trkpt lat="49.43984" lon="-1.38515">
        <ele>6.3</ele>
        <time>2022-01-27T16:30:39Z</time>
      </trkpt>
      <trkpt lat="49.43989" lon="-1.38518">
        <ele>6</ele>
        <time>2022-01-27T16:30:44Z</time>
      </trkpt>
      <trkpt lat="49.43993" lon="-1.38523">
        <ele>5.8</ele>
        <time>2022-01-27T16:30:47Z</time>
      </trkpt>
      <trkpt lat="49.43997" lon="-1.38529">
        <ele>5.8</ele>
        <time>2022-01-27T16:30:50Z</time>
      </trkpt>
      <trkpt lat="49.44002" lon="-1.38534">
        <ele>5.7</ele>
        <time>2022-01-27T16:30:54Z</time>
      </trkpt>
      <trkpt lat="49.44006" lon="-1.38537">
        <ele>5.5</ele>
        <time>2022-01-27T16:30:57Z</time>
      </trkpt>
      <trkpt lat="49.44011" lon="-1.38539">
        <ele>5.5</ele>
        <time>2022-01-27T16:31:00Z</time>
      </trkpt>
      <trkpt lat="49.44016" lon="-1.38539">
        <ele>5.6</ele>
        <time>2022-01-27T16:31:03Z</time>
      </trkpt>
      <trkpt lat="49.44021" lon="-1.38541">
        <ele>5.7</ele>
        <time>2022-01-27T16:31:07Z</time>
      </trkpt>
      <trkpt lat="49.44025" lon="-1.38544">
        <ele>5.8</ele>
        <time>2022-01-27T16:31:12Z</time>
      </trkpt>
      <trkpt lat="49.4403" lon="-1.38543">
        <ele>5.5</ele>
        <time>2022-01-27T16:31:15Z</time>
      </trkpt>
      <trkpt lat="49.44035" lon="-1.38545">
        <ele>5.4</ele>
        <time>2022-01-27T16:31:20Z</time>
      </trkpt>
    </trkseg>
  </trk>
</gpx>